<?xml version="1.0" encoding="UTF-8" standalone="no" ?>
<gpx xmlns="http://www.topografix.com/GPX/1/1" xmlns:xsi="http://www.w3.org/2001/XMLSchema-instance" xsi:schemaLocation="http://www.topografix.com/GPX/1/1 http://www.topografix.com/GPX/1/1/gpx.xsd" version="1.1" creator="VisuGPX - https://www.visugpx.com">
  <metadata>
    <name>circuits VTT</name>
  </metadata>
  <trk>
    <name><![CDATA[01 La Route des Salins - TraceGps issued]]></name>
    <extensions>
      <line xmlns="http://www.topografix.com/GPX/gpx_style/0/2">
        <color>0000FF</color>
        <width>4</width>
      </line>
    </extensions>
    <trkseg>
      <trkpt lat="43.10846" lon="3.0899">
        <ele>0.349966</ele>
        <time>2009-11-04T14:46:32Z</time>
      </trkpt>
      <trkpt lat="43.11402" lon="3.09212">
        <ele>0.900008</ele>
        <time>2009-11-04T14:46:32Z</time>
      </trkpt>
      <trkpt lat="43.1143" lon="3.09219">
        <ele>1.157876</ele>
        <time>2009-11-04T14:46:32Z</time>
      </trkpt>
      <trkpt lat="43.11633" lon="3.08872">
        <ele>1.600028</ele>
        <time>2009-11-04T14:46:32Z</time>
      </trkpt>
      <trkpt lat="43.1163" lon="3.08826">
        <ele>0.923231</ele>
        <time>2009-11-04T14:46:32Z</time>
      </trkpt>
      <trkpt lat="43.11646" lon="3.08771">
        <ele>1.260063</ele>
        <time>2009-11-04T14:46:32Z</time>
      </trkpt>
      <trkpt lat="43.11684" lon="3.08744">
        <ele>1.549991</ele>
        <time>2009-11-04T14:46:32Z</time>
      </trkpt>
      <trkpt lat="43.1168" lon="3.08572">
        <ele>1.000077</ele>
        <time>2009-11-04T14:46:32Z</time>
      </trkpt>
      <trkpt lat="43.11675" lon="3.08526">
        <ele>0.873404</ele>
        <time>2009-11-04T14:46:32Z</time>
      </trkpt>
      <trkpt lat="43.11714" lon="3.08453">
        <ele>1.654625</ele>
        <time>2009-11-04T14:46:32Z</time>
      </trkpt>
      <trkpt lat="43.11746" lon="3.08386">
        <ele>1.651742</ele>
        <time>2009-11-04T14:46:32Z</time>
      </trkpt>
      <trkpt lat="43.11736" lon="3.08297">
        <ele>0.199934</ele>
        <time>2009-11-04T14:46:32Z</time>
      </trkpt>
      <trkpt lat="43.11733" lon="3.08226">
        <ele>0.948295</ele>
        <time>2009-11-04T14:46:32Z</time>
      </trkpt>
      <trkpt lat="43.1171" lon="3.08137">
        <ele>1.240056</ele>
        <time>2009-11-04T14:46:32Z</time>
      </trkpt>
      <trkpt lat="43.11721" lon="3.08033">
        <ele>3.326167</ele>
        <time>2009-11-04T14:46:32Z</time>
      </trkpt>
      <trkpt lat="43.11689" lon="3.07959">
        <ele>3.99008</ele>
        <time>2009-11-04T14:46:32Z</time>
      </trkpt>
      <trkpt lat="43.11664" lon="3.07891">
        <ele>3.046607</ele>
        <time>2009-11-04T14:46:32Z</time>
      </trkpt>
      <trkpt lat="43.11659" lon="3.07787">
        <ele>5.159403</ele>
        <time>2009-11-04T14:46:32Z</time>
      </trkpt>
      <trkpt lat="43.11649" lon="3.07713">
        <ele>5.752105</ele>
        <time>2009-11-04T14:46:32Z</time>
      </trkpt>
      <trkpt lat="43.11651" lon="3.07566">
        <ele>2.879902</ele>
        <time>2009-11-04T14:46:32Z</time>
      </trkpt>
      <trkpt lat="43.11661" lon="3.07413">
        <ele>1.320043</ele>
        <time>2009-11-04T14:46:32Z</time>
      </trkpt>
      <trkpt lat="43.11677" lon="3.07324">
        <ele>1</ele>
        <time>2009-11-04T14:46:32Z</time>
      </trkpt>
      <trkpt lat="43.11658" lon="3.07235">
        <ele>1.099933</ele>
        <time>2009-11-04T14:46:32Z</time>
      </trkpt>
      <trkpt lat="43.11622" lon="3.07164">
        <ele>1.721573</ele>
        <time>2009-11-04T14:46:32Z</time>
      </trkpt>
      <trkpt lat="43.11547" lon="3.07135">
        <ele>1.259961</ele>
        <time>2009-11-04T14:46:32Z</time>
      </trkpt>
      <trkpt lat="43.11462" lon="3.07061">
        <ele>3.600261</ele>
        <time>2009-11-04T14:46:32Z</time>
      </trkpt>
      <trkpt lat="43.11396" lon="3.07014">
        <ele>2.769377</ele>
        <time>2009-11-04T14:46:32Z</time>
      </trkpt>
      <trkpt lat="43.11306" lon="3.06881">
        <ele>1.399902</ele>
        <time>2009-11-04T14:46:32Z</time>
      </trkpt>
      <trkpt lat="43.11124" lon="3.06597">
        <ele>0.300082</ele>
        <time>2009-11-04T14:46:32Z</time>
      </trkpt>
      <trkpt lat="43.11071" lon="3.06574">
        <ele>1</ele>
        <time>2009-11-04T14:46:32Z</time>
      </trkpt>
      <trkpt lat="43.1098" lon="3.0642">
        <ele>1.696626</ele>
        <time>2009-11-04T14:46:32Z</time>
      </trkpt>
      <trkpt lat="43.10987" lon="3.06331">
        <ele>1</ele>
        <time>2009-11-04T14:46:32Z</time>
      </trkpt>
      <trkpt lat="43.10847" lon="3.06342">
        <ele>2.550177</ele>
        <time>2009-11-04T14:46:32Z</time>
      </trkpt>
      <trkpt lat="43.10796" lon="3.06424">
        <ele>9.129521</ele>
        <time>2009-11-04T14:46:32Z</time>
      </trkpt>
      <trkpt lat="43.10775" lon="3.06433">
        <ele>10.008287</ele>
        <time>2009-11-04T14:46:32Z</time>
      </trkpt>
      <trkpt lat="43.10753" lon="3.06374">
        <ele>8.941398</ele>
        <time>2009-11-04T14:46:32Z</time>
      </trkpt>
      <trkpt lat="43.10627" lon="3.06284">
        <ele>12.600494</ele>
        <time>2009-11-04T14:46:32Z</time>
      </trkpt>
      <trkpt lat="43.10546" lon="3.0627">
        <ele>13.080613</ele>
        <time>2009-11-04T14:46:32Z</time>
      </trkpt>
      <trkpt lat="43.10581" lon="3.06436">
        <ele>29.440004</ele>
        <time>2009-11-04T14:46:32Z</time>
      </trkpt>
      <trkpt lat="43.10603" lon="3.06578">
        <ele>29.419632</ele>
        <time>2009-11-04T14:46:32Z</time>
      </trkpt>
      <trkpt lat="43.10549" lon="3.06602">
        <ele>29.841173</ele>
        <time>2009-11-04T14:46:32Z</time>
      </trkpt>
      <trkpt lat="43.10459" lon="3.0657">
        <ele>40.899834</ele>
        <time>2009-11-04T14:46:32Z</time>
      </trkpt>
      <trkpt lat="43.10337" lon="3.06685">
        <ele>38.959923</ele>
        <time>2009-11-04T14:46:32Z</time>
      </trkpt>
      <trkpt lat="43.10332" lon="3.06795">
        <ele>36.100189</ele>
        <time>2009-11-04T14:46:32Z</time>
      </trkpt>
      <trkpt lat="43.10313" lon="3.06917">
        <ele>32.299774</ele>
        <time>2009-11-04T14:46:32Z</time>
      </trkpt>
      <trkpt lat="43.10275" lon="3.06991">
        <ele>29.501135</ele>
        <time>2009-11-04T14:46:32Z</time>
      </trkpt>
      <trkpt lat="43.10249" lon="3.07088">
        <ele>27.980019</ele>
        <time>2009-11-04T14:46:32Z</time>
      </trkpt>
      <trkpt lat="43.10083" lon="3.06988">
        <ele>24.999882</ele>
        <time>2009-11-04T14:46:32Z</time>
      </trkpt>
      <trkpt lat="43.09997" lon="3.06981">
        <ele>28.309284</ele>
        <time>2009-11-04T14:46:32Z</time>
      </trkpt>
      <trkpt lat="43.09943" lon="3.06937">
        <ele>30.400795</ele>
        <time>2009-11-04T14:46:32Z</time>
      </trkpt>
      <trkpt lat="43.09886" lon="3.06869">
        <ele>31.76037</ele>
        <time>2009-11-04T14:46:32Z</time>
      </trkpt>
      <trkpt lat="43.09838" lon="3.06816">
        <ele>32.631687</ele>
        <time>2009-11-04T14:46:32Z</time>
      </trkpt>
      <trkpt lat="43.09783" lon="3.06788">
        <ele>32.500107</ele>
        <time>2009-11-04T14:46:32Z</time>
      </trkpt>
      <trkpt lat="43.09726" lon="3.06772">
        <ele>32.223328</ele>
        <time>2009-11-04T14:46:32Z</time>
      </trkpt>
      <trkpt lat="43.0968" lon="3.06774">
        <ele>30.399841</ele>
        <time>2009-11-04T14:46:32Z</time>
      </trkpt>
      <trkpt lat="43.09577" lon="3.06785">
        <ele>27.700195</ele>
        <time>2009-11-04T14:46:32Z</time>
      </trkpt>
      <trkpt lat="43.09474" lon="3.06772">
        <ele>24.720039</ele>
        <time>2009-11-04T14:46:32Z</time>
      </trkpt>
      <trkpt lat="43.09427" lon="3.0679">
        <ele>25.096371</ele>
        <time>2009-11-04T14:46:32Z</time>
      </trkpt>
      <trkpt lat="43.09396" lon="3.06786">
        <ele>23.947004</ele>
        <time>2009-11-04T14:46:32Z</time>
      </trkpt>
      <trkpt lat="43.09351" lon="3.06795">
        <ele>22.478052</ele>
        <time>2009-11-04T14:46:32Z</time>
      </trkpt>
      <trkpt lat="43.0934" lon="3.06752">
        <ele>21.125101</ele>
        <time>2009-11-04T14:46:32Z</time>
      </trkpt>
      <trkpt lat="43.09317" lon="3.06739">
        <ele>20.399921</ele>
        <time>2009-11-04T14:46:32Z</time>
      </trkpt>
      <trkpt lat="43.09275" lon="3.06717">
        <ele>19.261774</ele>
        <time>2009-11-04T14:46:32Z</time>
      </trkpt>
      <trkpt lat="43.09223" lon="3.06707">
        <ele>19.39994</ele>
        <time>2009-11-04T14:46:32Z</time>
      </trkpt>
      <trkpt lat="43.09219" lon="3.06658">
        <ele>20.843122</ele>
        <time>2009-11-04T14:46:32Z</time>
      </trkpt>
      <trkpt lat="43.0912" lon="3.06602">
        <ele>18.92984</ele>
        <time>2009-11-04T14:46:32Z</time>
      </trkpt>
      <trkpt lat="43.09035" lon="3.06582">
        <ele>16.520021</ele>
        <time>2009-11-04T14:46:32Z</time>
      </trkpt>
      <trkpt lat="43.08995" lon="3.0657">
        <ele>14.980729</ele>
        <time>2009-11-04T14:46:32Z</time>
      </trkpt>
      <trkpt lat="43.08945" lon="3.06514">
        <ele>12.999731</ele>
        <time>2009-11-04T14:46:32Z</time>
      </trkpt>
      <trkpt lat="43.08838" lon="3.06482">
        <ele>11.599681</ele>
        <time>2009-11-04T14:46:32Z</time>
      </trkpt>
      <trkpt lat="43.08713" lon="3.06437">
        <ele>15.106702</ele>
        <time>2009-11-04T14:46:32Z</time>
      </trkpt>
      <trkpt lat="43.08649" lon="3.06437">
        <ele>12.500087</ele>
        <time>2009-11-04T14:46:32Z</time>
      </trkpt>
      <trkpt lat="43.08599" lon="3.06433">
        <ele>8.404567</ele>
        <time>2009-11-04T14:46:32Z</time>
      </trkpt>
      <trkpt lat="43.08546" lon="3.06454">
        <ele>5.160065</ele>
        <time>2009-11-04T14:46:32Z</time>
      </trkpt>
      <trkpt lat="43.0852" lon="3.0649">
        <ele>4.728229</ele>
        <time>2009-11-04T14:46:32Z</time>
      </trkpt>
      <trkpt lat="43.08483" lon="3.06508">
        <ele>4.150037</ele>
        <time>2009-11-04T14:46:32Z</time>
      </trkpt>
      <trkpt lat="43.08444" lon="3.06802">
        <ele>1.836167</ele>
        <time>2009-11-04T14:46:32Z</time>
      </trkpt>
      <trkpt lat="43.08436" lon="3.06872">
        <ele>1.8645</ele>
        <time>2009-11-04T14:46:32Z</time>
      </trkpt>
      <trkpt lat="43.08402" lon="3.06921">
        <ele>1.32724</ele>
        <time>2009-11-04T14:46:32Z</time>
      </trkpt>
      <trkpt lat="43.08326" lon="3.06877">
        <ele>0.248297</ele>
        <time>2009-11-04T14:46:32Z</time>
      </trkpt>
      <trkpt lat="43.08211" lon="3.06835">
        <ele>0.10006</ele>
        <time>2009-11-04T14:46:32Z</time>
      </trkpt>
      <trkpt lat="43.08156" lon="3.06914">
        <ele>1</ele>
        <time>2009-11-04T14:46:32Z</time>
      </trkpt>
      <trkpt lat="43.0809" lon="3.06852">
        <ele>0.88003</ele>
        <time>2009-11-04T14:46:32Z</time>
      </trkpt>
      <trkpt lat="43.08013" lon="3.069">
        <ele>1</ele>
        <time>2009-11-04T14:46:32Z</time>
      </trkpt>
      <trkpt lat="43.07958" lon="3.0701">
        <ele>0.900038</ele>
        <time>2009-11-04T14:46:32Z</time>
      </trkpt>
      <trkpt lat="43.07963" lon="3.07078">
        <ele>1</ele>
        <time>2009-11-04T14:46:32Z</time>
      </trkpt>
      <trkpt lat="43.07965" lon="3.07117">
        <ele>1</ele>
        <time>2009-11-04T14:46:32Z</time>
      </trkpt>
      <trkpt lat="43.07999" lon="3.07139">
        <ele>1</ele>
        <time>2009-11-04T14:46:32Z</time>
      </trkpt>
      <trkpt lat="43.08039" lon="3.07161">
        <ele>1</ele>
        <time>2009-11-04T14:46:32Z</time>
      </trkpt>
      <trkpt lat="43.08091" lon="3.0718">
        <ele>1</ele>
        <time>2009-11-04T14:46:32Z</time>
      </trkpt>
      <trkpt lat="43.08158" lon="3.07203">
        <ele>1</ele>
        <time>2009-11-04T14:46:32Z</time>
      </trkpt>
      <trkpt lat="43.08209" lon="3.0724">
        <ele>1</ele>
        <time>2009-11-04T14:46:32Z</time>
      </trkpt>
      <trkpt lat="43.08312" lon="3.07303">
        <ele>1</ele>
        <time>2009-11-04T14:46:32Z</time>
      </trkpt>
      <trkpt lat="43.08415" lon="3.07362">
        <ele>1</ele>
        <time>2009-11-04T14:46:32Z</time>
      </trkpt>
      <trkpt lat="43.08639" lon="3.07497">
        <ele>1</ele>
        <time>2009-11-04T14:46:32Z</time>
      </trkpt>
      <trkpt lat="43.0869" lon="3.0754">
        <ele>1</ele>
        <time>2009-11-04T14:46:32Z</time>
      </trkpt>
      <trkpt lat="43.08741" lon="3.0759">
        <ele>0.576579</ele>
        <time>2009-11-04T14:46:32Z</time>
      </trkpt>
      <trkpt lat="43.08761" lon="3.07624">
        <ele>0.126596</ele>
        <time>2009-11-04T14:46:32Z</time>
      </trkpt>
      <trkpt lat="43.08768" lon="3.07685">
        <time>2009-11-04T14:46:32Z</time>
      </trkpt>
      <trkpt lat="43.08772" lon="3.07744">
        <ele>0.098842</ele>
        <time>2009-11-04T14:46:32Z</time>
      </trkpt>
      <trkpt lat="43.08787" lon="3.07802">
        <ele>0.869203</ele>
        <time>2009-11-04T14:46:32Z</time>
      </trkpt>
      <trkpt lat="43.08814" lon="3.07848">
        <ele>1.648126</ele>
        <time>2009-11-04T14:46:32Z</time>
      </trkpt>
      <trkpt lat="43.08836" lon="3.07907">
        <ele>2.953926</ele>
        <time>2009-11-04T14:46:32Z</time>
      </trkpt>
      <trkpt lat="43.08858" lon="3.07972">
        <ele>3.143169</ele>
        <time>2009-11-04T14:46:32Z</time>
      </trkpt>
      <trkpt lat="43.08641" lon="3.09142">
        <ele>1</ele>
        <time>2009-11-04T14:46:32Z</time>
      </trkpt>
      <trkpt lat="43.08629" lon="3.09173">
        <ele>1</ele>
        <time>2009-11-04T14:46:32Z</time>
      </trkpt>
      <trkpt lat="43.08622" lon="3.09191">
        <ele>1</ele>
        <time>2009-11-04T14:46:32Z</time>
      </trkpt>
      <trkpt lat="43.08727" lon="3.09312">
        <ele>1</ele>
        <time>2009-11-04T14:46:32Z</time>
      </trkpt>
      <trkpt lat="43.0872" lon="3.09919">
        <ele>1</ele>
        <time>2009-11-04T14:46:32Z</time>
      </trkpt>
      <trkpt lat="43.08817" lon="3.10116">
        <ele>0.250063</ele>
        <time>2009-11-04T14:46:32Z</time>
      </trkpt>
      <trkpt lat="43.08897" lon="3.10221">
        <ele>0.439921</ele>
        <time>2009-11-04T14:46:32Z</time>
      </trkpt>
      <trkpt lat="43.08982" lon="3.10314">
        <ele>1</ele>
        <time>2009-11-04T14:46:32Z</time>
      </trkpt>
      <trkpt lat="43.09084" lon="3.10395">
        <ele>1</ele>
        <time>2009-11-04T14:46:32Z</time>
      </trkpt>
      <trkpt lat="43.09196" lon="3.10489">
        <ele>1</ele>
        <time>2009-11-04T14:46:32Z</time>
      </trkpt>
      <trkpt lat="43.09286" lon="3.10539">
        <ele>1</ele>
        <time>2009-11-04T14:46:32Z</time>
      </trkpt>
      <trkpt lat="43.09398" lon="3.10577">
        <ele>1</ele>
        <time>2009-11-04T14:46:32Z</time>
      </trkpt>
      <trkpt lat="43.0946" lon="3.10584">
        <ele>1</ele>
        <time>2009-11-04T14:46:32Z</time>
      </trkpt>
      <trkpt lat="43.09515" lon="3.10487">
        <ele>1</ele>
        <time>2009-11-04T14:46:32Z</time>
      </trkpt>
      <trkpt lat="43.09538" lon="3.10432">
        <ele>1</ele>
        <time>2009-11-04T14:46:32Z</time>
      </trkpt>
      <trkpt lat="43.09414" lon="3.10011">
        <ele>0.226717</ele>
        <time>2009-11-04T14:46:32Z</time>
      </trkpt>
      <trkpt lat="43.09341" lon="3.09786">
        <ele>0.001494</ele>
        <time>2009-11-04T14:46:32Z</time>
      </trkpt>
      <trkpt lat="43.0935" lon="3.09737">
        <ele>0.559979</ele>
        <time>2009-11-04T14:46:32Z</time>
      </trkpt>
      <trkpt lat="43.09564" lon="3.09354">
        <ele>1</ele>
        <time>2009-11-04T14:46:32Z</time>
      </trkpt>
      <trkpt lat="43.09735" lon="3.09295">
        <ele>0.10003</ele>
        <time>2009-11-04T14:46:32Z</time>
      </trkpt>
      <trkpt lat="43.09972" lon="3.09396">
        <ele>0.500034</ele>
        <time>2009-11-04T14:46:32Z</time>
      </trkpt>
      <trkpt lat="43.09999" lon="3.09402">
        <ele>0.399935</ele>
        <time>2009-11-04T14:46:32Z</time>
      </trkpt>
      <trkpt lat="43.10031" lon="3.09366">
        <ele>0.600049</ele>
        <time>2009-11-04T14:46:32Z</time>
      </trkpt>
      <trkpt lat="43.10028" lon="3.09151">
        <ele>1</ele>
        <time>2009-11-04T14:46:32Z</time>
      </trkpt>
      <trkpt lat="43.10032" lon="3.09108">
        <ele>1</ele>
        <time>2009-11-04T14:46:32Z</time>
      </trkpt>
      <trkpt lat="43.10101" lon="3.08889">
        <ele>1</ele>
        <time>2009-11-04T14:46:32Z</time>
      </trkpt>
      <trkpt lat="43.10106" lon="3.08858">
        <ele>1</ele>
        <time>2009-11-04T14:46:32Z</time>
      </trkpt>
      <trkpt lat="43.10111" lon="3.08778">
        <ele>1</ele>
        <time>2009-11-04T14:46:32Z</time>
      </trkpt>
      <trkpt lat="43.10125" lon="3.08723">
        <ele>1</ele>
        <time>2009-11-04T14:46:32Z</time>
      </trkpt>
      <trkpt lat="43.10211" lon="3.08596">
        <ele>0.88002</ele>
        <time>2009-11-04T14:46:32Z</time>
      </trkpt>
      <trkpt lat="43.10293" lon="3.0845">
        <ele>2.799999</ele>
        <time>2009-11-04T14:46:32Z</time>
      </trkpt>
      <trkpt lat="43.10329" lon="3.08432">
        <ele>2.669983</ele>
        <time>2009-11-04T14:46:32Z</time>
      </trkpt>
      <trkpt lat="43.10357" lon="3.08383">
        <ele>4.349837</ele>
        <time>2009-11-04T14:46:32Z</time>
      </trkpt>
      <trkpt lat="43.10536" lon="3.08477">
        <ele>1.499953</ele>
        <time>2009-11-04T14:46:32Z</time>
      </trkpt>
      <trkpt lat="43.10549" lon="3.0841">
        <ele>1.100127</ele>
        <time>2009-11-04T14:46:32Z</time>
      </trkpt>
      <trkpt lat="43.10708" lon="3.08277">
        <ele>1.699828</ele>
        <time>2009-11-04T14:46:32Z</time>
      </trkpt>
      <trkpt lat="43.10743" lon="3.08296">
        <ele>3.499999</ele>
        <time>2009-11-04T14:46:32Z</time>
      </trkpt>
      <trkpt lat="43.10806" lon="3.08297">
        <ele>1.899924</ele>
        <time>2009-11-04T14:46:32Z</time>
      </trkpt>
      <trkpt lat="43.10842" lon="3.08334">
        <ele>2.100121</ele>
        <time>2009-11-04T14:46:32Z</time>
      </trkpt>
      <trkpt lat="43.10869" lon="3.0839">
        <ele>1.47012</ele>
        <time>2009-11-04T14:46:32Z</time>
      </trkpt>
      <trkpt lat="43.10882" lon="3.08451">
        <ele>1.519961</ele>
        <time>2009-11-04T14:46:32Z</time>
      </trkpt>
      <trkpt lat="43.1089" lon="3.08488">
        <ele>1.499805</ele>
        <time>2009-11-04T14:46:32Z</time>
      </trkpt>
      <trkpt lat="43.10895" lon="3.08531">
        <ele>1.299914</ele>
        <time>2009-11-04T14:46:32Z</time>
      </trkpt>
      <trkpt lat="43.10867" lon="3.08604">
        <ele>1.219739</ele>
        <time>2009-11-04T14:46:32Z</time>
      </trkpt>
      <trkpt lat="43.10858" lon="3.08666">
        <ele>0.899992</ele>
        <time>2009-11-04T14:46:32Z</time>
      </trkpt>
      <trkpt lat="43.10808" lon="3.08726">
        <ele>1.400162</ele>
        <time>2009-11-04T14:46:32Z</time>
      </trkpt>
      <trkpt lat="43.10785" lon="3.08775">
        <ele>1.620089</ele>
        <time>2009-11-04T14:46:32Z</time>
      </trkpt>
      <trkpt lat="43.10785" lon="3.08806">
        <ele>1.16984</ele>
        <time>2009-11-04T14:46:32Z</time>
      </trkpt>
      <trkpt lat="43.10846" lon="3.0899">
        <ele>0.349966</ele>
        <time>2009-11-04T14:46:32Z</time>
      </trkpt>
    </trkseg>
  </trk>
  <trk>
    <name><![CDATA[02 L Ile St Martin - TraceGps issued]]></name>
    <extensions>
      <line xmlns="http://www.topografix.com/GPX/gpx_style/0/2">
        <color>00FF00</color>
        <width>4</width>
      </line>
    </extensions>
    <trkseg>
      <trkpt lat="43.10845" lon="3.08993">
        <ele>0.355734</ele>
        <time>2009-01-09T12:58:51Z</time>
      </trkpt>
      <trkpt lat="43.1085" lon="3.08963">
        <ele>0.144254</ele>
        <time>2009-01-09T12:58:51Z</time>
      </trkpt>
      <trkpt lat="43.10781" lon="3.08793">
        <ele>1.463334</ele>
        <time>2009-01-09T12:58:51Z</time>
      </trkpt>
      <trkpt lat="43.10868" lon="3.08669">
        <ele>0.625119</ele>
        <time>2009-01-09T12:58:51Z</time>
      </trkpt>
      <trkpt lat="43.10902" lon="3.08525">
        <ele>0.913413</ele>
        <time>2009-01-09T12:58:51Z</time>
      </trkpt>
      <trkpt lat="43.10903" lon="3.08482">
        <ele>0.784353</ele>
        <time>2009-01-09T12:58:51Z</time>
      </trkpt>
      <trkpt lat="43.10883" lon="3.08457">
        <ele>1.55484</ele>
        <time>2009-01-09T12:58:51Z</time>
      </trkpt>
      <trkpt lat="43.10883" lon="3.0839">
        <ele>0.700375</ele>
        <time>2009-01-09T12:58:51Z</time>
      </trkpt>
      <trkpt lat="43.1085" lon="3.08319">
        <ele>1.187405</ele>
        <time>2009-01-09T12:58:51Z</time>
      </trkpt>
      <trkpt lat="43.10823" lon="3.08297">
        <ele>1.382491</ele>
        <time>2009-01-09T12:58:51Z</time>
      </trkpt>
      <trkpt lat="43.1076" lon="3.08281">
        <ele>2.133277</ele>
        <time>2009-01-09T12:58:51Z</time>
      </trkpt>
      <trkpt lat="43.10731" lon="3.08265">
        <ele>1.64405</ele>
        <time>2009-01-09T12:58:51Z</time>
      </trkpt>
      <trkpt lat="43.10691" lon="3.08286">
        <ele>1.89143</ele>
        <time>2009-01-09T12:58:51Z</time>
      </trkpt>
      <trkpt lat="43.10625" lon="3.08347">
        <ele>2.095718</ele>
        <time>2009-01-09T12:58:51Z</time>
      </trkpt>
      <trkpt lat="43.10557" lon="3.08398">
        <ele>1.075076</ele>
        <time>2009-01-09T12:58:51Z</time>
      </trkpt>
      <trkpt lat="43.10546" lon="3.08429">
        <ele>1.32482</ele>
        <time>2009-01-09T12:58:51Z</time>
      </trkpt>
      <trkpt lat="43.10537" lon="3.08468">
        <ele>1.523253</ele>
        <time>2009-01-09T12:58:51Z</time>
      </trkpt>
      <trkpt lat="43.10469" lon="3.08437">
        <ele>0.260072</ele>
        <time>2009-01-09T12:58:51Z</time>
      </trkpt>
      <trkpt lat="43.10495" lon="3.08336">
        <ele>0.426636</ele>
        <time>2009-01-09T12:58:51Z</time>
      </trkpt>
      <trkpt lat="43.10534" lon="3.0822">
        <ele>0.576645</ele>
        <time>2009-01-09T12:58:51Z</time>
      </trkpt>
      <trkpt lat="43.10566" lon="3.08156">
        <ele>0.743745</ele>
        <time>2009-01-09T12:58:51Z</time>
      </trkpt>
      <trkpt lat="43.106" lon="3.0811">
        <ele>0.6492</ele>
        <time>2009-01-09T12:58:51Z</time>
      </trkpt>
      <trkpt lat="43.10625" lon="3.08065">
        <ele>0.576688</ele>
        <time>2009-01-09T12:58:51Z</time>
      </trkpt>
      <trkpt lat="43.10659" lon="3.08007">
        <ele>0.2466</ele>
        <time>2009-01-09T12:58:51Z</time>
      </trkpt>
      <trkpt lat="43.107" lon="3.07949">
        <ele>0.248298</ele>
        <time>2009-01-09T12:58:51Z</time>
      </trkpt>
      <trkpt lat="43.10761" lon="3.07877">
        <ele>1</ele>
        <time>2009-01-09T12:58:51Z</time>
      </trkpt>
      <trkpt lat="43.10811" lon="3.07785">
        <ele>0.972944</ele>
        <time>2009-01-09T12:58:51Z</time>
      </trkpt>
      <trkpt lat="43.10863" lon="3.07694">
        <ele>1.301899</ele>
        <time>2009-01-09T12:58:51Z</time>
      </trkpt>
      <trkpt lat="43.10911" lon="3.07621">
        <ele>3.296601</ele>
        <time>2009-01-09T12:58:51Z</time>
      </trkpt>
      <trkpt lat="43.10954" lon="3.07542">
        <ele>3.911541</ele>
        <time>2009-01-09T12:58:51Z</time>
      </trkpt>
      <trkpt lat="43.10966" lon="3.07465">
        <ele>3.368113</ele>
        <time>2009-01-09T12:58:51Z</time>
      </trkpt>
      <trkpt lat="43.10989" lon="3.07309">
        <ele>0.866952</ele>
        <time>2009-01-09T12:58:51Z</time>
      </trkpt>
      <trkpt lat="43.11018" lon="3.07116">
        <ele>0.898247</ele>
        <time>2009-01-09T12:58:51Z</time>
      </trkpt>
      <trkpt lat="43.11039" lon="3.0693">
        <ele>1.94673</ele>
        <time>2009-01-09T12:58:51Z</time>
      </trkpt>
      <trkpt lat="43.11058" lon="3.0685">
        <ele>1.529868</ele>
        <time>2009-01-09T12:58:51Z</time>
      </trkpt>
      <trkpt lat="43.11058" lon="3.06798">
        <ele>0.873224</ele>
        <time>2009-01-09T12:58:51Z</time>
      </trkpt>
      <trkpt lat="43.11074" lon="3.06734">
        <ele>0.851725</ele>
        <time>2009-01-09T12:58:51Z</time>
      </trkpt>
      <trkpt lat="43.11073" lon="3.06645">
        <ele>1</ele>
        <time>2009-01-09T12:58:51Z</time>
      </trkpt>
      <trkpt lat="43.11084" lon="3.06578">
        <ele>1</ele>
        <time>2009-01-09T12:58:51Z</time>
      </trkpt>
      <trkpt lat="43.11066" lon="3.06559">
        <ele>1</ele>
        <time>2009-01-09T12:58:51Z</time>
      </trkpt>
      <trkpt lat="43.10987" lon="3.06417">
        <ele>1.545017</ele>
        <time>2009-01-09T12:58:51Z</time>
      </trkpt>
      <trkpt lat="43.10994" lon="3.06322">
        <ele>1</ele>
        <time>2009-01-09T12:58:51Z</time>
      </trkpt>
      <trkpt lat="43.10848" lon="3.06339">
        <ele>2.422819</ele>
        <time>2009-01-09T12:58:51Z</time>
      </trkpt>
      <trkpt lat="43.10836" lon="3.06372">
        <ele>4.011153</ele>
        <time>2009-01-09T12:58:51Z</time>
      </trkpt>
      <trkpt lat="43.10816" lon="3.06406">
        <ele>7.543878</ele>
        <time>2009-01-09T12:58:51Z</time>
      </trkpt>
      <trkpt lat="43.108" lon="3.0643">
        <ele>9.779621</ele>
        <time>2009-01-09T12:58:51Z</time>
      </trkpt>
      <trkpt lat="43.10778" lon="3.0643">
        <ele>9.813315</ele>
        <time>2009-01-09T12:58:51Z</time>
      </trkpt>
      <trkpt lat="43.10764" lon="3.06479">
        <ele>12.39563</ele>
        <time>2009-01-09T12:58:51Z</time>
      </trkpt>
      <trkpt lat="43.10754" lon="3.06528">
        <ele>11.667522</ele>
        <time>2009-01-09T12:58:51Z</time>
      </trkpt>
      <trkpt lat="43.10752" lon="3.06586">
        <ele>13.671921</ele>
        <time>2009-01-09T12:58:51Z</time>
      </trkpt>
      <trkpt lat="43.10736" lon="3.06586">
        <ele>14.97436</ele>
        <time>2009-01-09T12:58:51Z</time>
      </trkpt>
      <trkpt lat="43.10703" lon="3.06527">
        <ele>20.771101</ele>
        <time>2009-01-09T12:58:51Z</time>
      </trkpt>
      <trkpt lat="43.10647" lon="3.06489">
        <ele>28.077854</ele>
        <time>2009-01-09T12:58:51Z</time>
      </trkpt>
      <trkpt lat="43.10635" lon="3.06557">
        <ele>28.245155</ele>
        <time>2009-01-09T12:58:51Z</time>
      </trkpt>
      <trkpt lat="43.10619" lon="3.06578">
        <ele>28.610518</ele>
        <time>2009-01-09T12:58:51Z</time>
      </trkpt>
      <trkpt lat="43.10588" lon="3.0659">
        <ele>28.995665</ele>
        <time>2009-01-09T12:58:51Z</time>
      </trkpt>
      <trkpt lat="43.10561" lon="3.06608">
        <ele>28.869011</ele>
        <time>2009-01-09T12:58:51Z</time>
      </trkpt>
      <trkpt lat="43.10529" lon="3.06614">
        <ele>29.848074</ele>
        <time>2009-01-09T12:58:51Z</time>
      </trkpt>
      <trkpt lat="43.1046" lon="3.06585">
        <ele>39.018509</ele>
        <time>2009-01-09T12:58:51Z</time>
      </trkpt>
      <trkpt lat="43.10426" lon="3.06606">
        <ele>39.708885</ele>
        <time>2009-01-09T12:58:51Z</time>
      </trkpt>
      <trkpt lat="43.10399" lon="3.06649">
        <ele>39.634304</ele>
        <time>2009-01-09T12:58:51Z</time>
      </trkpt>
      <trkpt lat="43.10363" lon="3.06667">
        <ele>38.916885</ele>
        <time>2009-01-09T12:58:51Z</time>
      </trkpt>
      <trkpt lat="43.10344" lon="3.06694">
        <ele>38.665695</ele>
        <time>2009-01-09T12:58:51Z</time>
      </trkpt>
      <trkpt lat="43.10348" lon="3.06789">
        <ele>37.318371</ele>
        <time>2009-01-09T12:58:51Z</time>
      </trkpt>
      <trkpt lat="43.10319" lon="3.0678">
        <ele>35.947769</ele>
        <time>2009-01-09T12:58:51Z</time>
      </trkpt>
      <trkpt lat="43.10288" lon="3.06752">
        <ele>36.876553</ele>
        <time>2009-01-09T12:58:51Z</time>
      </trkpt>
      <trkpt lat="43.10252" lon="3.06736">
        <ele>37.54221</ele>
        <time>2009-01-09T12:58:51Z</time>
      </trkpt>
      <trkpt lat="43.10209" lon="3.06741">
        <ele>33.635178</ele>
        <time>2009-01-09T12:58:51Z</time>
      </trkpt>
      <trkpt lat="43.10171" lon="3.06726">
        <ele>32.455406</ele>
        <time>2009-01-09T12:58:51Z</time>
      </trkpt>
      <trkpt lat="43.10138" lon="3.06698">
        <ele>32.470184</ele>
        <time>2009-01-09T12:58:51Z</time>
      </trkpt>
      <trkpt lat="43.10106" lon="3.06685">
        <ele>32.658657</ele>
        <time>2009-01-09T12:58:51Z</time>
      </trkpt>
      <trkpt lat="43.10082" lon="3.06672">
        <ele>33.682781</ele>
        <time>2009-01-09T12:58:51Z</time>
      </trkpt>
      <trkpt lat="43.10051" lon="3.06638">
        <ele>38.430725</ele>
        <time>2009-01-09T12:58:51Z</time>
      </trkpt>
      <trkpt lat="43.10015" lon="3.06607">
        <ele>42.987793</ele>
        <time>2009-01-09T12:58:51Z</time>
      </trkpt>
      <trkpt lat="43.09993" lon="3.06592">
        <ele>44.241386</ele>
        <time>2009-01-09T12:58:51Z</time>
      </trkpt>
      <trkpt lat="43.09968" lon="3.06582">
        <ele>44.99519</ele>
        <time>2009-01-09T12:58:51Z</time>
      </trkpt>
      <trkpt lat="43.09932" lon="3.06591">
        <ele>44.093346</ele>
        <time>2009-01-09T12:58:51Z</time>
      </trkpt>
      <trkpt lat="43.0988" lon="3.06587">
        <ele>39.076622</ele>
        <time>2009-01-09T12:58:51Z</time>
      </trkpt>
      <trkpt lat="43.09833" lon="3.0658">
        <ele>37.048637</ele>
        <time>2009-01-09T12:58:51Z</time>
      </trkpt>
      <trkpt lat="43.09797" lon="3.06546">
        <ele>41.395756</ele>
        <time>2009-01-09T12:58:51Z</time>
      </trkpt>
      <trkpt lat="43.09773" lon="3.06512">
        <ele>47.817162</ele>
        <time>2009-01-09T12:58:51Z</time>
      </trkpt>
      <trkpt lat="43.09758" lon="3.06451">
        <ele>54.246696</ele>
        <time>2009-01-09T12:58:51Z</time>
      </trkpt>
      <trkpt lat="43.09731" lon="3.06392">
        <ele>59.043182</ele>
        <time>2009-01-09T12:58:51Z</time>
      </trkpt>
      <trkpt lat="43.09704" lon="3.06343">
        <ele>59.524033</ele>
        <time>2009-01-09T12:58:51Z</time>
      </trkpt>
      <trkpt lat="43.09684" lon="3.06382">
        <ele>56.84787</ele>
        <time>2009-01-09T12:58:51Z</time>
      </trkpt>
      <trkpt lat="43.09652" lon="3.06452">
        <ele>52.311893</ele>
        <time>2009-01-09T12:58:51Z</time>
      </trkpt>
      <trkpt lat="43.09643" lon="3.06501">
        <ele>47.50135</ele>
        <time>2009-01-09T12:58:51Z</time>
      </trkpt>
      <trkpt lat="43.09622" lon="3.06584">
        <ele>35.746273</ele>
        <time>2009-01-09T12:58:51Z</time>
      </trkpt>
      <trkpt lat="43.09614" lon="3.0678">
        <ele>28.723295</ele>
        <time>2009-01-09T12:58:51Z</time>
      </trkpt>
      <trkpt lat="43.09553" lon="3.06782">
        <ele>26.150164</ele>
        <time>2009-01-09T12:58:51Z</time>
      </trkpt>
      <trkpt lat="43.09495" lon="3.06766">
        <ele>24.745386</ele>
        <time>2009-01-09T12:58:51Z</time>
      </trkpt>
      <trkpt lat="43.09441" lon="3.06781">
        <ele>24.776752</ele>
        <time>2009-01-09T12:58:51Z</time>
      </trkpt>
      <trkpt lat="43.09405" lon="3.0678">
        <ele>23.976498</ele>
        <time>2009-01-09T12:58:51Z</time>
      </trkpt>
      <trkpt lat="43.09362" lon="3.06795">
        <ele>22.876534</ele>
        <time>2009-01-09T12:58:51Z</time>
      </trkpt>
      <trkpt lat="43.09344" lon="3.06783">
        <ele>21.728325</ele>
        <time>2009-01-09T12:58:51Z</time>
      </trkpt>
      <trkpt lat="43.09338" lon="3.06749">
        <ele>21.024878</ele>
        <time>2009-01-09T12:58:51Z</time>
      </trkpt>
      <trkpt lat="43.09291" lon="3.06727">
        <ele>19.624994</ele>
        <time>2009-01-09T12:58:51Z</time>
      </trkpt>
      <trkpt lat="43.09262" lon="3.06711">
        <ele>19.29673</ele>
        <time>2009-01-09T12:58:51Z</time>
      </trkpt>
      <trkpt lat="43.09228" lon="3.06714">
        <ele>19.196653</ele>
        <time>2009-01-09T12:58:51Z</time>
      </trkpt>
      <trkpt lat="43.09228" lon="3.06665">
        <ele>20.796589</ele>
        <time>2009-01-09T12:58:51Z</time>
      </trkpt>
      <trkpt lat="43.09188" lon="3.06633">
        <ele>20.6418</ele>
        <time>2009-01-09T12:58:51Z</time>
      </trkpt>
      <trkpt lat="43.09137" lon="3.06602">
        <ele>19.935942</ele>
        <time>2009-01-09T12:58:51Z</time>
      </trkpt>
      <trkpt lat="43.09029" lon="3.06579">
        <ele>16.425772</ele>
        <time>2009-01-09T12:58:51Z</time>
      </trkpt>
      <trkpt lat="43.0894" lon="3.06502">
        <ele>13.016968</ele>
        <time>2009-01-09T12:58:51Z</time>
      </trkpt>
      <trkpt lat="43.0881" lon="3.06469">
        <ele>11.993235</ele>
        <time>2009-01-09T12:58:51Z</time>
      </trkpt>
      <trkpt lat="43.08664" lon="3.06425">
        <ele>14.80992</ele>
        <time>2009-01-09T12:58:51Z</time>
      </trkpt>
      <trkpt lat="43.08646" lon="3.06443">
        <ele>11.660814</ele>
        <time>2009-01-09T12:58:51Z</time>
      </trkpt>
      <trkpt lat="43.08641" lon="3.06513">
        <ele>6.768361</ele>
        <time>2009-01-09T12:58:51Z</time>
      </trkpt>
      <trkpt lat="43.08632" lon="3.06559">
        <ele>5.321594</ele>
        <time>2009-01-09T12:58:51Z</time>
      </trkpt>
      <trkpt lat="43.08638" lon="3.06593">
        <ele>4.973307</ele>
        <time>2009-01-09T12:58:51Z</time>
      </trkpt>
      <trkpt lat="43.08658" lon="3.06599">
        <ele>5.064167</ele>
        <time>2009-01-09T12:58:51Z</time>
      </trkpt>
      <trkpt lat="43.08653" lon="3.06685">
        <ele>6.248458</ele>
        <time>2009-01-09T12:58:51Z</time>
      </trkpt>
      <trkpt lat="43.08648" lon="3.0674">
        <ele>8.253969</ele>
        <time>2009-01-09T12:58:51Z</time>
      </trkpt>
      <trkpt lat="43.0868" lon="3.06768">
        <ele>8.872561</ele>
        <time>2009-01-09T12:58:51Z</time>
      </trkpt>
      <trkpt lat="43.08725" lon="3.06769">
        <ele>8.89413</ele>
        <time>2009-01-09T12:58:51Z</time>
      </trkpt>
      <trkpt lat="43.08754" lon="3.06757">
        <ele>11.457026</ele>
        <time>2009-01-09T12:58:51Z</time>
      </trkpt>
      <trkpt lat="43.08769" lon="3.06763">
        <ele>13.608822</ele>
        <time>2009-01-09T12:58:51Z</time>
      </trkpt>
      <trkpt lat="43.08737" lon="3.06845">
        <ele>17.493431</ele>
        <time>2009-01-09T12:58:51Z</time>
      </trkpt>
      <trkpt lat="43.08719" lon="3.06906">
        <ele>22.463968</ele>
        <time>2009-01-09T12:58:51Z</time>
      </trkpt>
      <trkpt lat="43.0873" lon="3.06943">
        <ele>24.144388</ele>
        <time>2009-01-09T12:58:51Z</time>
      </trkpt>
      <trkpt lat="43.08739" lon="3.06989">
        <ele>25.365046</ele>
        <time>2009-01-09T12:58:51Z</time>
      </trkpt>
      <trkpt lat="43.08736" lon="3.07035">
        <ele>23.607151</ele>
        <time>2009-01-09T12:58:51Z</time>
      </trkpt>
      <trkpt lat="43.08714" lon="3.07053">
        <ele>20.380848</ele>
        <time>2009-01-09T12:58:51Z</time>
      </trkpt>
      <trkpt lat="43.08727" lon="3.07103">
        <ele>17.928112</ele>
        <time>2009-01-09T12:58:51Z</time>
      </trkpt>
      <trkpt lat="43.08733" lon="3.07161">
        <ele>12.862366</ele>
        <time>2009-01-09T12:58:51Z</time>
      </trkpt>
      <trkpt lat="43.08717" lon="3.07225">
        <ele>7.836071</ele>
        <time>2009-01-09T12:58:51Z</time>
      </trkpt>
      <trkpt lat="43.08748" lon="3.07222">
        <ele>7.968402</ele>
        <time>2009-01-09T12:58:51Z</time>
      </trkpt>
      <trkpt lat="43.08762" lon="3.07244">
        <ele>5.918506</ele>
        <time>2009-01-09T12:58:51Z</time>
      </trkpt>
      <trkpt lat="43.08782" lon="3.07266">
        <ele>3.723282</ele>
        <time>2009-01-09T12:58:51Z</time>
      </trkpt>
      <trkpt lat="43.08795" lon="3.07303">
        <ele>2.223457</ele>
        <time>2009-01-09T12:58:51Z</time>
      </trkpt>
      <trkpt lat="43.08822" lon="3.07294">
        <ele>2.080008</ele>
        <time>2009-01-09T12:58:51Z</time>
      </trkpt>
      <trkpt lat="43.08858" lon="3.07279">
        <ele>2.015851</ele>
        <time>2009-01-09T12:58:51Z</time>
      </trkpt>
      <trkpt lat="43.08896" lon="3.07292">
        <ele>2</ele>
        <time>2009-01-09T12:58:51Z</time>
      </trkpt>
      <trkpt lat="43.08927" lon="3.07323">
        <ele>2</ele>
        <time>2009-01-09T12:58:51Z</time>
      </trkpt>
      <trkpt lat="43.08959" lon="3.0736">
        <ele>2.111233</ele>
        <time>2009-01-09T12:58:51Z</time>
      </trkpt>
      <trkpt lat="43.08976" lon="3.07394">
        <ele>2</ele>
        <time>2009-01-09T12:58:51Z</time>
      </trkpt>
      <trkpt lat="43.08987" lon="3.07422">
        <ele>2</ele>
        <time>2009-01-09T12:58:51Z</time>
      </trkpt>
      <trkpt lat="43.09003" lon="3.07449">
        <ele>2.223302</ele>
        <time>2009-01-09T12:58:51Z</time>
      </trkpt>
      <trkpt lat="43.09009" lon="3.07477">
        <ele>2.373345</ele>
        <time>2009-01-09T12:58:51Z</time>
      </trkpt>
      <trkpt lat="43.09016" lon="3.07517">
        <ele>2.575009</ele>
        <time>2009-01-09T12:58:51Z</time>
      </trkpt>
      <trkpt lat="43.09013" lon="3.07584">
        <ele>3.688532</ele>
        <time>2009-01-09T12:58:51Z</time>
      </trkpt>
      <trkpt lat="43.08993" lon="3.07639">
        <ele>3.094548</ele>
        <time>2009-01-09T12:58:51Z</time>
      </trkpt>
      <trkpt lat="43.0895" lon="3.07657">
        <ele>2.07331</ele>
        <time>2009-01-09T12:58:51Z</time>
      </trkpt>
      <trkpt lat="43.08927" lon="3.07703">
        <ele>1.573222</ele>
        <time>2009-01-09T12:58:51Z</time>
      </trkpt>
      <trkpt lat="43.08907" lon="3.07742">
        <ele>1.123399</ele>
        <time>2009-01-09T12:58:51Z</time>
      </trkpt>
      <trkpt lat="43.08879" lon="3.07794">
        <ele>2.518193</ele>
        <time>2009-01-09T12:58:51Z</time>
      </trkpt>
      <trkpt lat="43.0885" lon="3.07824">
        <ele>2.848433</ele>
        <time>2009-01-09T12:58:51Z</time>
      </trkpt>
      <trkpt lat="43.08822" lon="3.07882">
        <ele>2.508939</ele>
        <time>2009-01-09T12:58:51Z</time>
      </trkpt>
      <trkpt lat="43.08843" lon="3.07901">
        <ele>3.349329</ele>
        <time>2009-01-09T12:58:51Z</time>
      </trkpt>
      <trkpt lat="43.08862" lon="3.07984">
        <ele>2.943149</ele>
        <time>2009-01-09T12:58:51Z</time>
      </trkpt>
      <trkpt lat="43.08891" lon="3.08">
        <ele>3.743383</ele>
        <time>2009-01-09T12:58:51Z</time>
      </trkpt>
      <trkpt lat="43.08911" lon="3.08061">
        <ele>2.669797</ele>
        <time>2009-01-09T12:58:51Z</time>
      </trkpt>
      <trkpt lat="43.08969" lon="3.08099">
        <ele>3.410637</ele>
        <time>2009-01-09T12:58:51Z</time>
      </trkpt>
      <trkpt lat="43.09007" lon="3.08203">
        <ele>0.748317</ele>
        <time>2009-01-09T12:58:51Z</time>
      </trkpt>
      <trkpt lat="43.09056" lon="3.08195">
        <ele>1.421596</ele>
        <time>2009-01-09T12:58:51Z</time>
      </trkpt>
      <trkpt lat="43.09108" lon="3.08195">
        <ele>2.503177</ele>
        <time>2009-01-09T12:58:51Z</time>
      </trkpt>
      <trkpt lat="43.09162" lon="3.08187">
        <ele>3.13869</ele>
        <time>2009-01-09T12:58:51Z</time>
      </trkpt>
      <trkpt lat="43.09207" lon="3.08151">
        <ele>5.511337</ele>
        <time>2009-01-09T12:58:51Z</time>
      </trkpt>
      <trkpt lat="43.09243" lon="3.08108">
        <ele>8.393611</ele>
        <time>2009-01-09T12:58:51Z</time>
      </trkpt>
      <trkpt lat="43.09277" lon="3.08026">
        <ele>11.381927</ele>
        <time>2009-01-09T12:58:51Z</time>
      </trkpt>
      <trkpt lat="43.09294" lon="3.07971">
        <ele>12.80206</ele>
        <time>2009-01-09T12:58:51Z</time>
      </trkpt>
      <trkpt lat="43.09303" lon="3.07922">
        <ele>16.050558</ele>
        <time>2009-01-09T12:58:51Z</time>
      </trkpt>
      <trkpt lat="43.0933" lon="3.07916">
        <ele>15.346803</ele>
        <time>2009-01-09T12:58:51Z</time>
      </trkpt>
      <trkpt lat="43.09356" lon="3.07963">
        <ele>12.721104</ele>
        <time>2009-01-09T12:58:51Z</time>
      </trkpt>
      <trkpt lat="43.09388" lon="3.08012">
        <ele>11.598231</ele>
        <time>2009-01-09T12:58:51Z</time>
      </trkpt>
      <trkpt lat="43.0941" lon="3.08068">
        <ele>9.518142</ele>
        <time>2009-01-09T12:58:51Z</time>
      </trkpt>
      <trkpt lat="43.0947" lon="3.08105">
        <ele>8.020828</ele>
        <time>2009-01-09T12:58:51Z</time>
      </trkpt>
      <trkpt lat="43.09528" lon="3.08133">
        <ele>7</ele>
        <time>2009-01-09T12:58:51Z</time>
      </trkpt>
      <trkpt lat="43.09575" lon="3.08162">
        <ele>6.89355</ele>
        <time>2009-01-09T12:58:51Z</time>
      </trkpt>
      <trkpt lat="43.096" lon="3.08214">
        <ele>5.338191</ele>
        <time>2009-01-09T12:58:51Z</time>
      </trkpt>
      <trkpt lat="43.09622" lon="3.08251">
        <ele>3.974901</ele>
        <time>2009-01-09T12:58:51Z</time>
      </trkpt>
      <trkpt lat="43.09678" lon="3.08261">
        <ele>2.542609</ele>
        <time>2009-01-09T12:58:51Z</time>
      </trkpt>
      <trkpt lat="43.09705" lon="3.08301">
        <ele>1.30631</ele>
        <time>2009-01-09T12:58:51Z</time>
      </trkpt>
      <trkpt lat="43.09711" lon="3.08347">
        <ele>1</ele>
        <time>2009-01-09T12:58:51Z</time>
      </trkpt>
      <trkpt lat="43.09701" lon="3.08442">
        <ele>1</ele>
        <time>2009-01-09T12:58:51Z</time>
      </trkpt>
      <trkpt lat="43.09789" lon="3.08452">
        <ele>0.873239</ele>
        <time>2009-01-09T12:58:51Z</time>
      </trkpt>
      <trkpt lat="43.09836" lon="3.08481">
        <ele>1</ele>
        <time>2009-01-09T12:58:51Z</time>
      </trkpt>
      <trkpt lat="43.0991" lon="3.08518">
        <ele>1</ele>
        <time>2009-01-09T12:58:51Z</time>
      </trkpt>
      <trkpt lat="43.09979" lon="3.08541">
        <ele>1.448392</ele>
        <time>2009-01-09T12:58:51Z</time>
      </trkpt>
      <trkpt lat="43.10049" lon="3.08523">
        <ele>1.748308</ele>
        <time>2009-01-09T12:58:51Z</time>
      </trkpt>
      <trkpt lat="43.1011" lon="3.08503">
        <ele>2.096061</ele>
        <time>2009-01-09T12:58:51Z</time>
      </trkpt>
      <trkpt lat="43.10186" lon="3.08473">
        <ele>2.432895</ele>
        <time>2009-01-09T12:58:51Z</time>
      </trkpt>
      <trkpt lat="43.10249" lon="3.08468">
        <ele>2.661134</ele>
        <time>2009-01-09T12:58:51Z</time>
      </trkpt>
      <trkpt lat="43.1033" lon="3.08444">
        <ele>1.637192</ele>
        <time>2009-01-09T12:58:51Z</time>
      </trkpt>
      <trkpt lat="43.10371" lon="3.08386">
        <ele>2.828757</ele>
        <time>2009-01-09T12:58:51Z</time>
      </trkpt>
      <trkpt lat="43.10443" lon="3.08427">
        <ele>0.745352</ele>
        <time>2009-01-09T12:58:51Z</time>
      </trkpt>
      <trkpt lat="43.10469" lon="3.08437">
        <ele>0.260072</ele>
        <time>2009-01-09T12:58:51Z</time>
      </trkpt>
    </trkseg>
  </trk>
  <trk>
    <name><![CDATA[04 Tintaine - TraceGps issued]]></name>
    <extensions>
      <line xmlns="http://www.topografix.com/GPX/gpx_style/0/2">
        <color>FF0000</color>
        <width>4</width>
      </line>
    </extensions>
    <trkseg>
      <trkpt lat="43.1084" lon="3.08992">
        <ele>0.262527</ele>
        <time>2009-11-04T14:46:56Z</time>
      </trkpt>
      <trkpt lat="43.10966" lon="3.09033">
        <ele>0.060733</ele>
        <time>2009-11-04T14:46:56Z</time>
      </trkpt>
      <trkpt lat="43.11433" lon="3.09219">
        <ele>1.180039</ele>
        <time>2009-11-04T14:46:56Z</time>
      </trkpt>
      <trkpt lat="43.11455" lon="3.0931">
        <ele>2</ele>
        <time>2009-11-04T14:46:56Z</time>
      </trkpt>
      <trkpt lat="43.11564" lon="3.0946">
        <ele>2.550109</ele>
        <time>2009-11-04T14:46:56Z</time>
      </trkpt>
      <trkpt lat="43.11548" lon="3.0957">
        <ele>2.199917</ele>
        <time>2009-11-04T14:46:56Z</time>
      </trkpt>
      <trkpt lat="43.11541" lon="3.09668">
        <ele>2.061765</ele>
        <time>2009-11-04T14:46:56Z</time>
      </trkpt>
      <trkpt lat="43.11546" lon="3.0983">
        <ele>1.949991</ele>
        <time>2009-11-04T14:46:56Z</time>
      </trkpt>
      <trkpt lat="43.11556" lon="3.09935">
        <ele>1.450046</ele>
        <time>2009-11-04T14:46:56Z</time>
      </trkpt>
      <trkpt lat="43.11568" lon="3.10027">
        <ele>1.855363</ele>
        <time>2009-11-04T14:46:56Z</time>
      </trkpt>
      <trkpt lat="43.11602" lon="3.10118">
        <ele>2.486753</ele>
        <time>2009-11-04T14:46:56Z</time>
      </trkpt>
      <trkpt lat="43.11621" lon="3.10178">
        <ele>2.936583</ele>
        <time>2009-11-04T14:46:56Z</time>
      </trkpt>
      <trkpt lat="43.11642" lon="3.10333">
        <ele>2</ele>
        <time>2009-11-04T14:46:56Z</time>
      </trkpt>
      <trkpt lat="43.11693" lon="3.10346">
        <ele>2.210077</ele>
        <time>2009-11-04T14:46:56Z</time>
      </trkpt>
      <trkpt lat="43.11791" lon="3.10412">
        <ele>2.246979</ele>
        <time>2009-11-04T14:46:56Z</time>
      </trkpt>
      <trkpt lat="43.11832" lon="3.10405">
        <ele>2.813639</ele>
        <time>2009-11-04T14:46:56Z</time>
      </trkpt>
      <trkpt lat="43.11866" lon="3.10376">
        <ele>3</ele>
        <time>2009-11-04T14:46:56Z</time>
      </trkpt>
      <trkpt lat="43.11921" lon="3.10317">
        <ele>3.963352</ele>
        <time>2009-11-04T14:46:56Z</time>
      </trkpt>
      <trkpt lat="43.11959" lon="3.10259">
        <ele>4.391961</ele>
        <time>2009-11-04T14:46:56Z</time>
      </trkpt>
      <trkpt lat="43.11997" lon="3.10191">
        <ele>5</ele>
        <time>2009-11-04T14:46:56Z</time>
      </trkpt>
      <trkpt lat="43.12032" lon="3.10127">
        <ele>6.024216</ele>
        <time>2009-11-04T14:46:56Z</time>
      </trkpt>
      <trkpt lat="43.1205" lon="3.10085">
        <ele>6.699178</ele>
        <time>2009-11-04T14:46:56Z</time>
      </trkpt>
      <trkpt lat="43.12085" lon="3.1015">
        <ele>6.169834</ele>
        <time>2009-11-04T14:46:56Z</time>
      </trkpt>
      <trkpt lat="43.12035" lon="3.10222">
        <ele>5.076666</ele>
        <time>2009-11-04T14:46:56Z</time>
      </trkpt>
      <trkpt lat="43.11963" lon="3.10356">
        <ele>4</ele>
        <time>2009-11-04T14:46:56Z</time>
      </trkpt>
      <trkpt lat="43.11911" lon="3.10442">
        <ele>3.436735</ele>
        <time>2009-11-04T14:46:56Z</time>
      </trkpt>
      <trkpt lat="43.11907" lon="3.10478">
        <ele>3.336604</ele>
        <time>2009-11-04T14:46:56Z</time>
      </trkpt>
      <trkpt lat="43.11957" lon="3.10492">
        <ele>4</ele>
        <time>2009-11-04T14:46:56Z</time>
      </trkpt>
      <trkpt lat="43.12037" lon="3.10554">
        <ele>4.012496</ele>
        <time>2009-11-04T14:46:56Z</time>
      </trkpt>
      <trkpt lat="43.12119" lon="3.10569">
        <ele>4</ele>
        <time>2009-11-04T14:46:56Z</time>
      </trkpt>
      <trkpt lat="43.1218" lon="3.10602">
        <ele>4</ele>
        <time>2009-11-04T14:46:56Z</time>
      </trkpt>
      <trkpt lat="43.12236" lon="3.10543">
        <ele>3.81171</ele>
        <time>2009-11-04T14:46:56Z</time>
      </trkpt>
      <trkpt lat="43.12318" lon="3.10515">
        <ele>4.49996</ele>
        <time>2009-11-04T14:46:56Z</time>
      </trkpt>
      <trkpt lat="43.12379" lon="3.10461">
        <ele>7.550161</ele>
        <time>2009-11-04T14:46:56Z</time>
      </trkpt>
      <trkpt lat="43.12424" lon="3.10399">
        <ele>10.672723</ele>
        <time>2009-11-04T14:46:56Z</time>
      </trkpt>
      <trkpt lat="43.12478" lon="3.10462">
        <ele>17.497572</ele>
        <time>2009-11-04T14:46:56Z</time>
      </trkpt>
      <trkpt lat="43.12514" lon="3.10426">
        <ele>20.346735</ele>
        <time>2009-11-04T14:46:56Z</time>
      </trkpt>
      <trkpt lat="43.12561" lon="3.10433">
        <ele>18.840014</ele>
        <time>2009-11-04T14:46:56Z</time>
      </trkpt>
      <trkpt lat="43.12569" lon="3.10509">
        <ele>13.210046</ele>
        <time>2009-11-04T14:46:56Z</time>
      </trkpt>
      <trkpt lat="43.12621" lon="3.10587">
        <ele>13.524524</ele>
        <time>2009-11-04T14:46:56Z</time>
      </trkpt>
      <trkpt lat="43.12633" lon="3.10651">
        <ele>15.604153</ele>
        <time>2009-11-04T14:46:56Z</time>
      </trkpt>
      <trkpt lat="43.12669" lon="3.10719">
        <ele>17.77527</ele>
        <time>2009-11-04T14:46:56Z</time>
      </trkpt>
      <trkpt lat="43.12684" lon="3.10801">
        <ele>16.159962</ele>
        <time>2009-11-04T14:46:56Z</time>
      </trkpt>
      <trkpt lat="43.12659" lon="3.1086">
        <ele>14.639769</ele>
        <time>2009-11-04T14:46:56Z</time>
      </trkpt>
      <trkpt lat="43.12652" lon="3.10952">
        <ele>12.699649</ele>
        <time>2009-11-04T14:46:56Z</time>
      </trkpt>
      <trkpt lat="43.12674" lon="3.11038">
        <ele>17.898888</ele>
        <time>2009-11-04T14:46:56Z</time>
      </trkpt>
      <trkpt lat="43.127" lon="3.11097">
        <ele>17.803123</ele>
        <time>2009-11-04T14:46:56Z</time>
      </trkpt>
      <trkpt lat="43.12738" lon="3.11165">
        <ele>12.237262</ele>
        <time>2009-11-04T14:46:56Z</time>
      </trkpt>
      <trkpt lat="43.12735" lon="3.11257">
        <ele>11.200027</ele>
        <time>2009-11-04T14:46:56Z</time>
      </trkpt>
      <trkpt lat="43.12742" lon="3.11324">
        <ele>11.815439</ele>
        <time>2009-11-04T14:46:56Z</time>
      </trkpt>
      <trkpt lat="43.12707" lon="3.11373">
        <ele>10.410553</ele>
        <time>2009-11-04T14:46:56Z</time>
      </trkpt>
      <trkpt lat="43.12577" lon="3.11359">
        <ele>8.969971</ele>
        <time>2009-11-04T14:46:56Z</time>
      </trkpt>
      <trkpt lat="43.12523" lon="3.1139">
        <ele>7.524227</ele>
        <time>2009-11-04T14:46:56Z</time>
      </trkpt>
      <trkpt lat="43.12516" lon="3.11444">
        <ele>7.15022</ele>
        <time>2009-11-04T14:46:56Z</time>
      </trkpt>
      <trkpt lat="43.12582" lon="3.1165">
        <ele>8.950294</ele>
        <time>2009-11-04T14:46:56Z</time>
      </trkpt>
      <trkpt lat="43.12635" lon="3.11725">
        <ele>10.674823</ele>
        <time>2009-11-04T14:46:56Z</time>
      </trkpt>
      <trkpt lat="43.12688" lon="3.11802">
        <ele>9.399973</ele>
        <time>2009-11-04T14:46:56Z</time>
      </trkpt>
      <trkpt lat="43.12737" lon="3.11804">
        <ele>11.309242</ele>
        <time>2009-11-04T14:46:56Z</time>
      </trkpt>
      <trkpt lat="43.12856" lon="3.11556">
        <ele>15.935028</ele>
        <time>2009-11-04T14:46:56Z</time>
      </trkpt>
      <trkpt lat="43.1292" lon="3.11701">
        <ele>13.955018</ele>
        <time>2009-11-04T14:46:56Z</time>
      </trkpt>
      <trkpt lat="43.12946" lon="3.1176">
        <ele>12.912492</ele>
        <time>2009-11-04T14:46:56Z</time>
      </trkpt>
      <trkpt lat="43.13003" lon="3.11806">
        <ele>10.092708</ele>
        <time>2009-11-04T14:46:56Z</time>
      </trkpt>
      <trkpt lat="43.13" lon="3.11904">
        <ele>9.199967</ele>
        <time>2009-11-04T14:46:56Z</time>
      </trkpt>
      <trkpt lat="43.13048" lon="3.11907">
        <ele>9.224216</ele>
        <time>2009-11-04T14:46:56Z</time>
      </trkpt>
      <trkpt lat="43.13105" lon="3.11933">
        <ele>15.049249</ele>
        <time>2009-11-04T14:46:56Z</time>
      </trkpt>
      <trkpt lat="43.13115" lon="3.12065">
        <ele>10.924612</ele>
        <time>2009-11-04T14:46:56Z</time>
      </trkpt>
      <trkpt lat="43.13117" lon="3.12151">
        <ele>5.850058</ele>
        <time>2009-11-04T14:46:56Z</time>
      </trkpt>
      <trkpt lat="43.1311" lon="3.12219">
        <ele>3.622211</ele>
        <time>2009-11-04T14:46:56Z</time>
      </trkpt>
      <trkpt lat="43.13062" lon="3.12298">
        <ele>5.95242</ele>
        <time>2009-11-04T14:46:56Z</time>
      </trkpt>
      <trkpt lat="43.1306" lon="3.12319">
        <ele>6.215041</ele>
        <time>2009-11-04T14:46:56Z</time>
      </trkpt>
      <trkpt lat="43.13106" lon="3.12378">
        <ele>10.856173</ele>
        <time>2009-11-04T14:46:56Z</time>
      </trkpt>
      <trkpt lat="43.13187" lon="3.12465">
        <ele>7.182784</ele>
        <time>2009-11-04T14:46:56Z</time>
      </trkpt>
      <trkpt lat="43.13221" lon="3.12505">
        <ele>6.728421</ele>
        <time>2009-11-04T14:46:56Z</time>
      </trkpt>
      <trkpt lat="43.13276" lon="3.12546">
        <ele>6.258873</ele>
        <time>2009-11-04T14:46:56Z</time>
      </trkpt>
      <trkpt lat="43.13313" lon="3.12448">
        <ele>6.162883</ele>
        <time>2009-11-04T14:46:56Z</time>
      </trkpt>
      <trkpt lat="43.13311" lon="3.12387">
        <ele>12.647593</ele>
        <time>2009-11-04T14:46:56Z</time>
      </trkpt>
      <trkpt lat="43.13301" lon="3.12365">
        <ele>16.573271</ele>
        <time>2009-11-04T14:46:56Z</time>
      </trkpt>
      <trkpt lat="43.13281" lon="3.12388">
        <ele>17.183626</ele>
        <time>2009-11-04T14:46:56Z</time>
      </trkpt>
      <trkpt lat="43.13265" lon="3.12394">
        <ele>18.64505</ele>
        <time>2009-11-04T14:46:56Z</time>
      </trkpt>
      <trkpt lat="43.13268" lon="3.12336">
        <ele>21.515017</ele>
        <time>2009-11-04T14:46:56Z</time>
      </trkpt>
      <trkpt lat="43.13265" lon="3.12293">
        <ele>25.282257</ele>
        <time>2009-11-04T14:46:56Z</time>
      </trkpt>
      <trkpt lat="43.13323" lon="3.12212">
        <ele>26.810226</ele>
        <time>2009-11-04T14:46:56Z</time>
      </trkpt>
      <trkpt lat="43.13366" lon="3.12184">
        <ele>26.754519</ele>
        <time>2009-11-04T14:46:56Z</time>
      </trkpt>
      <trkpt lat="43.13405" lon="3.12143">
        <ele>28.665428</ele>
        <time>2009-11-04T14:46:56Z</time>
      </trkpt>
      <trkpt lat="43.13406" lon="3.12082">
        <ele>30.718857</ele>
        <time>2009-11-04T14:46:56Z</time>
      </trkpt>
      <trkpt lat="43.13436" lon="3.1207">
        <ele>33.290195</ele>
        <time>2009-11-04T14:46:56Z</time>
      </trkpt>
      <trkpt lat="43.13472" lon="3.12015">
        <ele>38.942757</ele>
        <time>2009-11-04T14:46:56Z</time>
      </trkpt>
      <trkpt lat="43.13502" lon="3.11963">
        <ele>42.97892</ele>
        <time>2009-11-04T14:46:56Z</time>
      </trkpt>
      <trkpt lat="43.13527" lon="3.11896">
        <ele>45.135948</ele>
        <time>2009-11-04T14:46:56Z</time>
      </trkpt>
      <trkpt lat="43.136" lon="3.11848">
        <ele>48.87529</ele>
        <time>2009-11-04T14:46:56Z</time>
      </trkpt>
      <trkpt lat="43.1362" lon="3.11786">
        <ele>51.611294</ele>
        <time>2009-11-04T14:46:56Z</time>
      </trkpt>
      <trkpt lat="43.13628" lon="3.11717">
        <ele>57.012043</ele>
        <time>2009-11-04T14:46:56Z</time>
      </trkpt>
      <trkpt lat="43.13647" lon="3.11688">
        <ele>58.582405</ele>
        <time>2009-11-04T14:46:56Z</time>
      </trkpt>
      <trkpt lat="43.13696" lon="3.11653">
        <ele>59.035694</ele>
        <time>2009-11-04T14:46:56Z</time>
      </trkpt>
      <trkpt lat="43.137" lon="3.11626">
        <ele>63.023056</ele>
        <time>2009-11-04T14:46:56Z</time>
      </trkpt>
      <trkpt lat="43.13602" lon="3.11615">
        <ele>62.624821</ele>
        <time>2009-11-04T14:46:56Z</time>
      </trkpt>
      <trkpt lat="43.13593" lon="3.11586">
        <ele>61.142452</ele>
        <time>2009-11-04T14:46:56Z</time>
      </trkpt>
      <trkpt lat="43.13613" lon="3.11552">
        <ele>61.500088</ele>
        <time>2009-11-04T14:46:56Z</time>
      </trkpt>
      <trkpt lat="43.13656" lon="3.1153">
        <ele>59.224121</ele>
        <time>2009-11-04T14:46:56Z</time>
      </trkpt>
      <trkpt lat="43.13735" lon="3.11537">
        <ele>62.60046</ele>
        <time>2009-11-04T14:46:56Z</time>
      </trkpt>
      <trkpt lat="43.13795" lon="3.11553">
        <ele>69.365631</ele>
        <time>2009-11-04T14:46:56Z</time>
      </trkpt>
      <trkpt lat="43.13823" lon="3.11517">
        <ele>68.528236</ele>
        <time>2009-11-04T14:46:56Z</time>
      </trkpt>
      <trkpt lat="43.13831" lon="3.11474">
        <ele>67.901917</ele>
        <time>2009-11-04T14:46:56Z</time>
      </trkpt>
      <trkpt lat="43.13834" lon="3.11413">
        <ele>68.706596</ele>
        <time>2009-11-04T14:46:56Z</time>
      </trkpt>
      <trkpt lat="43.13817" lon="3.11385">
        <ele>67.75853</ele>
        <time>2009-11-04T14:46:56Z</time>
      </trkpt>
      <trkpt lat="43.13765" lon="3.11367">
        <ele>66.393364</ele>
        <time>2009-11-04T14:46:56Z</time>
      </trkpt>
      <trkpt lat="43.13766" lon="3.11255">
        <ele>68.051392</ele>
        <time>2009-11-04T14:46:56Z</time>
      </trkpt>
      <trkpt lat="43.13782" lon="3.11154">
        <ele>63.626457</ele>
        <time>2009-11-04T14:46:56Z</time>
      </trkpt>
      <trkpt lat="43.13829" lon="3.11149">
        <ele>61.321369</ele>
        <time>2009-11-04T14:46:56Z</time>
      </trkpt>
      <trkpt lat="43.13902" lon="3.11153">
        <ele>59.555271</ele>
        <time>2009-11-04T14:46:56Z</time>
      </trkpt>
      <trkpt lat="43.13926" lon="3.11169">
        <ele>60.945854</ele>
        <time>2009-11-04T14:46:56Z</time>
      </trkpt>
      <trkpt lat="43.13944" lon="3.1123">
        <ele>64.178787</ele>
        <time>2009-11-04T14:46:56Z</time>
      </trkpt>
      <trkpt lat="43.13949" lon="3.11298">
        <ele>63.391582</ele>
        <time>2009-11-04T14:46:56Z</time>
      </trkpt>
      <trkpt lat="43.13972" lon="3.11359">
        <ele>60.197128</ele>
        <time>2009-11-04T14:46:56Z</time>
      </trkpt>
      <trkpt lat="43.13982" lon="3.1147">
        <ele>64.479263</ele>
        <time>2009-11-04T14:46:56Z</time>
      </trkpt>
      <trkpt lat="43.14033" lon="3.11599">
        <ele>63.569698</ele>
        <time>2009-11-04T14:46:56Z</time>
      </trkpt>
      <trkpt lat="43.14118" lon="3.11677">
        <ele>66.300285</ele>
        <time>2009-11-04T14:46:56Z</time>
      </trkpt>
      <trkpt lat="43.14163" lon="3.11663">
        <ele>65.5457</ele>
        <time>2009-11-04T14:46:56Z</time>
      </trkpt>
      <trkpt lat="43.14199" lon="3.11635">
        <ele>63.694927</ele>
        <time>2009-11-04T14:46:56Z</time>
      </trkpt>
      <trkpt lat="43.1421" lon="3.11728">
        <ele>66.600082</ele>
        <time>2009-11-04T14:46:56Z</time>
      </trkpt>
      <trkpt lat="43.14214" lon="3.11757">
        <ele>67.321671</ele>
        <time>2009-11-04T14:46:56Z</time>
      </trkpt>
      <trkpt lat="43.1423" lon="3.11769">
        <ele>66.577019</ele>
        <time>2009-11-04T14:46:56Z</time>
      </trkpt>
      <trkpt lat="43.1425" lon="3.11777">
        <ele>65.240723</ele>
        <time>2009-11-04T14:46:56Z</time>
      </trkpt>
      <trkpt lat="43.14243" lon="3.11829">
        <ele>67.173866</ele>
        <time>2009-11-04T14:46:56Z</time>
      </trkpt>
      <trkpt lat="43.1423" lon="3.11949">
        <ele>67.680008</ele>
        <time>2009-11-04T14:46:56Z</time>
      </trkpt>
      <trkpt lat="43.14225" lon="3.12013">
        <ele>66.620651</ele>
        <time>2009-11-04T14:46:56Z</time>
      </trkpt>
      <trkpt lat="43.1418" lon="3.12068">
        <ele>63.050076</ele>
        <time>2009-11-04T14:46:56Z</time>
      </trkpt>
      <trkpt lat="43.14139" lon="3.1222">
        <ele>56.654991</ele>
        <time>2009-11-04T14:46:56Z</time>
      </trkpt>
      <trkpt lat="43.14091" lon="3.12327">
        <ele>49.450214</ele>
        <time>2009-11-04T14:46:56Z</time>
      </trkpt>
      <trkpt lat="43.14086" lon="3.12401">
        <ele>48.100552</ele>
        <time>2009-11-04T14:46:56Z</time>
      </trkpt>
      <trkpt lat="43.1406" lon="3.12465">
        <ele>48.320362</ele>
        <time>2009-11-04T14:46:56Z</time>
      </trkpt>
      <trkpt lat="43.14027" lon="3.12512">
        <ele>46.416111</ele>
        <time>2009-11-04T14:46:56Z</time>
      </trkpt>
      <trkpt lat="43.14012" lon="3.12578">
        <ele>45.250153</ele>
        <time>2009-11-04T14:46:56Z</time>
      </trkpt>
      <trkpt lat="43.14021" lon="3.12676">
        <ele>45.924889</ele>
        <time>2009-11-04T14:46:56Z</time>
      </trkpt>
      <trkpt lat="43.13978" lon="3.12737">
        <ele>42.10006</ele>
        <time>2009-11-04T14:46:56Z</time>
      </trkpt>
      <trkpt lat="43.13983" lon="3.12853">
        <ele>39.750343</ele>
        <time>2009-11-04T14:46:56Z</time>
      </trkpt>
      <trkpt lat="43.13987" lon="3.12915">
        <ele>38.069344</ele>
        <time>2009-11-04T14:46:56Z</time>
      </trkpt>
      <trkpt lat="43.13968" lon="3.12924">
        <ele>35.809772</ele>
        <time>2009-11-04T14:46:56Z</time>
      </trkpt>
      <trkpt lat="43.13945" lon="3.1292">
        <ele>34.080532</ele>
        <time>2009-11-04T14:46:56Z</time>
      </trkpt>
      <trkpt lat="43.13889" lon="3.12861">
        <ele>31.654881</ele>
        <time>2009-11-04T14:46:56Z</time>
      </trkpt>
      <trkpt lat="43.13831" lon="3.12842">
        <ele>31.950388</ele>
        <time>2009-11-04T14:46:56Z</time>
      </trkpt>
      <trkpt lat="43.13792" lon="3.12855">
        <ele>28.642298</ele>
        <time>2009-11-04T14:46:56Z</time>
      </trkpt>
      <trkpt lat="43.13794" lon="3.12906">
        <ele>27.65011</ele>
        <time>2009-11-04T14:46:56Z</time>
      </trkpt>
      <trkpt lat="43.13793" lon="3.1296">
        <ele>23.389788</ele>
        <time>2009-11-04T14:46:56Z</time>
      </trkpt>
      <trkpt lat="43.13779" lon="3.12982">
        <ele>19.939489</ele>
        <time>2009-11-04T14:46:56Z</time>
      </trkpt>
      <trkpt lat="43.13744" lon="3.12985">
        <ele>15.649431</ele>
        <time>2009-11-04T14:46:56Z</time>
      </trkpt>
      <trkpt lat="43.13715" lon="3.12966">
        <ele>13.800459</ele>
        <time>2009-11-04T14:46:56Z</time>
      </trkpt>
      <trkpt lat="43.13693" lon="3.12901">
        <ele>18.850178</ele>
        <time>2009-11-04T14:46:56Z</time>
      </trkpt>
      <trkpt lat="43.13687" lon="3.12863">
        <ele>17.39621</ele>
        <time>2009-11-04T14:46:56Z</time>
      </trkpt>
      <trkpt lat="43.13661" lon="3.12835">
        <ele>12.303897</ele>
        <time>2009-11-04T14:46:56Z</time>
      </trkpt>
      <trkpt lat="43.1364" lon="3.12849">
        <ele>9.492374</ele>
        <time>2009-11-04T14:46:56Z</time>
      </trkpt>
      <trkpt lat="43.1363" lon="3.12862">
        <ele>7.505727</ele>
        <time>2009-11-04T14:46:56Z</time>
      </trkpt>
      <trkpt lat="43.13602" lon="3.12865">
        <ele>4.719537</ele>
        <time>2009-11-04T14:46:56Z</time>
      </trkpt>
      <trkpt lat="43.13615" lon="3.12917">
        <ele>4.997633</ele>
        <time>2009-11-04T14:46:56Z</time>
      </trkpt>
      <trkpt lat="43.13619" lon="3.12948">
        <ele>3.967211</ele>
        <time>2009-11-04T14:46:56Z</time>
      </trkpt>
      <trkpt lat="43.1365" lon="3.12968">
        <ele>4.992858</ele>
        <time>2009-11-04T14:46:56Z</time>
      </trkpt>
      <trkpt lat="43.13728" lon="3.13074">
        <ele>4.280151</ele>
        <time>2009-11-04T14:46:56Z</time>
      </trkpt>
      <trkpt lat="43.13696" lon="3.1319">
        <ele>2.270042</ele>
        <time>2009-11-04T14:46:56Z</time>
      </trkpt>
      <trkpt lat="43.13675" lon="3.13285">
        <ele>2.950082</ele>
        <time>2009-11-04T14:46:56Z</time>
      </trkpt>
      <trkpt lat="43.13591" lon="3.13443">
        <ele>3.510072</ele>
        <time>2009-11-04T14:46:56Z</time>
      </trkpt>
      <trkpt lat="43.13522" lon="3.13376">
        <ele>3.374182</ele>
        <time>2009-11-04T14:46:56Z</time>
      </trkpt>
      <trkpt lat="43.13462" lon="3.13469">
        <ele>2</ele>
        <time>2009-11-04T14:46:56Z</time>
      </trkpt>
      <trkpt lat="43.13397" lon="3.13515">
        <ele>2</ele>
        <time>2009-11-04T14:46:56Z</time>
      </trkpt>
      <trkpt lat="43.13317" lon="3.13548">
        <ele>1</ele>
        <time>2009-11-04T14:46:56Z</time>
      </trkpt>
      <trkpt lat="43.1322" lon="3.13597">
        <ele>1</ele>
        <time>2009-11-04T14:46:56Z</time>
      </trkpt>
      <trkpt lat="43.1319" lon="3.13618">
        <ele>1</ele>
        <time>2009-11-04T14:46:56Z</time>
      </trkpt>
      <trkpt lat="43.13147" lon="3.13593">
        <ele>1</ele>
        <time>2009-11-04T14:46:56Z</time>
      </trkpt>
      <trkpt lat="43.13049" lon="3.13506">
        <ele>1</ele>
        <time>2009-11-04T14:46:56Z</time>
      </trkpt>
      <trkpt lat="43.13012" lon="3.13551">
        <ele>1</ele>
        <time>2009-11-04T14:46:56Z</time>
      </trkpt>
      <trkpt lat="43.12967" lon="3.13658">
        <ele>1</ele>
        <time>2009-11-04T14:46:56Z</time>
      </trkpt>
      <trkpt lat="43.12932" lon="3.13664">
        <ele>1</ele>
        <time>2009-11-04T14:46:56Z</time>
      </trkpt>
      <trkpt lat="43.12157" lon="3.12939">
        <ele>1</ele>
        <time>2009-11-04T14:46:56Z</time>
      </trkpt>
      <trkpt lat="43.12099" lon="3.12876">
        <ele>1</ele>
        <time>2009-11-04T14:46:56Z</time>
      </trkpt>
      <trkpt lat="43.12018" lon="3.1282">
        <ele>1</ele>
        <time>2009-11-04T14:46:56Z</time>
      </trkpt>
      <trkpt lat="43.11933" lon="3.12767">
        <ele>1</ele>
        <time>2009-11-04T14:46:56Z</time>
      </trkpt>
      <trkpt lat="43.11884" lon="3.12735">
        <ele>1</ele>
        <time>2009-11-04T14:46:56Z</time>
      </trkpt>
      <trkpt lat="43.11826" lon="3.12692">
        <ele>1</ele>
        <time>2009-11-04T14:46:56Z</time>
      </trkpt>
      <trkpt lat="43.11781" lon="3.12657">
        <ele>1</ele>
        <time>2009-11-04T14:46:56Z</time>
      </trkpt>
      <trkpt lat="43.11752" lon="3.12636">
        <ele>1</ele>
        <time>2009-11-04T14:46:56Z</time>
      </trkpt>
      <trkpt lat="43.11724" lon="3.12624">
        <ele>1</ele>
        <time>2009-11-04T14:46:56Z</time>
      </trkpt>
      <trkpt lat="43.11683" lon="3.12625">
        <ele>1.059962</ele>
        <time>2009-11-04T14:46:56Z</time>
      </trkpt>
      <trkpt lat="43.11615" lon="3.12621">
        <ele>1.049981</ele>
        <time>2009-11-04T14:46:56Z</time>
      </trkpt>
      <trkpt lat="43.11557" lon="3.12608">
        <ele>1</ele>
        <time>2009-11-04T14:46:56Z</time>
      </trkpt>
      <trkpt lat="43.11515" lon="3.12602">
        <ele>1</ele>
        <time>2009-11-04T14:46:56Z</time>
      </trkpt>
      <trkpt lat="43.1147" lon="3.12589">
        <ele>1</ele>
        <time>2009-11-04T14:46:56Z</time>
      </trkpt>
      <trkpt lat="43.11432" lon="3.1257">
        <ele>1</ele>
        <time>2009-11-04T14:46:56Z</time>
      </trkpt>
      <trkpt lat="43.1139" lon="3.12499">
        <ele>1</ele>
        <time>2009-11-04T14:46:56Z</time>
      </trkpt>
      <trkpt lat="43.11348" lon="3.12397">
        <ele>1.969996</ele>
        <time>2009-11-04T14:46:56Z</time>
      </trkpt>
      <trkpt lat="43.11368" lon="3.12288">
        <ele>2</ele>
        <time>2009-11-04T14:46:56Z</time>
      </trkpt>
      <trkpt lat="43.11466" lon="3.11988">
        <ele>3</ele>
        <time>2009-11-04T14:46:56Z</time>
      </trkpt>
      <trkpt lat="43.11513" lon="3.11829">
        <ele>2</ele>
        <time>2009-11-04T14:46:56Z</time>
      </trkpt>
      <trkpt lat="43.11548" lon="3.11734">
        <ele>2</ele>
        <time>2009-11-04T14:46:56Z</time>
      </trkpt>
      <trkpt lat="43.11594" lon="3.11635">
        <ele>2</ele>
        <time>2009-11-04T14:46:56Z</time>
      </trkpt>
      <trkpt lat="43.11617" lon="3.11576">
        <ele>2</ele>
        <time>2009-11-04T14:46:56Z</time>
      </trkpt>
      <trkpt lat="43.11686" lon="3.11436">
        <ele>2</ele>
        <time>2009-11-04T14:46:56Z</time>
      </trkpt>
      <trkpt lat="43.11731" lon="3.11392">
        <ele>2</ele>
        <time>2009-11-04T14:46:56Z</time>
      </trkpt>
      <trkpt lat="43.11789" lon="3.11347">
        <ele>2</ele>
        <time>2009-11-04T14:46:56Z</time>
      </trkpt>
      <trkpt lat="43.11821" lon="3.11315">
        <ele>2.561671</ele>
        <time>2009-11-04T14:46:56Z</time>
      </trkpt>
      <trkpt lat="43.11861" lon="3.1126">
        <ele>3</ele>
        <time>2009-11-04T14:46:56Z</time>
      </trkpt>
      <trkpt lat="43.11904" lon="3.1119">
        <ele>3</ele>
        <time>2009-11-04T14:46:56Z</time>
      </trkpt>
      <trkpt lat="43.11912" lon="3.11163">
        <ele>3</ele>
        <time>2009-11-04T14:46:56Z</time>
      </trkpt>
      <trkpt lat="43.11909" lon="3.11138">
        <ele>3</ele>
        <time>2009-11-04T14:46:56Z</time>
      </trkpt>
      <trkpt lat="43.11933" lon="3.11091">
        <ele>3</ele>
        <time>2009-11-04T14:46:56Z</time>
      </trkpt>
      <trkpt lat="43.11902" lon="3.11003">
        <ele>3</ele>
        <time>2009-11-04T14:46:56Z</time>
      </trkpt>
      <trkpt lat="43.11867" lon="3.10886">
        <ele>3</ele>
        <time>2009-11-04T14:46:56Z</time>
      </trkpt>
      <trkpt lat="43.11848" lon="3.10788">
        <ele>3</ele>
        <time>2009-11-04T14:46:56Z</time>
      </trkpt>
      <trkpt lat="43.11853" lon="3.10724">
        <ele>3</ele>
        <time>2009-11-04T14:46:56Z</time>
      </trkpt>
      <trkpt lat="43.1188" lon="3.10666">
        <ele>3</ele>
        <time>2009-11-04T14:46:56Z</time>
      </trkpt>
      <trkpt lat="43.11894" lon="3.10632">
        <ele>3</ele>
        <time>2009-11-04T14:46:56Z</time>
      </trkpt>
      <trkpt lat="43.11903" lon="3.10568">
        <ele>3</ele>
        <time>2009-11-04T14:46:56Z</time>
      </trkpt>
      <trkpt lat="43.11904" lon="3.10525">
        <ele>3.136255</ele>
        <time>2009-11-04T14:46:56Z</time>
      </trkpt>
      <trkpt lat="43.11908" lon="3.10473">
        <ele>3.37328</ele>
        <time>2009-11-04T14:46:56Z</time>
      </trkpt>
    </trkseg>
  </trk>
  <trk>
    <name><![CDATA[05 Les Garrigues - TraceGps issued]]></name>
    <extensions>
      <line xmlns="http://www.topografix.com/GPX/gpx_style/0/2">
        <color>00FFFF</color>
        <width>4</width>
      </line>
    </extensions>
    <trkseg>
      <trkpt lat="43.10842" lon="3.0899">
        <ele>0.27998</ele>
        <time>2005-06-16T11:08:32Z</time>
      </trkpt>
      <trkpt lat="43.10844" lon="3.08957">
        <ele>0.0675</ele>
        <time>2005-06-16T11:08:32Z</time>
      </trkpt>
      <trkpt lat="43.1078" lon="3.08793">
        <ele>1.499952</ele>
        <time>2005-06-16T11:08:32Z</time>
      </trkpt>
      <trkpt lat="43.10849" lon="3.08678">
        <ele>0.900079</ele>
        <time>2005-06-16T11:08:32Z</time>
      </trkpt>
      <trkpt lat="43.10901" lon="3.0851">
        <ele>0.997332</ele>
        <time>2005-06-16T11:08:32Z</time>
      </trkpt>
      <trkpt lat="43.1089" lon="3.08476">
        <ele>1.380113</ele>
        <time>2005-06-16T11:08:32Z</time>
      </trkpt>
      <trkpt lat="43.10869" lon="3.08365">
        <ele>0.950226</ele>
        <time>2005-06-16T11:08:32Z</time>
      </trkpt>
      <trkpt lat="43.10815" lon="3.08291">
        <ele>1.290051</ele>
        <time>2005-06-16T11:08:32Z</time>
      </trkpt>
      <trkpt lat="43.10743" lon="3.08293">
        <ele>3.299723</ele>
        <time>2005-06-16T11:08:32Z</time>
      </trkpt>
      <trkpt lat="43.10721" lon="3.08268">
        <ele>1.519965</ele>
        <time>2005-06-16T11:08:32Z</time>
      </trkpt>
      <trkpt lat="43.10556" lon="3.08398">
        <ele>1.049949</ele>
        <time>2005-06-16T11:08:32Z</time>
      </trkpt>
      <trkpt lat="43.10513" lon="3.08434">
        <ele>0.699968</ele>
        <time>2005-06-16T11:08:32Z</time>
      </trkpt>
      <trkpt lat="43.10466" lon="3.08421">
        <ele>0.525006</ele>
        <time>2005-06-16T11:08:32Z</time>
      </trkpt>
      <trkpt lat="43.10494" lon="3.08333">
        <ele>0.450057</ele>
        <time>2005-06-16T11:08:32Z</time>
      </trkpt>
      <trkpt lat="43.10526" lon="3.08235">
        <ele>0.749943</ele>
        <time>2005-06-16T11:08:32Z</time>
      </trkpt>
      <trkpt lat="43.10551" lon="3.08177">
        <ele>0.599975</ele>
        <time>2005-06-16T11:08:32Z</time>
      </trkpt>
      <trkpt lat="43.10594" lon="3.08113">
        <ele>0.662496</ele>
        <time>2005-06-16T11:08:32Z</time>
      </trkpt>
      <trkpt lat="43.10606" lon="3.08101">
        <ele>0.749952</ele>
        <time>2005-06-16T11:08:32Z</time>
      </trkpt>
      <trkpt lat="43.10644" lon="3.08013">
        <ele>0.319932</ele>
        <time>2005-06-16T11:08:32Z</time>
      </trkpt>
      <trkpt lat="43.10658" lon="3.08001">
        <ele>0.339993</ele>
        <time>2005-06-16T11:08:32Z</time>
      </trkpt>
      <trkpt lat="43.10751" lon="3.07885">
        <ele>1</ele>
        <time>2005-06-16T11:08:32Z</time>
      </trkpt>
      <trkpt lat="43.10928" lon="3.07587">
        <ele>4.180295</ele>
        <time>2005-06-16T11:08:32Z</time>
      </trkpt>
      <trkpt lat="43.10944" lon="3.07554">
        <ele>4.262238</ele>
        <time>2005-06-16T11:08:32Z</time>
      </trkpt>
      <trkpt lat="43.10953" lon="3.07514">
        <ele>4.329624</ele>
        <time>2005-06-16T11:08:32Z</time>
      </trkpt>
      <trkpt lat="43.11007" lon="3.07181">
        <ele>0.029988</ele>
        <time>2005-06-16T11:08:32Z</time>
      </trkpt>
      <trkpt lat="43.11043" lon="3.0693">
        <ele>2.099864</ele>
        <time>2005-06-16T11:08:32Z</time>
      </trkpt>
      <trkpt lat="43.11047" lon="3.06875">
        <ele>1.44995</ele>
        <time>2005-06-16T11:08:32Z</time>
      </trkpt>
      <trkpt lat="43.11054" lon="3.06835">
        <ele>1.19992</ele>
        <time>2005-06-16T11:08:32Z</time>
      </trkpt>
      <trkpt lat="43.11052" lon="3.06798">
        <ele>0.750098</ele>
        <time>2005-06-16T11:08:32Z</time>
      </trkpt>
      <trkpt lat="43.11073" lon="3.06731">
        <ele>0.800072</ele>
        <time>2005-06-16T11:08:32Z</time>
      </trkpt>
      <trkpt lat="43.11081" lon="3.06596">
        <ele>1</ele>
        <time>2005-06-16T11:08:32Z</time>
      </trkpt>
      <trkpt lat="43.11085" lon="3.06578">
        <ele>1</ele>
        <time>2005-06-16T11:08:32Z</time>
      </trkpt>
      <trkpt lat="43.11124" lon="3.06597">
        <ele>0.300082</ele>
        <time>2005-06-16T11:08:32Z</time>
      </trkpt>
      <trkpt lat="43.11268" lon="3.0681">
        <ele>1.544926</ele>
        <time>2005-06-16T11:08:32Z</time>
      </trkpt>
      <trkpt lat="43.11273" lon="3.06684">
        <ele>7.899905</ele>
        <time>2005-06-16T11:08:32Z</time>
      </trkpt>
      <trkpt lat="43.11262" lon="3.06663">
        <ele>8.920392</ele>
        <time>2005-06-16T11:08:32Z</time>
      </trkpt>
      <trkpt lat="43.11236" lon="3.06616">
        <ele>6.640047</ele>
        <time>2005-06-16T11:08:32Z</time>
      </trkpt>
      <trkpt lat="43.11229" lon="3.06598">
        <ele>5.380575</ele>
        <time>2005-06-16T11:08:32Z</time>
      </trkpt>
      <trkpt lat="43.11236" lon="3.06567">
        <ele>5.35995</ele>
        <time>2005-06-16T11:08:32Z</time>
      </trkpt>
      <trkpt lat="43.11245" lon="3.0654">
        <ele>4.949869</ele>
        <time>2005-06-16T11:08:32Z</time>
      </trkpt>
      <trkpt lat="43.11268" lon="3.06522">
        <ele>6.500418</ele>
        <time>2005-06-16T11:08:32Z</time>
      </trkpt>
      <trkpt lat="43.11302" lon="3.0651">
        <ele>8.011795</ele>
        <time>2005-06-16T11:08:32Z</time>
      </trkpt>
      <trkpt lat="43.11313" lon="3.06495">
        <ele>7.499551</ele>
        <time>2005-06-16T11:08:32Z</time>
      </trkpt>
      <trkpt lat="43.11331" lon="3.06461">
        <ele>6.669761</ele>
        <time>2005-06-16T11:08:32Z</time>
      </trkpt>
      <trkpt lat="43.11421" lon="3.06404">
        <ele>6.419948</ele>
        <time>2005-06-16T11:08:32Z</time>
      </trkpt>
      <trkpt lat="43.11424" lon="3.06383">
        <ele>5.145047</ele>
        <time>2005-06-16T11:08:32Z</time>
      </trkpt>
      <trkpt lat="43.11422" lon="3.06343">
        <ele>4.360081</ele>
        <time>2005-06-16T11:08:32Z</time>
      </trkpt>
      <trkpt lat="43.11431" lon="3.06318">
        <ele>4.100048</ele>
        <time>2005-06-16T11:08:32Z</time>
      </trkpt>
      <trkpt lat="43.11444" lon="3.06306">
        <ele>4.400077</ele>
        <time>2005-06-16T11:08:32Z</time>
      </trkpt>
      <trkpt lat="43.11472" lon="3.06282">
        <ele>4.999914</ele>
        <time>2005-06-16T11:08:32Z</time>
      </trkpt>
      <trkpt lat="43.11499" lon="3.06279">
        <ele>5.210041</ele>
        <time>2005-06-16T11:08:32Z</time>
      </trkpt>
      <trkpt lat="43.1151" lon="3.0627">
        <ele>5.169963</ele>
        <time>2005-06-16T11:08:32Z</time>
      </trkpt>
      <trkpt lat="43.11525" lon="3.06298">
        <ele>5.909843</ele>
        <time>2005-06-16T11:08:32Z</time>
      </trkpt>
      <trkpt lat="43.11548" lon="3.06314">
        <ele>7.16025</ele>
        <time>2005-06-16T11:08:32Z</time>
      </trkpt>
      <trkpt lat="43.11575" lon="3.06323">
        <ele>9.34487</ele>
        <time>2005-06-16T11:08:32Z</time>
      </trkpt>
      <trkpt lat="43.11617" lon="3.0633">
        <ele>12.287271</ele>
        <time>2005-06-16T11:08:32Z</time>
      </trkpt>
      <trkpt lat="43.1164" lon="3.06327">
        <ele>11.125178</ele>
        <time>2005-06-16T11:08:32Z</time>
      </trkpt>
      <trkpt lat="43.11655" lon="3.06349">
        <ele>13.440157</ele>
        <time>2005-06-16T11:08:32Z</time>
      </trkpt>
      <trkpt lat="43.11691" lon="3.06398">
        <ele>14.824411</ele>
        <time>2005-06-16T11:08:32Z</time>
      </trkpt>
      <trkpt lat="43.11715" lon="3.06435">
        <ele>18.125114</ele>
        <time>2005-06-16T11:08:32Z</time>
      </trkpt>
      <trkpt lat="43.11731" lon="3.06485">
        <ele>20.719593</ele>
        <time>2005-06-16T11:08:32Z</time>
      </trkpt>
      <trkpt lat="43.11791" lon="3.06577">
        <ele>24.749733</ele>
        <time>2005-06-16T11:08:32Z</time>
      </trkpt>
      <trkpt lat="43.11811" lon="3.06596">
        <ele>27.149921</ele>
        <time>2005-06-16T11:08:32Z</time>
      </trkpt>
      <trkpt lat="43.1179" lon="3.06636">
        <ele>23.900499</ele>
        <time>2005-06-16T11:08:32Z</time>
      </trkpt>
      <trkpt lat="43.11783" lon="3.06685">
        <ele>22.999371</ele>
        <time>2005-06-16T11:08:32Z</time>
      </trkpt>
      <trkpt lat="43.11794" lon="3.067">
        <ele>24.199997</ele>
        <time>2005-06-16T11:08:32Z</time>
      </trkpt>
      <trkpt lat="43.11806" lon="3.06712">
        <ele>24.950201</ele>
        <time>2005-06-16T11:08:32Z</time>
      </trkpt>
      <trkpt lat="43.11821" lon="3.06722">
        <ele>25.900667</ele>
        <time>2005-06-16T11:08:32Z</time>
      </trkpt>
      <trkpt lat="43.11796" lon="3.06755">
        <ele>22.284506</ele>
        <time>2005-06-16T11:08:32Z</time>
      </trkpt>
      <trkpt lat="43.11776" lon="3.06807">
        <ele>16.239761</ele>
        <time>2005-06-16T11:08:32Z</time>
      </trkpt>
      <trkpt lat="43.11769" lon="3.06835">
        <ele>13.85981</ele>
        <time>2005-06-16T11:08:32Z</time>
      </trkpt>
      <trkpt lat="43.1178" lon="3.06856">
        <ele>12.469957</ele>
        <time>2005-06-16T11:08:32Z</time>
      </trkpt>
      <trkpt lat="43.11829" lon="3.06891">
        <ele>11.12506</ele>
        <time>2005-06-16T11:08:32Z</time>
      </trkpt>
      <trkpt lat="43.11831" lon="3.06906">
        <ele>10.199874</ele>
        <time>2005-06-16T11:08:32Z</time>
      </trkpt>
      <trkpt lat="43.11773" lon="3.07151">
        <ele>2.500073</ele>
        <time>2005-06-16T11:08:32Z</time>
      </trkpt>
      <trkpt lat="43.11762" lon="3.07166">
        <ele>2.250007</ele>
        <time>2005-06-16T11:08:32Z</time>
      </trkpt>
      <trkpt lat="43.11712" lon="3.07202">
        <ele>1.650001</ele>
        <time>2005-06-16T11:08:32Z</time>
      </trkpt>
      <trkpt lat="43.11706" lon="3.07217">
        <ele>1.400052</ele>
        <time>2005-06-16T11:08:32Z</time>
      </trkpt>
      <trkpt lat="43.11696" lon="3.07254">
        <ele>1</ele>
        <time>2005-06-16T11:08:32Z</time>
      </trkpt>
      <trkpt lat="43.11696" lon="3.07278">
        <ele>1</ele>
        <time>2005-06-16T11:08:32Z</time>
      </trkpt>
      <trkpt lat="43.11673" lon="3.07355">
        <ele>1</ele>
        <time>2005-06-16T11:08:32Z</time>
      </trkpt>
      <trkpt lat="43.11661" lon="3.0748">
        <ele>1.940023</ele>
        <time>2005-06-16T11:08:32Z</time>
      </trkpt>
      <trkpt lat="43.11654" lon="3.07584">
        <ele>3.550137</ele>
        <time>2005-06-16T11:08:32Z</time>
      </trkpt>
      <trkpt lat="43.11669" lon="3.07588">
        <ele>5.020253</ele>
        <time>2005-06-16T11:08:32Z</time>
      </trkpt>
      <trkpt lat="43.11685" lon="3.07539">
        <ele>3.614919</ele>
        <time>2005-06-16T11:08:32Z</time>
      </trkpt>
      <trkpt lat="43.11782" lon="3.07488">
        <ele>4.199756</ele>
        <time>2005-06-16T11:08:32Z</time>
      </trkpt>
      <trkpt lat="43.11848" lon="3.07427">
        <ele>4.650249</ele>
        <time>2005-06-16T11:08:32Z</time>
      </trkpt>
      <trkpt lat="43.1187" lon="3.07419">
        <ele>5.800007</ele>
        <time>2005-06-16T11:08:32Z</time>
      </trkpt>
      <trkpt lat="43.11947" lon="3.07429">
        <ele>7.249977</ele>
        <time>2005-06-16T11:08:32Z</time>
      </trkpt>
      <trkpt lat="43.11971" lon="3.07417">
        <ele>7.059981</ele>
        <time>2005-06-16T11:08:32Z</time>
      </trkpt>
      <trkpt lat="43.11989" lon="3.0742">
        <ele>7.105038</ele>
        <time>2005-06-16T11:08:32Z</time>
      </trkpt>
      <trkpt lat="43.12144" lon="3.07502">
        <ele>12.727321</ele>
        <time>2005-06-16T11:08:32Z</time>
      </trkpt>
      <trkpt lat="43.12164" lon="3.07505">
        <ele>13.679936</ele>
        <time>2005-06-16T11:08:32Z</time>
      </trkpt>
      <trkpt lat="43.1218" lon="3.07502">
        <ele>14.207533</ele>
        <time>2005-06-16T11:08:32Z</time>
      </trkpt>
      <trkpt lat="43.12189" lon="3.07472">
        <ele>15.447392</ele>
        <time>2005-06-16T11:08:32Z</time>
      </trkpt>
      <trkpt lat="43.12202" lon="3.07466">
        <ele>16.497538</ele>
        <time>2005-06-16T11:08:32Z</time>
      </trkpt>
      <trkpt lat="43.1224" lon="3.07497">
        <ele>17.985085</ele>
        <time>2005-06-16T11:08:32Z</time>
      </trkpt>
      <trkpt lat="43.12267" lon="3.07522">
        <ele>20.194822</ele>
        <time>2005-06-16T11:08:32Z</time>
      </trkpt>
      <trkpt lat="43.12301" lon="3.07501">
        <ele>21.464977</ele>
        <time>2005-06-16T11:08:32Z</time>
      </trkpt>
      <trkpt lat="43.12326" lon="3.07498">
        <ele>22.530079</ele>
        <time>2005-06-16T11:08:32Z</time>
      </trkpt>
      <trkpt lat="43.12319" lon="3.07565">
        <ele>24.766853</ele>
        <time>2005-06-16T11:08:32Z</time>
      </trkpt>
      <trkpt lat="43.12314" lon="3.07608">
        <ele>26.315369</ele>
        <time>2005-06-16T11:08:32Z</time>
      </trkpt>
      <trkpt lat="43.12304" lon="3.07651">
        <ele>30.700569</ele>
        <time>2005-06-16T11:08:32Z</time>
      </trkpt>
      <trkpt lat="43.12293" lon="3.07691">
        <ele>32.59967</ele>
        <time>2005-06-16T11:08:32Z</time>
      </trkpt>
      <trkpt lat="43.12286" lon="3.07743">
        <ele>34.996395</ele>
        <time>2005-06-16T11:08:32Z</time>
      </trkpt>
      <trkpt lat="43.12288" lon="3.07776">
        <ele>36.560406</ele>
        <time>2005-06-16T11:08:32Z</time>
      </trkpt>
      <trkpt lat="43.12297" lon="3.07823">
        <ele>40.339962</ele>
        <time>2005-06-16T11:08:32Z</time>
      </trkpt>
      <trkpt lat="43.12321" lon="3.07878">
        <ele>41.962738</ele>
        <time>2005-06-16T11:08:32Z</time>
      </trkpt>
      <trkpt lat="43.12338" lon="3.07946">
        <ele>39.865257</ele>
        <time>2005-06-16T11:08:32Z</time>
      </trkpt>
      <trkpt lat="43.12383" lon="3.07999">
        <ele>38.929935</ele>
        <time>2005-06-16T11:08:32Z</time>
      </trkpt>
      <trkpt lat="43.12408" lon="3.08008">
        <ele>42.965176</ele>
        <time>2005-06-16T11:08:32Z</time>
      </trkpt>
      <trkpt lat="43.12448" lon="3.08045">
        <ele>48.349224</ele>
        <time>2005-06-16T11:08:32Z</time>
      </trkpt>
      <trkpt lat="43.12492" lon="3.0808">
        <ele>54.99995</ele>
        <time>2005-06-16T11:08:32Z</time>
      </trkpt>
      <trkpt lat="43.12533" lon="3.08105">
        <ele>61.09108</ele>
        <time>2005-06-16T11:08:32Z</time>
      </trkpt>
      <trkpt lat="43.12559" lon="3.08136">
        <ele>61.301353</ele>
        <time>2005-06-16T11:08:32Z</time>
      </trkpt>
      <trkpt lat="43.12604" lon="3.08182">
        <ele>62.60006</ele>
        <time>2005-06-16T11:08:32Z</time>
      </trkpt>
      <trkpt lat="43.12617" lon="3.08195">
        <ele>63.140198</ele>
        <time>2005-06-16T11:08:32Z</time>
      </trkpt>
      <trkpt lat="43.12635" lon="3.08201">
        <ele>64.729866</ele>
        <time>2005-06-16T11:08:32Z</time>
      </trkpt>
      <trkpt lat="43.12647" lon="3.08213">
        <ele>65.747787</ele>
        <time>2005-06-16T11:08:32Z</time>
      </trkpt>
      <trkpt lat="43.12633" lon="3.08241">
        <ele>64.654678</ele>
        <time>2005-06-16T11:08:32Z</time>
      </trkpt>
      <trkpt lat="43.12621" lon="3.08287">
        <ele>65.724754</ele>
        <time>2005-06-16T11:08:32Z</time>
      </trkpt>
      <trkpt lat="43.12612" lon="3.0836">
        <ele>65.613258</ele>
        <time>2005-06-16T11:08:32Z</time>
      </trkpt>
      <trkpt lat="43.12609" lon="3.08431">
        <ele>64.940857</ele>
        <time>2005-06-16T11:08:32Z</time>
      </trkpt>
      <trkpt lat="43.12602" lon="3.08467">
        <ele>62.899109</ele>
        <time>2005-06-16T11:08:32Z</time>
      </trkpt>
      <trkpt lat="43.12588" lon="3.08492">
        <ele>59.480583</ele>
        <time>2005-06-16T11:08:32Z</time>
      </trkpt>
      <trkpt lat="43.12559" lon="3.0851">
        <ele>56.099949</ele>
        <time>2005-06-16T11:08:32Z</time>
      </trkpt>
      <trkpt lat="43.1253" lon="3.08509">
        <ele>55.000111</ele>
        <time>2005-06-16T11:08:32Z</time>
      </trkpt>
      <trkpt lat="43.12503" lon="3.08478">
        <ele>54.699497</ele>
        <time>2005-06-16T11:08:32Z</time>
      </trkpt>
      <trkpt lat="43.12483" lon="3.0849">
        <ele>55</ele>
        <time>2005-06-16T11:08:32Z</time>
      </trkpt>
      <trkpt lat="43.12487" lon="3.08558">
        <ele>55</ele>
        <time>2005-06-16T11:08:32Z</time>
      </trkpt>
      <trkpt lat="43.1248" lon="3.08601">
        <ele>55</ele>
        <time>2005-06-16T11:08:32Z</time>
      </trkpt>
      <trkpt lat="43.1248" lon="3.08638">
        <ele>55</ele>
        <time>2005-06-16T11:08:32Z</time>
      </trkpt>
      <trkpt lat="43.12486" lon="3.08674">
        <ele>54.989979</ele>
        <time>2005-06-16T11:08:32Z</time>
      </trkpt>
      <trkpt lat="43.12504" lon="3.08736">
        <ele>54.669903</ele>
        <time>2005-06-16T11:08:32Z</time>
      </trkpt>
      <trkpt lat="43.1251" lon="3.08767">
        <ele>53.949978</ele>
        <time>2005-06-16T11:08:32Z</time>
      </trkpt>
      <trkpt lat="43.12501" lon="3.08807">
        <ele>52.180096</ele>
        <time>2005-06-16T11:08:32Z</time>
      </trkpt>
      <trkpt lat="43.12505" lon="3.08825">
        <ele>51.059746</ele>
        <time>2005-06-16T11:08:32Z</time>
      </trkpt>
      <trkpt lat="43.12534" lon="3.0885">
        <ele>47.307907</ele>
        <time>2005-06-16T11:08:32Z</time>
      </trkpt>
      <trkpt lat="43.12541" lon="3.08868">
        <ele>44.5107</ele>
        <time>2005-06-16T11:08:32Z</time>
      </trkpt>
      <trkpt lat="43.1254" lon="3.08927">
        <ele>40.280632</ele>
        <time>2005-06-16T11:08:32Z</time>
      </trkpt>
      <trkpt lat="43.12554" lon="3.08957">
        <ele>37.09935</ele>
        <time>2005-06-16T11:08:32Z</time>
      </trkpt>
      <trkpt lat="43.1256" lon="3.08988">
        <ele>35.254704</ele>
        <time>2005-06-16T11:08:32Z</time>
      </trkpt>
      <trkpt lat="43.12569" lon="3.09007">
        <ele>33.540436</ele>
        <time>2005-06-16T11:08:32Z</time>
      </trkpt>
      <trkpt lat="43.12589" lon="3.09028">
        <ele>30.879522</ele>
        <time>2005-06-16T11:08:32Z</time>
      </trkpt>
      <trkpt lat="43.12591" lon="3.09124">
        <ele>25.300156</ele>
        <time>2005-06-16T11:08:32Z</time>
      </trkpt>
      <trkpt lat="43.12579" lon="3.09163">
        <ele>23.6152</ele>
        <time>2005-06-16T11:08:32Z</time>
      </trkpt>
      <trkpt lat="43.12577" lon="3.09218">
        <ele>21.952459</ele>
        <time>2005-06-16T11:08:32Z</time>
      </trkpt>
      <trkpt lat="43.1257" lon="3.09249">
        <ele>21.929663</ele>
        <time>2005-06-16T11:08:32Z</time>
      </trkpt>
      <trkpt lat="43.12485" lon="3.09509">
        <ele>19.900084</ele>
        <time>2005-06-16T11:08:32Z</time>
      </trkpt>
      <trkpt lat="43.12521" lon="3.09518">
        <ele>21.650032</ele>
        <time>2005-06-16T11:08:32Z</time>
      </trkpt>
      <trkpt lat="43.12626" lon="3.09523">
        <ele>25.800337</ele>
        <time>2005-06-16T11:08:32Z</time>
      </trkpt>
      <trkpt lat="43.12617" lon="3.09575">
        <ele>28.399679</ele>
        <time>2005-06-16T11:08:32Z</time>
      </trkpt>
      <trkpt lat="43.12587" lon="3.09626">
        <ele>30.230288</ele>
        <time>2005-06-16T11:08:32Z</time>
      </trkpt>
      <trkpt lat="43.12549" lon="3.09687">
        <ele>29.349138</ele>
        <time>2005-06-16T11:08:32Z</time>
      </trkpt>
      <trkpt lat="43.12519" lon="3.09748">
        <ele>25.779707</ele>
        <time>2005-06-16T11:08:32Z</time>
      </trkpt>
      <trkpt lat="43.1253" lon="3.0984">
        <ele>24.680109</ele>
        <time>2005-06-16T11:08:32Z</time>
      </trkpt>
      <trkpt lat="43.1252" lon="3.09914">
        <ele>21.499683</ele>
        <time>2005-06-16T11:08:32Z</time>
      </trkpt>
      <trkpt lat="43.1251" lon="3.0999">
        <ele>19.39469</ele>
        <time>2005-06-16T11:08:32Z</time>
      </trkpt>
      <trkpt lat="43.12497" lon="3.10051">
        <ele>17.859737</ele>
        <time>2005-06-16T11:08:32Z</time>
      </trkpt>
      <trkpt lat="43.12507" lon="3.10131">
        <ele>20.816814</ele>
        <time>2005-06-16T11:08:32Z</time>
      </trkpt>
      <trkpt lat="43.12512" lon="3.10156">
        <ele>21.849703</ele>
        <time>2005-06-16T11:08:32Z</time>
      </trkpt>
      <trkpt lat="43.12504" lon="3.10288">
        <ele>20.899601</ele>
        <time>2005-06-16T11:08:32Z</time>
      </trkpt>
      <trkpt lat="43.12531" lon="3.10325">
        <ele>21.739765</ele>
        <time>2005-06-16T11:08:32Z</time>
      </trkpt>
      <trkpt lat="43.12558" lon="3.10325">
        <ele>23.95966</ele>
        <time>2005-06-16T11:08:32Z</time>
      </trkpt>
      <trkpt lat="43.12582" lon="3.10322">
        <ele>23.730434</ele>
        <time>2005-06-16T11:08:32Z</time>
      </trkpt>
      <trkpt lat="43.12632" lon="3.10271">
        <ele>23.729578</ele>
        <time>2005-06-16T11:08:32Z</time>
      </trkpt>
      <trkpt lat="43.12653" lon="3.10222">
        <ele>29.180428</ele>
        <time>2005-06-16T11:08:32Z</time>
      </trkpt>
      <trkpt lat="43.12707" lon="3.10189">
        <ele>27.509779</ele>
        <time>2005-06-16T11:08:32Z</time>
      </trkpt>
      <trkpt lat="43.12729" lon="3.10199">
        <ele>26.599607</ele>
        <time>2005-06-16T11:08:32Z</time>
      </trkpt>
      <trkpt lat="43.12765" lon="3.10267">
        <ele>20.960226</ele>
        <time>2005-06-16T11:08:32Z</time>
      </trkpt>
      <trkpt lat="43.12785" lon="3.10276">
        <ele>20.637627</ele>
        <time>2005-06-16T11:08:32Z</time>
      </trkpt>
      <trkpt lat="43.1283" lon="3.10267">
        <ele>19.290258</ele>
        <time>2005-06-16T11:08:32Z</time>
      </trkpt>
      <trkpt lat="43.12942" lon="3.10275">
        <ele>22.629997</ele>
        <time>2005-06-16T11:08:32Z</time>
      </trkpt>
      <trkpt lat="43.13009" lon="3.10282">
        <ele>24.549807</ele>
        <time>2005-06-16T11:08:32Z</time>
      </trkpt>
      <trkpt lat="43.13056" lon="3.10301">
        <ele>24.760052</ele>
        <time>2005-06-16T11:08:32Z</time>
      </trkpt>
      <trkpt lat="43.13081" lon="3.10335">
        <ele>24.749842</ele>
        <time>2005-06-16T11:08:32Z</time>
      </trkpt>
      <trkpt lat="43.13146" lon="3.10394">
        <ele>28.089848</ele>
        <time>2005-06-16T11:08:32Z</time>
      </trkpt>
      <trkpt lat="43.13192" lon="3.10429">
        <ele>29.300173</ele>
        <time>2005-06-16T11:08:32Z</time>
      </trkpt>
      <trkpt lat="43.13246" lon="3.10445">
        <ele>31.08515</ele>
        <time>2005-06-16T11:08:32Z</time>
      </trkpt>
      <trkpt lat="43.13311" lon="3.10443">
        <ele>34.440437</ele>
        <time>2005-06-16T11:08:32Z</time>
      </trkpt>
      <trkpt lat="43.13336" lon="3.10425">
        <ele>35.549946</ele>
        <time>2005-06-16T11:08:32Z</time>
      </trkpt>
      <trkpt lat="43.13372" lon="3.10391">
        <ele>36.849884</ele>
        <time>2005-06-16T11:08:32Z</time>
      </trkpt>
      <trkpt lat="43.13397" lon="3.10395">
        <ele>38.574852</ele>
        <time>2005-06-16T11:08:32Z</time>
      </trkpt>
      <trkpt lat="43.13428" lon="3.10438">
        <ele>41.249981</ele>
        <time>2005-06-16T11:08:32Z</time>
      </trkpt>
      <trkpt lat="43.13489" lon="3.10476">
        <ele>44.777569</ele>
        <time>2005-06-16T11:08:32Z</time>
      </trkpt>
      <trkpt lat="43.13533" lon="3.1058">
        <ele>49.622375</ele>
        <time>2005-06-16T11:08:32Z</time>
      </trkpt>
      <trkpt lat="43.13591" lon="3.10676">
        <ele>53.830292</ele>
        <time>2005-06-16T11:08:32Z</time>
      </trkpt>
      <trkpt lat="43.13608" lon="3.10689">
        <ele>56.450603</ele>
        <time>2005-06-16T11:08:32Z</time>
      </trkpt>
      <trkpt lat="43.13638" lon="3.10665">
        <ele>56.299484</ele>
        <time>2005-06-16T11:08:32Z</time>
      </trkpt>
      <trkpt lat="43.13665" lon="3.10647">
        <ele>56.649246</ele>
        <time>2005-06-16T11:08:32Z</time>
      </trkpt>
      <trkpt lat="43.13708" lon="3.10583">
        <ele>54.63258</ele>
        <time>2005-06-16T11:08:32Z</time>
      </trkpt>
      <trkpt lat="43.13735" lon="3.10583">
        <ele>55.095036</ele>
        <time>2005-06-16T11:08:32Z</time>
      </trkpt>
      <trkpt lat="43.13753" lon="3.10599">
        <ele>55.329922</ele>
        <time>2005-06-16T11:08:32Z</time>
      </trkpt>
      <trkpt lat="43.1377" lon="3.10642">
        <ele>55.299957</ele>
        <time>2005-06-16T11:08:32Z</time>
      </trkpt>
      <trkpt lat="43.13793" lon="3.10673">
        <ele>55.149982</ele>
        <time>2005-06-16T11:08:32Z</time>
      </trkpt>
      <trkpt lat="43.13842" lon="3.1072">
        <ele>53.437557</ele>
        <time>2005-06-16T11:08:32Z</time>
      </trkpt>
      <trkpt lat="43.139" lon="3.10766">
        <ele>50.499844</ele>
        <time>2005-06-16T11:08:32Z</time>
      </trkpt>
      <trkpt lat="43.13915" lon="3.10785">
        <ele>50.199883</ele>
        <time>2005-06-16T11:08:32Z</time>
      </trkpt>
      <trkpt lat="43.13935" lon="3.10819">
        <ele>50.299957</ele>
        <time>2005-06-16T11:08:32Z</time>
      </trkpt>
      <trkpt lat="43.13949" lon="3.10859">
        <ele>49.724934</ele>
        <time>2005-06-16T11:08:32Z</time>
      </trkpt>
      <trkpt lat="43.13984" lon="3.10902">
        <ele>47.490227</ele>
        <time>2005-06-16T11:08:32Z</time>
      </trkpt>
      <trkpt lat="43.14029" lon="3.10928">
        <ele>43.699909</ele>
        <time>2005-06-16T11:08:32Z</time>
      </trkpt>
      <trkpt lat="43.14076" lon="3.10901">
        <ele>44.270042</ele>
        <time>2005-06-16T11:08:32Z</time>
      </trkpt>
      <trkpt lat="43.14099" lon="3.10928">
        <ele>43.919827</ele>
        <time>2005-06-16T11:08:32Z</time>
      </trkpt>
      <trkpt lat="43.14103" lon="3.10947">
        <ele>43.969742</ele>
        <time>2005-06-16T11:08:32Z</time>
      </trkpt>
      <trkpt lat="43.14141" lon="3.10954">
        <ele>46.449905</ele>
        <time>2005-06-16T11:08:32Z</time>
      </trkpt>
      <trkpt lat="43.14168" lon="3.10951">
        <ele>48.212837</ele>
        <time>2005-06-16T11:08:32Z</time>
      </trkpt>
      <trkpt lat="43.14177" lon="3.10988">
        <ele>48.932358</ele>
        <time>2005-06-16T11:08:32Z</time>
      </trkpt>
      <trkpt lat="43.14177" lon="3.11022">
        <ele>49.299896</ele>
        <time>2005-06-16T11:08:32Z</time>
      </trkpt>
      <trkpt lat="43.14212" lon="3.11037">
        <ele>51.287594</ele>
        <time>2005-06-16T11:08:32Z</time>
      </trkpt>
      <trkpt lat="43.14269" lon="3.11038">
        <ele>55.350311</ele>
        <time>2005-06-16T11:08:32Z</time>
      </trkpt>
      <trkpt lat="43.14338" lon="3.11027">
        <ele>59.812508</ele>
        <time>2005-06-16T11:08:32Z</time>
      </trkpt>
      <trkpt lat="43.14363" lon="3.11036">
        <ele>60.390091</ele>
        <time>2005-06-16T11:08:32Z</time>
      </trkpt>
      <trkpt lat="43.14394" lon="3.1104">
        <ele>61.189682</ele>
        <time>2005-06-16T11:08:32Z</time>
      </trkpt>
      <trkpt lat="43.1443" lon="3.11053">
        <ele>64.270164</ele>
        <time>2005-06-16T11:08:32Z</time>
      </trkpt>
      <trkpt lat="43.14446" lon="3.11062">
        <ele>65.935303</ele>
        <time>2005-06-16T11:08:32Z</time>
      </trkpt>
      <trkpt lat="43.14464" lon="3.11065">
        <ele>67.474945</ele>
        <time>2005-06-16T11:08:32Z</time>
      </trkpt>
      <trkpt lat="43.14477" lon="3.11078">
        <ele>69.385132</ele>
        <time>2005-06-16T11:08:32Z</time>
      </trkpt>
      <trkpt lat="43.14477" lon="3.11105">
        <ele>70.279839</ele>
        <time>2005-06-16T11:08:32Z</time>
      </trkpt>
      <trkpt lat="43.14501" lon="3.11149">
        <ele>72.600189</ele>
        <time>2005-06-16T11:08:32Z</time>
      </trkpt>
      <trkpt lat="43.14515" lon="3.11155">
        <ele>73.399918</ele>
        <time>2005-06-16T11:08:32Z</time>
      </trkpt>
      <trkpt lat="43.14576" lon="3.11107">
        <ele>76.209755</ele>
        <time>2005-06-16T11:08:32Z</time>
      </trkpt>
      <trkpt lat="43.14641" lon="3.1104">
        <ele>80.140274</ele>
        <time>2005-06-16T11:08:32Z</time>
      </trkpt>
      <trkpt lat="43.1468" lon="3.11004">
        <ele>84.754967</ele>
        <time>2005-06-16T11:08:32Z</time>
      </trkpt>
      <trkpt lat="43.14714" lon="3.10986">
        <ele>87.260078</ele>
        <time>2005-06-16T11:08:32Z</time>
      </trkpt>
      <trkpt lat="43.14725" lon="3.10992">
        <ele>87.075287</ele>
        <time>2005-06-16T11:08:32Z</time>
      </trkpt>
      <trkpt lat="43.14704" lon="3.11041">
        <ele>82.660072</ele>
        <time>2005-06-16T11:08:32Z</time>
      </trkpt>
      <trkpt lat="43.14677" lon="3.1108">
        <ele>79.96991</ele>
        <time>2005-06-16T11:08:32Z</time>
      </trkpt>
      <trkpt lat="43.14654" lon="3.11126">
        <ele>75.380661</ele>
        <time>2005-06-16T11:08:32Z</time>
      </trkpt>
      <trkpt lat="43.14607" lon="3.11172">
        <ele>73.220238</ele>
        <time>2005-06-16T11:08:32Z</time>
      </trkpt>
      <trkpt lat="43.14543" lon="3.11229">
        <ele>72.969856</ele>
        <time>2005-06-16T11:08:32Z</time>
      </trkpt>
      <trkpt lat="43.14514" lon="3.1125">
        <ele>72.375114</ele>
        <time>2005-06-16T11:08:32Z</time>
      </trkpt>
      <trkpt lat="43.1448" lon="3.11286">
        <ele>70.912727</ele>
        <time>2005-06-16T11:08:32Z</time>
      </trkpt>
      <trkpt lat="43.14448" lon="3.11338">
        <ele>71.259453</ele>
        <time>2005-06-16T11:08:32Z</time>
      </trkpt>
      <trkpt lat="43.14435" lon="3.11359">
        <ele>70.399895</ele>
        <time>2005-06-16T11:08:32Z</time>
      </trkpt>
      <trkpt lat="43.14399" lon="3.11365">
        <ele>68.599899</ele>
        <time>2005-06-16T11:08:32Z</time>
      </trkpt>
      <trkpt lat="43.14363" lon="3.11377">
        <ele>66.599922</ele>
        <time>2005-06-16T11:08:32Z</time>
      </trkpt>
      <trkpt lat="43.1434" lon="3.11395">
        <ele>65.552544</ele>
        <time>2005-06-16T11:08:32Z</time>
      </trkpt>
      <trkpt lat="43.14304" lon="3.1144">
        <ele>64.850067</ele>
        <time>2005-06-16T11:08:32Z</time>
      </trkpt>
      <trkpt lat="43.1427" lon="3.11517">
        <ele>63.850056</ele>
        <time>2005-06-16T11:08:32Z</time>
      </trkpt>
      <trkpt lat="43.14263" lon="3.11544">
        <ele>63.329849</ele>
        <time>2005-06-16T11:08:32Z</time>
      </trkpt>
      <trkpt lat="43.14278" lon="3.11655">
        <ele>61.240036</ele>
        <time>2005-06-16T11:08:32Z</time>
      </trkpt>
      <trkpt lat="43.14286" lon="3.11692">
        <ele>59.500084</ele>
        <time>2005-06-16T11:08:32Z</time>
      </trkpt>
      <trkpt lat="43.14306" lon="3.1172">
        <ele>57.767956</ele>
        <time>2005-06-16T11:08:32Z</time>
      </trkpt>
      <trkpt lat="43.14324" lon="3.11787">
        <ele>55.667648</ele>
        <time>2005-06-16T11:08:32Z</time>
      </trkpt>
      <trkpt lat="43.14339" lon="3.11827">
        <ele>50.940975</ele>
        <time>2005-06-16T11:08:32Z</time>
      </trkpt>
      <trkpt lat="43.14348" lon="3.11855">
        <ele>47.408909</ele>
        <time>2005-06-16T11:08:32Z</time>
      </trkpt>
      <trkpt lat="43.14352" lon="3.11944">
        <ele>50.100327</ele>
        <time>2005-06-16T11:08:32Z</time>
      </trkpt>
      <trkpt lat="43.14405" lon="3.12065">
        <ele>46.360645</ele>
        <time>2005-06-16T11:08:32Z</time>
      </trkpt>
      <trkpt lat="43.1442" lon="3.12089">
        <ele>42.436192</ele>
        <time>2005-06-16T11:08:32Z</time>
      </trkpt>
      <trkpt lat="43.14463" lon="3.1213">
        <ele>36.449673</ele>
        <time>2005-06-16T11:08:32Z</time>
      </trkpt>
      <trkpt lat="43.14472" lon="3.12148">
        <ele>35.139641</ele>
        <time>2005-06-16T11:08:32Z</time>
      </trkpt>
      <trkpt lat="43.14508" lon="3.12149">
        <ele>35.199673</ele>
        <time>2005-06-16T11:08:32Z</time>
      </trkpt>
      <trkpt lat="43.1453" lon="3.1218">
        <ele>34.499947</ele>
        <time>2005-06-16T11:08:32Z</time>
      </trkpt>
      <trkpt lat="43.14547" lon="3.12235">
        <ele>34.079639</ele>
        <time>2005-06-16T11:08:32Z</time>
      </trkpt>
      <trkpt lat="43.14554" lon="3.12287">
        <ele>32.677525</ele>
        <time>2005-06-16T11:08:32Z</time>
      </trkpt>
      <trkpt lat="43.14574" lon="3.12343">
        <ele>33.450047</ele>
        <time>2005-06-16T11:08:32Z</time>
      </trkpt>
      <trkpt lat="43.14577" lon="3.12423">
        <ele>32.650326</ele>
        <time>2005-06-16T11:08:32Z</time>
      </trkpt>
      <trkpt lat="43.1457" lon="3.12447">
        <ele>31.262474</ele>
        <time>2005-06-16T11:08:32Z</time>
      </trkpt>
      <trkpt lat="43.14564" lon="3.12472">
        <ele>29.829966</ele>
        <time>2005-06-16T11:08:32Z</time>
      </trkpt>
      <trkpt lat="43.14585" lon="3.12607">
        <ele>26.145084</ele>
        <time>2005-06-16T11:08:32Z</time>
      </trkpt>
      <trkpt lat="43.14562" lon="3.1264">
        <ele>27.240826</ele>
        <time>2005-06-16T11:08:32Z</time>
      </trkpt>
      <trkpt lat="43.1456" lon="3.12699">
        <ele>32.636078</ele>
        <time>2005-06-16T11:08:32Z</time>
      </trkpt>
      <trkpt lat="43.14577" lon="3.12729">
        <ele>32.13446</ele>
        <time>2005-06-16T11:08:32Z</time>
      </trkpt>
      <trkpt lat="43.14624" lon="3.12758">
        <ele>26.94113</ele>
        <time>2005-06-16T11:08:32Z</time>
      </trkpt>
      <trkpt lat="43.14642" lon="3.1281">
        <ele>30.978979</ele>
        <time>2005-06-16T11:08:32Z</time>
      </trkpt>
      <trkpt lat="43.14691" lon="3.12841">
        <ele>22.025393</ele>
        <time>2005-06-16T11:08:32Z</time>
      </trkpt>
      <trkpt lat="43.14707" lon="3.12869">
        <ele>19.710201</ele>
        <time>2005-06-16T11:08:32Z</time>
      </trkpt>
      <trkpt lat="43.14708" lon="3.12931">
        <ele>16.650045</ele>
        <time>2005-06-16T11:08:32Z</time>
      </trkpt>
      <trkpt lat="43.14686" lon="3.12952">
        <ele>19.718245</ele>
        <time>2005-06-16T11:08:32Z</time>
      </trkpt>
      <trkpt lat="43.1467" lon="3.12979">
        <ele>21.424467</ele>
        <time>2005-06-16T11:08:32Z</time>
      </trkpt>
      <trkpt lat="43.14659" lon="3.13185">
        <ele>8.462301</ele>
        <time>2005-06-16T11:08:32Z</time>
      </trkpt>
      <trkpt lat="43.14627" lon="3.13255">
        <ele>8.550025</ele>
        <time>2005-06-16T11:08:32Z</time>
      </trkpt>
      <trkpt lat="43.14587" lon="3.13309">
        <ele>8.755574</ele>
        <time>2005-06-16T11:08:32Z</time>
      </trkpt>
      <trkpt lat="43.14564" lon="3.1337">
        <ele>6.759671</ele>
        <time>2005-06-16T11:08:32Z</time>
      </trkpt>
      <trkpt lat="43.14534" lon="3.13404">
        <ele>5.079316</ele>
        <time>2005-06-16T11:08:32Z</time>
      </trkpt>
      <trkpt lat="43.14509" lon="3.13407">
        <ele>4.875118</ele>
        <time>2005-06-16T11:08:32Z</time>
      </trkpt>
      <trkpt lat="43.14476" lon="3.13385">
        <ele>4.900128</ele>
        <time>2005-06-16T11:08:32Z</time>
      </trkpt>
      <trkpt lat="43.14438" lon="3.13347">
        <ele>4.62224</ele>
        <time>2005-06-16T11:08:32Z</time>
      </trkpt>
      <trkpt lat="43.14304" lon="3.13309">
        <ele>3.194862</ele>
        <time>2005-06-16T11:08:32Z</time>
      </trkpt>
      <trkpt lat="43.1429" lon="3.1329">
        <ele>3</ele>
        <time>2005-06-16T11:08:32Z</time>
      </trkpt>
      <trkpt lat="43.14237" lon="3.13231">
        <ele>7.184714</ele>
        <time>2005-06-16T11:08:32Z</time>
      </trkpt>
      <trkpt lat="43.14203" lon="3.13218">
        <ele>7.460118</ele>
        <time>2005-06-16T11:08:32Z</time>
      </trkpt>
      <trkpt lat="43.14161" lon="3.13184">
        <ele>7.014771</ele>
        <time>2005-06-16T11:08:32Z</time>
      </trkpt>
      <trkpt lat="43.14168" lon="3.13147">
        <ele>10.400352</ele>
        <time>2005-06-16T11:08:32Z</time>
      </trkpt>
      <trkpt lat="43.14195" lon="3.13105">
        <ele>14.47982</ele>
        <time>2005-06-16T11:08:32Z</time>
      </trkpt>
      <trkpt lat="43.14254" lon="3.1298">
        <ele>21.000551</ele>
        <time>2005-06-16T11:08:32Z</time>
      </trkpt>
      <trkpt lat="43.14289" lon="3.12876">
        <ele>26.650314</ele>
        <time>2005-06-16T11:08:32Z</time>
      </trkpt>
      <trkpt lat="43.14289" lon="3.12845">
        <ele>28.249762</ele>
        <time>2005-06-16T11:08:32Z</time>
      </trkpt>
      <trkpt lat="43.14287" lon="3.12778">
        <ele>33.190136</ele>
        <time>2005-06-16T11:08:32Z</time>
      </trkpt>
      <trkpt lat="43.14297" lon="3.12701">
        <ele>34.150089</ele>
        <time>2005-06-16T11:08:32Z</time>
      </trkpt>
      <trkpt lat="43.14291" lon="3.1263">
        <ele>36.725281</ele>
        <time>2005-06-16T11:08:32Z</time>
      </trkpt>
      <trkpt lat="43.14279" lon="3.12667">
        <ele>37.149998</ele>
        <time>2005-06-16T11:08:32Z</time>
      </trkpt>
      <trkpt lat="43.14276" lon="3.12744">
        <ele>35.917747</ele>
        <time>2005-06-16T11:08:32Z</time>
      </trkpt>
      <trkpt lat="43.14276" lon="3.12765">
        <ele>35.025482</ele>
        <time>2005-06-16T11:08:32Z</time>
      </trkpt>
      <trkpt lat="43.14263" lon="3.12787">
        <ele>35.677284</ele>
        <time>2005-06-16T11:08:32Z</time>
      </trkpt>
      <trkpt lat="43.14224" lon="3.12795">
        <ele>40.199562</ele>
        <time>2005-06-16T11:08:32Z</time>
      </trkpt>
      <trkpt lat="43.14188" lon="3.12813">
        <ele>42.949463</ele>
        <time>2005-06-16T11:08:32Z</time>
      </trkpt>
      <trkpt lat="43.1417" lon="3.12807">
        <ele>44.980625</ele>
        <time>2005-06-16T11:08:32Z</time>
      </trkpt>
      <trkpt lat="43.14137" lon="3.1276">
        <ele>47.649754</ele>
        <time>2005-06-16T11:08:32Z</time>
      </trkpt>
      <trkpt lat="43.14126" lon="3.12714">
        <ele>49.630138</ele>
        <time>2005-06-16T11:08:32Z</time>
      </trkpt>
      <trkpt lat="43.14124" lon="3.1265">
        <ele>51.749832</ele>
        <time>2005-06-16T11:08:32Z</time>
      </trkpt>
      <trkpt lat="43.14113" lon="3.1264">
        <ele>51.60009</ele>
        <time>2005-06-16T11:08:32Z</time>
      </trkpt>
      <trkpt lat="43.14012" lon="3.12642">
        <ele>44.997925</ele>
        <time>2005-06-16T11:08:32Z</time>
      </trkpt>
      <trkpt lat="43.14012" lon="3.12593">
        <ele>45.000378</ele>
        <time>2005-06-16T11:08:32Z</time>
      </trkpt>
      <trkpt lat="43.14022" lon="3.12532">
        <ele>46.249847</ele>
        <time>2005-06-16T11:08:32Z</time>
      </trkpt>
      <trkpt lat="43.14035" lon="3.12501">
        <ele>47.474873</ele>
        <time>2005-06-16T11:08:32Z</time>
      </trkpt>
      <trkpt lat="43.14056" lon="3.12471">
        <ele>48.249775</ele>
        <time>2005-06-16T11:08:32Z</time>
      </trkpt>
      <trkpt lat="43.14061" lon="3.1244">
        <ele>46.400112</ele>
        <time>2005-06-16T11:08:32Z</time>
      </trkpt>
      <trkpt lat="43.14059" lon="3.12422">
        <ele>44.840458</ele>
        <time>2005-06-16T11:08:32Z</time>
      </trkpt>
      <trkpt lat="43.14012" lon="3.12363">
        <ele>42.000099</ele>
        <time>2005-06-16T11:08:32Z</time>
      </trkpt>
      <trkpt lat="43.13972" lon="3.12338">
        <ele>41.240116</ele>
        <time>2005-06-16T11:08:32Z</time>
      </trkpt>
      <trkpt lat="43.13954" lon="3.1231">
        <ele>43.020359</ele>
        <time>2005-06-16T11:08:32Z</time>
      </trkpt>
      <trkpt lat="43.13968" lon="3.12215">
        <ele>49.000195</ele>
        <time>2005-06-16T11:08:32Z</time>
      </trkpt>
      <trkpt lat="43.13989" lon="3.1209">
        <ele>53.705193</ele>
        <time>2005-06-16T11:08:32Z</time>
      </trkpt>
      <trkpt lat="43.1401" lon="3.12032">
        <ele>55.720268</ele>
        <time>2005-06-16T11:08:32Z</time>
      </trkpt>
      <trkpt lat="43.14017" lon="3.11992">
        <ele>56.973053</ele>
        <time>2005-06-16T11:08:32Z</time>
      </trkpt>
      <trkpt lat="43.13999" lon="3.11927">
        <ele>54.695107</ele>
        <time>2005-06-16T11:08:32Z</time>
      </trkpt>
      <trkpt lat="43.13938" lon="3.11969">
        <ele>53.680687</ele>
        <time>2005-06-16T11:08:32Z</time>
      </trkpt>
      <trkpt lat="43.13875" lon="3.12088">
        <ele>47.80027</ele>
        <time>2005-06-16T11:08:32Z</time>
      </trkpt>
      <trkpt lat="43.13845" lon="3.12124">
        <ele>46.011711</ele>
        <time>2005-06-16T11:08:32Z</time>
      </trkpt>
      <trkpt lat="43.13809" lon="3.12158">
        <ele>43.835205</ele>
        <time>2005-06-16T11:08:32Z</time>
      </trkpt>
      <trkpt lat="43.13768" lon="3.12182">
        <ele>42.544659</ele>
        <time>2005-06-16T11:08:32Z</time>
      </trkpt>
      <trkpt lat="43.13743" lon="3.12206">
        <ele>41.750305</ele>
        <time>2005-06-16T11:08:32Z</time>
      </trkpt>
      <trkpt lat="43.13705" lon="3.12273">
        <ele>39.51009</ele>
        <time>2005-06-16T11:08:32Z</time>
      </trkpt>
      <trkpt lat="43.13661" lon="3.12349">
        <ele>38.260231</ele>
        <time>2005-06-16T11:08:32Z</time>
      </trkpt>
      <trkpt lat="43.13648" lon="3.1237">
        <ele>38.359806</ele>
        <time>2005-06-16T11:08:32Z</time>
      </trkpt>
      <trkpt lat="43.13587" lon="3.12425">
        <ele>35.454979</ele>
        <time>2005-06-16T11:08:32Z</time>
      </trkpt>
      <trkpt lat="43.13551" lon="3.1247">
        <ele>32.062527</ele>
        <time>2005-06-16T11:08:32Z</time>
      </trkpt>
      <trkpt lat="43.13528" lon="3.12503">
        <ele>29.699797</ele>
        <time>2005-06-16T11:08:32Z</time>
      </trkpt>
      <trkpt lat="43.13476" lon="3.12549">
        <ele>25.110367</ele>
        <time>2005-06-16T11:08:32Z</time>
      </trkpt>
      <trkpt lat="43.13433" lon="3.1256">
        <ele>20.744886</ele>
        <time>2005-06-16T11:08:32Z</time>
      </trkpt>
      <trkpt lat="43.13397" lon="3.12538">
        <ele>17.549503</ele>
        <time>2005-06-16T11:08:32Z</time>
      </trkpt>
      <trkpt lat="43.13354" lon="3.12581">
        <ele>12.760361</ele>
        <time>2005-06-16T11:08:32Z</time>
      </trkpt>
      <trkpt lat="43.13325" lon="3.12611">
        <ele>9.799902</ele>
        <time>2005-06-16T11:08:32Z</time>
      </trkpt>
      <trkpt lat="43.13284" lon="3.12611">
        <ele>5.690457</ele>
        <time>2005-06-16T11:08:32Z</time>
      </trkpt>
      <trkpt lat="43.13283" lon="3.12561">
        <ele>7.119997</ele>
        <time>2005-06-16T11:08:32Z</time>
      </trkpt>
      <trkpt lat="43.13269" lon="3.12531">
        <ele>5.400054</ele>
        <time>2005-06-16T11:08:32Z</time>
      </trkpt>
      <trkpt lat="43.13218" lon="3.12499">
        <ele>7.259754</ele>
        <time>2005-06-16T11:08:32Z</time>
      </trkpt>
      <trkpt lat="43.13176" lon="3.12459">
        <ele>7.124601</ele>
        <time>2005-06-16T11:08:32Z</time>
      </trkpt>
      <trkpt lat="43.13138" lon="3.12431">
        <ele>7.974874</ele>
        <time>2005-06-16T11:08:32Z</time>
      </trkpt>
      <trkpt lat="43.13111" lon="3.1239">
        <ele>9.84548</ele>
        <time>2005-06-16T11:08:32Z</time>
      </trkpt>
      <trkpt lat="43.13022" lon="3.12527">
        <ele>4.550024</ele>
        <time>2005-06-16T11:08:32Z</time>
      </trkpt>
      <trkpt lat="43.12995" lon="3.12582">
        <ele>4.200075</ele>
        <time>2005-06-16T11:08:32Z</time>
      </trkpt>
      <trkpt lat="43.12951" lon="3.12689">
        <ele>3.449935</ele>
        <time>2005-06-16T11:08:32Z</time>
      </trkpt>
      <trkpt lat="43.1294" lon="3.12701">
        <ele>3.249964</ele>
        <time>2005-06-16T11:08:32Z</time>
      </trkpt>
      <trkpt lat="43.12554" lon="3.12119">
        <ele>2</ele>
        <time>2005-06-16T11:08:32Z</time>
      </trkpt>
      <trkpt lat="43.12178" lon="3.11541">
        <ele>3</ele>
        <time>2005-06-16T11:08:32Z</time>
      </trkpt>
      <trkpt lat="43.11989" lon="3.11241">
        <ele>3</ele>
        <time>2005-06-16T11:08:32Z</time>
      </trkpt>
      <trkpt lat="43.11952" lon="3.11163">
        <ele>3</ele>
        <time>2005-06-16T11:08:32Z</time>
      </trkpt>
      <trkpt lat="43.1195" lon="3.11117">
        <ele>3</ele>
        <time>2005-06-16T11:08:32Z</time>
      </trkpt>
      <trkpt lat="43.11928" lon="3.11077">
        <ele>3</ele>
        <time>2005-06-16T11:08:32Z</time>
      </trkpt>
      <trkpt lat="43.11875" lon="3.10899">
        <ele>3</ele>
        <time>2005-06-16T11:08:32Z</time>
      </trkpt>
      <trkpt lat="43.11865" lon="3.10794">
        <ele>3</ele>
        <time>2005-06-16T11:08:32Z</time>
      </trkpt>
      <trkpt lat="43.11865" lon="3.10699">
        <ele>3</ele>
        <time>2005-06-16T11:08:32Z</time>
      </trkpt>
      <trkpt lat="43.11881" lon="3.1065">
        <ele>3</ele>
        <time>2005-06-16T11:08:32Z</time>
      </trkpt>
      <trkpt lat="43.11906" lon="3.10611">
        <ele>3</ele>
        <time>2005-06-16T11:08:32Z</time>
      </trkpt>
      <trkpt lat="43.11925" lon="3.10553">
        <ele>3.037501</ele>
        <time>2005-06-16T11:08:32Z</time>
      </trkpt>
      <trkpt lat="43.11934" lon="3.10495">
        <ele>3.949898</ele>
        <time>2005-06-16T11:08:32Z</time>
      </trkpt>
      <trkpt lat="43.11926" lon="3.10442">
        <ele>3.749958</ele>
        <time>2005-06-16T11:08:32Z</time>
      </trkpt>
      <trkpt lat="43.11926" lon="3.104">
        <ele>3.750027</ele>
        <time>2005-06-16T11:08:32Z</time>
      </trkpt>
      <trkpt lat="43.1203" lon="3.10214">
        <ele>5.030027</ele>
        <time>2005-06-16T11:08:32Z</time>
      </trkpt>
      <trkpt lat="43.12004" lon="3.10189">
        <ele>5</ele>
        <time>2005-06-16T11:08:32Z</time>
      </trkpt>
      <trkpt lat="43.1194" lon="3.10296">
        <ele>4.012507</ele>
        <time>2005-06-16T11:08:32Z</time>
      </trkpt>
      <trkpt lat="43.11861" lon="3.10386">
        <ele>3</ele>
        <time>2005-06-16T11:08:32Z</time>
      </trkpt>
      <trkpt lat="43.11784" lon="3.10413">
        <ele>2.179961</ele>
        <time>2005-06-16T11:08:32Z</time>
      </trkpt>
      <trkpt lat="43.11704" lon="3.10363">
        <ele>2.079987</ele>
        <time>2005-06-16T11:08:32Z</time>
      </trkpt>
      <trkpt lat="43.11639" lon="3.10328">
        <ele>2</ele>
        <time>2005-06-16T11:08:32Z</time>
      </trkpt>
      <trkpt lat="43.11613" lon="3.1015">
        <ele>2.750093</ele>
        <time>2005-06-16T11:08:32Z</time>
      </trkpt>
      <trkpt lat="43.11567" lon="3.10045">
        <ele>1.925007</ele>
        <time>2005-06-16T11:08:32Z</time>
      </trkpt>
      <trkpt lat="43.11537" lon="3.0979">
        <ele>2.000064</ele>
        <time>2005-06-16T11:08:32Z</time>
      </trkpt>
      <trkpt lat="43.1154" lon="3.09628">
        <ele>2.049913</ele>
        <time>2005-06-16T11:08:32Z</time>
      </trkpt>
      <trkpt lat="43.11554" lon="3.09597">
        <ele>2.350079</ele>
        <time>2005-06-16T11:08:32Z</time>
      </trkpt>
      <trkpt lat="43.1155" lon="3.09554">
        <ele>2.250043</ele>
        <time>2005-06-16T11:08:32Z</time>
      </trkpt>
      <trkpt lat="43.11568" lon="3.09503">
        <ele>2.649913</ele>
        <time>2005-06-16T11:08:32Z</time>
      </trkpt>
      <trkpt lat="43.11562" lon="3.09457">
        <ele>2.499983</ele>
        <time>2005-06-16T11:08:32Z</time>
      </trkpt>
      <trkpt lat="43.11451" lon="3.09305">
        <ele>1.999936</ele>
        <time>2005-06-16T11:08:32Z</time>
      </trkpt>
      <trkpt lat="43.11449" lon="3.09253">
        <ele>1.807507</ele>
        <time>2005-06-16T11:08:32Z</time>
      </trkpt>
      <trkpt lat="43.11431" lon="3.09222">
        <ele>1.192461</ele>
        <time>2005-06-16T11:08:32Z</time>
      </trkpt>
      <trkpt lat="43.11393" lon="3.09194">
        <ele>0.630082</ele>
        <time>2005-06-16T11:08:32Z</time>
      </trkpt>
      <trkpt lat="43.11297" lon="3.0915">
        <ele>0.450033</ele>
        <time>2005-06-16T11:08:32Z</time>
      </trkpt>
      <trkpt lat="43.11093" lon="3.09086">
        <ele>1.200001</ele>
        <time>2005-06-16T11:08:32Z</time>
      </trkpt>
      <trkpt lat="43.10956" lon="3.09032">
        <ele>0.03243</ele>
        <time>2005-06-16T11:08:32Z</time>
      </trkpt>
      <trkpt lat="43.10842" lon="3.0899">
        <ele>0.27998</ele>
        <time>2005-06-16T11:08:32Z</time>
      </trkpt>
    </trkseg>
  </trk>
  <trk>
    <name><![CDATA[03 Les Caunes - TraceGps issued]]></name>
    <extensions>
      <line xmlns="http://www.topografix.com/GPX/gpx_style/0/2">
        <color>FFFF00</color>
        <width>4</width>
      </line>
    </extensions>
    <trkseg>
      <trkpt lat="43.10844" lon="3.0899">
        <ele>0.300725</ele>
        <time>2010-10-20T15:02:59Z</time>
      </trkpt>
      <trkpt lat="43.10872" lon="3.09">
        <ele>0.850004</ele>
        <time>2010-10-20T15:02:59Z</time>
      </trkpt>
      <trkpt lat="43.10905" lon="3.09013">
        <ele>0.949951</ele>
        <time>2010-10-20T15:02:59Z</time>
      </trkpt>
      <trkpt lat="43.10942" lon="3.09026">
        <ele>0.276634</ele>
        <time>2010-10-20T15:02:59Z</time>
      </trkpt>
      <trkpt lat="43.10974" lon="3.0904">
        <ele>0.170585</ele>
        <time>2010-10-20T15:02:59Z</time>
      </trkpt>
      <trkpt lat="43.11011" lon="3.09051">
        <ele>0.662441</ele>
        <time>2010-10-20T15:02:59Z</time>
      </trkpt>
      <trkpt lat="43.11056" lon="3.0907">
        <ele>0.962434</ele>
        <time>2010-10-20T15:02:59Z</time>
      </trkpt>
      <trkpt lat="43.11092" lon="3.09083">
        <ele>1.162564</ele>
        <time>2010-10-20T15:02:59Z</time>
      </trkpt>
      <trkpt lat="43.11132" lon="3.09099">
        <ele>1.412456</ele>
        <time>2010-10-20T15:02:59Z</time>
      </trkpt>
      <trkpt lat="43.11162" lon="3.0911">
        <ele>1.587473</ele>
        <time>2010-10-20T15:02:59Z</time>
      </trkpt>
      <trkpt lat="43.11197" lon="3.09124">
        <ele>1.548515</ele>
        <time>2010-10-20T15:02:59Z</time>
      </trkpt>
      <trkpt lat="43.1125" lon="3.09144">
        <ele>1</ele>
        <time>2010-10-20T15:02:59Z</time>
      </trkpt>
      <trkpt lat="43.11291" lon="3.0916">
        <ele>0.587493</ele>
        <time>2010-10-20T15:02:59Z</time>
      </trkpt>
      <trkpt lat="43.11329" lon="3.09177">
        <ele>1.4</ele>
        <time>2010-10-20T15:02:59Z</time>
      </trkpt>
      <trkpt lat="43.11381" lon="3.09197">
        <ele>0.403766</ele>
        <time>2010-10-20T15:02:59Z</time>
      </trkpt>
      <trkpt lat="43.11404" lon="3.09207">
        <ele>0.949926</ele>
        <time>2010-10-20T15:02:59Z</time>
      </trkpt>
      <trkpt lat="43.11424" lon="3.09237">
        <ele>1.232466</ele>
        <time>2010-10-20T15:02:59Z</time>
      </trkpt>
      <trkpt lat="43.11432" lon="3.09268">
        <ele>1.587435</ele>
        <time>2010-10-20T15:02:59Z</time>
      </trkpt>
      <trkpt lat="43.11433" lon="3.09305">
        <ele>1.612469</ele>
        <time>2010-10-20T15:02:59Z</time>
      </trkpt>
      <trkpt lat="43.11459" lon="3.09342">
        <ele>2</ele>
        <time>2010-10-20T15:02:59Z</time>
      </trkpt>
      <trkpt lat="43.11498" lon="3.09389">
        <ele>2</ele>
        <time>2010-10-20T15:02:59Z</time>
      </trkpt>
      <trkpt lat="43.1153" lon="3.0943">
        <ele>2</ele>
        <time>2010-10-20T15:02:59Z</time>
      </trkpt>
      <trkpt lat="43.11548" lon="3.09453">
        <ele>2.187606</ele>
        <time>2010-10-20T15:02:59Z</time>
      </trkpt>
      <trkpt lat="43.11557" lon="3.09476">
        <ele>2.39992</ele>
        <time>2010-10-20T15:02:59Z</time>
      </trkpt>
      <trkpt lat="43.11561" lon="3.09495">
        <ele>2.487529</ele>
        <time>2010-10-20T15:02:59Z</time>
      </trkpt>
      <trkpt lat="43.1156" lon="3.0952">
        <ele>2.475033</ele>
        <time>2010-10-20T15:02:59Z</time>
      </trkpt>
      <trkpt lat="43.11547" lon="3.09557">
        <ele>2.187402</ele>
        <time>2010-10-20T15:02:59Z</time>
      </trkpt>
      <trkpt lat="43.11537" lon="3.09585">
        <ele>2</ele>
        <time>2010-10-20T15:02:59Z</time>
      </trkpt>
      <trkpt lat="43.11536" lon="3.09612">
        <ele>2</ele>
        <time>2010-10-20T15:02:59Z</time>
      </trkpt>
      <trkpt lat="43.11537" lon="3.09655">
        <ele>1.990001</ele>
        <time>2010-10-20T15:02:59Z</time>
      </trkpt>
      <trkpt lat="43.11535" lon="3.09701">
        <ele>1.950076</ele>
        <time>2010-10-20T15:02:59Z</time>
      </trkpt>
      <trkpt lat="43.11538" lon="3.09757">
        <ele>2.012553</ele>
        <time>2010-10-20T15:02:59Z</time>
      </trkpt>
      <trkpt lat="43.11542" lon="3.09801">
        <ele>2.112403</ele>
        <time>2010-10-20T15:02:59Z</time>
      </trkpt>
      <trkpt lat="43.11547" lon="3.09862">
        <ele>1.475053</ele>
        <time>2010-10-20T15:02:59Z</time>
      </trkpt>
      <trkpt lat="43.11553" lon="3.09913">
        <ele>1.374968</ele>
        <time>2010-10-20T15:02:59Z</time>
      </trkpt>
      <trkpt lat="43.11559" lon="3.09963">
        <ele>1.512414</ele>
        <time>2010-10-20T15:02:59Z</time>
      </trkpt>
      <trkpt lat="43.11565" lon="3.10009">
        <ele>1.717252</ele>
        <time>2010-10-20T15:02:59Z</time>
      </trkpt>
      <trkpt lat="43.11573" lon="3.1005">
        <ele>1.971587</ele>
        <time>2010-10-20T15:02:59Z</time>
      </trkpt>
      <trkpt lat="43.1158" lon="3.10077">
        <ele>2.000109</ele>
        <time>2010-10-20T15:02:59Z</time>
      </trkpt>
      <trkpt lat="43.11597" lon="3.10115">
        <ele>2.374948</ele>
        <time>2010-10-20T15:02:59Z</time>
      </trkpt>
      <trkpt lat="43.11608" lon="3.10144">
        <ele>2.637586</ele>
        <time>2010-10-20T15:02:59Z</time>
      </trkpt>
      <trkpt lat="43.11618" lon="3.10164">
        <ele>2.850012</ele>
        <time>2010-10-20T15:02:59Z</time>
      </trkpt>
      <trkpt lat="43.11623" lon="3.10203">
        <ele>2.991448</ele>
        <time>2010-10-20T15:02:59Z</time>
      </trkpt>
      <trkpt lat="43.1163" lon="3.10248">
        <ele>2.950028</ele>
        <time>2010-10-20T15:02:59Z</time>
      </trkpt>
      <trkpt lat="43.11636" lon="3.10282">
        <ele>2.399956</ele>
        <time>2010-10-20T15:02:59Z</time>
      </trkpt>
      <trkpt lat="43.11638" lon="3.10314">
        <ele>2</ele>
        <time>2010-10-20T15:02:59Z</time>
      </trkpt>
      <trkpt lat="43.11641" lon="3.10326">
        <ele>2</ele>
        <time>2010-10-20T15:02:59Z</time>
      </trkpt>
      <trkpt lat="43.11652" lon="3.10332">
        <ele>2</ele>
        <time>2010-10-20T15:02:59Z</time>
      </trkpt>
      <trkpt lat="43.1168" lon="3.1034">
        <ele>2.127212</ele>
        <time>2010-10-20T15:02:59Z</time>
      </trkpt>
      <trkpt lat="43.11698" lon="3.1035">
        <ele>2.210888</ele>
        <time>2010-10-20T15:02:59Z</time>
      </trkpt>
      <trkpt lat="43.11719" lon="3.10363">
        <ele>2.100015</ele>
        <time>2010-10-20T15:02:59Z</time>
      </trkpt>
      <trkpt lat="43.11741" lon="3.1038">
        <ele>2</ele>
        <time>2010-10-20T15:02:59Z</time>
      </trkpt>
      <trkpt lat="43.11763" lon="3.104">
        <ele>2.064043</ele>
        <time>2010-10-20T15:02:59Z</time>
      </trkpt>
      <trkpt lat="43.11781" lon="3.10409">
        <ele>2.190305</ele>
        <time>2010-10-20T15:02:59Z</time>
      </trkpt>
      <trkpt lat="43.11802" lon="3.10413">
        <ele>2.296261</ele>
        <time>2010-10-20T15:02:59Z</time>
      </trkpt>
      <trkpt lat="43.11818" lon="3.10413">
        <ele>2.553154</ele>
        <time>2010-10-20T15:02:59Z</time>
      </trkpt>
      <trkpt lat="43.1183" lon="3.10405">
        <ele>2.789113</ele>
        <time>2010-10-20T15:02:59Z</time>
      </trkpt>
      <trkpt lat="43.11851" lon="3.10392">
        <ele>3</ele>
        <time>2010-10-20T15:02:59Z</time>
      </trkpt>
      <trkpt lat="43.11864" lon="3.10378">
        <ele>3</ele>
        <time>2010-10-20T15:02:59Z</time>
      </trkpt>
      <trkpt lat="43.11883" lon="3.1036">
        <ele>3.149921</ele>
        <time>2010-10-20T15:02:59Z</time>
      </trkpt>
      <trkpt lat="43.11904" lon="3.10339">
        <ele>3.653146</ele>
        <time>2010-10-20T15:02:59Z</time>
      </trkpt>
      <trkpt lat="43.1192" lon="3.10314">
        <ele>3.97497</ele>
        <time>2010-10-20T15:02:59Z</time>
      </trkpt>
      <trkpt lat="43.11937" lon="3.10293">
        <ele>4</ele>
        <time>2010-10-20T15:02:59Z</time>
      </trkpt>
      <trkpt lat="43.11955" lon="3.1027">
        <ele>4.248477</ele>
        <time>2010-10-20T15:02:59Z</time>
      </trkpt>
      <trkpt lat="43.11971" lon="3.10251">
        <ele>4.728203</ele>
        <time>2010-10-20T15:02:59Z</time>
      </trkpt>
      <trkpt lat="43.11993" lon="3.10212">
        <ele>5</ele>
        <time>2010-10-20T15:02:59Z</time>
      </trkpt>
      <trkpt lat="43.12013" lon="3.10181">
        <ele>5.091051</ele>
        <time>2010-10-20T15:02:59Z</time>
      </trkpt>
      <trkpt lat="43.1203" lon="3.10158">
        <ele>5.524591</ele>
        <time>2010-10-20T15:02:59Z</time>
      </trkpt>
      <trkpt lat="43.12046" lon="3.10135">
        <ele>5.929692</ele>
        <time>2010-10-20T15:02:59Z</time>
      </trkpt>
      <trkpt lat="43.12056" lon="3.10112">
        <ele>6.262448</ele>
        <time>2010-10-20T15:02:59Z</time>
      </trkpt>
      <trkpt lat="43.1206" lon="3.10106">
        <ele>6.362452</ele>
        <time>2010-10-20T15:02:59Z</time>
      </trkpt>
      <trkpt lat="43.12078" lon="3.1013">
        <ele>6.085267</ele>
        <time>2010-10-20T15:02:59Z</time>
      </trkpt>
      <trkpt lat="43.12087" lon="3.10143">
        <ele>6.2325</ele>
        <time>2010-10-20T15:02:59Z</time>
      </trkpt>
      <trkpt lat="43.12081" lon="3.10157">
        <ele>6.094043</ele>
        <time>2010-10-20T15:02:59Z</time>
      </trkpt>
      <trkpt lat="43.12055" lon="3.10191">
        <ele>5.585051</ele>
        <time>2010-10-20T15:02:59Z</time>
      </trkpt>
      <trkpt lat="43.12028" lon="3.10236">
        <ele>5</ele>
        <time>2010-10-20T15:02:59Z</time>
      </trkpt>
      <trkpt lat="43.12008" lon="3.10272">
        <ele>4.842482</ele>
        <time>2010-10-20T15:02:59Z</time>
      </trkpt>
      <trkpt lat="43.11984" lon="3.10314">
        <ele>4.037606</ele>
        <time>2010-10-20T15:02:59Z</time>
      </trkpt>
      <trkpt lat="43.11966" lon="3.10346">
        <ele>4</ele>
        <time>2010-10-20T15:02:59Z</time>
      </trkpt>
      <trkpt lat="43.11942" lon="3.10385">
        <ele>4</ele>
        <time>2010-10-20T15:02:59Z</time>
      </trkpt>
      <trkpt lat="43.11923" lon="3.10416">
        <ele>3.687483</ele>
        <time>2010-10-20T15:02:59Z</time>
      </trkpt>
      <trkpt lat="43.1191" lon="3.10445">
        <ele>3.399916</ele>
        <time>2010-10-20T15:02:59Z</time>
      </trkpt>
      <trkpt lat="43.11905" lon="3.10458">
        <ele>3.287562</ele>
        <time>2010-10-20T15:02:59Z</time>
      </trkpt>
      <trkpt lat="43.11907" lon="3.1047">
        <ele>3.337601</ele>
        <time>2010-10-20T15:02:59Z</time>
      </trkpt>
      <trkpt lat="43.11915" lon="3.1048">
        <ele>3.525078</ele>
        <time>2010-10-20T15:02:59Z</time>
      </trkpt>
      <trkpt lat="43.11941" lon="3.10484">
        <ele>4</ele>
        <time>2010-10-20T15:02:59Z</time>
      </trkpt>
      <trkpt lat="43.11976" lon="3.10507">
        <ele>3.976557</ele>
        <time>2010-10-20T15:02:59Z</time>
      </trkpt>
      <trkpt lat="43.12007" lon="3.10529">
        <ele>4</ele>
        <time>2010-10-20T15:02:59Z</time>
      </trkpt>
      <trkpt lat="43.12023" lon="3.10541">
        <ele>4</ele>
        <time>2010-10-20T15:02:59Z</time>
      </trkpt>
      <trkpt lat="43.12036" lon="3.10549">
        <ele>4.030947</ele>
        <time>2010-10-20T15:02:59Z</time>
      </trkpt>
      <trkpt lat="43.12062" lon="3.10559">
        <ele>4</ele>
        <time>2010-10-20T15:02:59Z</time>
      </trkpt>
      <trkpt lat="43.12087" lon="3.10564">
        <ele>4</ele>
        <time>2010-10-20T15:02:59Z</time>
      </trkpt>
      <trkpt lat="43.12122" lon="3.10572">
        <ele>4</ele>
        <time>2010-10-20T15:02:59Z</time>
      </trkpt>
      <trkpt lat="43.12137" lon="3.10578">
        <ele>4</ele>
        <time>2010-10-20T15:02:59Z</time>
      </trkpt>
      <trkpt lat="43.12164" lon="3.1059">
        <ele>4</ele>
        <time>2010-10-20T15:02:59Z</time>
      </trkpt>
      <trkpt lat="43.12178" lon="3.10599">
        <ele>4</ele>
        <time>2010-10-20T15:02:59Z</time>
      </trkpt>
      <trkpt lat="43.12185" lon="3.10601">
        <ele>4</ele>
        <time>2010-10-20T15:02:59Z</time>
      </trkpt>
      <trkpt lat="43.12199" lon="3.10582">
        <ele>4</ele>
        <time>2010-10-20T15:02:59Z</time>
      </trkpt>
      <trkpt lat="43.12212" lon="3.10567">
        <ele>4.017197</ele>
        <time>2010-10-20T15:02:59Z</time>
      </trkpt>
      <trkpt lat="43.12225" lon="3.10556">
        <ele>3.973475</ele>
        <time>2010-10-20T15:02:59Z</time>
      </trkpt>
      <trkpt lat="43.12236" lon="3.10545">
        <ele>3.828162</ele>
        <time>2010-10-20T15:02:59Z</time>
      </trkpt>
      <trkpt lat="43.12247" lon="3.10539">
        <ele>3.676314</ele>
        <time>2010-10-20T15:02:59Z</time>
      </trkpt>
      <trkpt lat="43.12276" lon="3.10529">
        <ele>3.775814</ele>
        <time>2010-10-20T15:02:59Z</time>
      </trkpt>
      <trkpt lat="43.12298" lon="3.1052">
        <ele>4.062472</ele>
        <time>2010-10-20T15:02:59Z</time>
      </trkpt>
      <trkpt lat="43.12314" lon="3.10516">
        <ele>4.412591</ele>
        <time>2010-10-20T15:02:59Z</time>
      </trkpt>
      <trkpt lat="43.12331" lon="3.10505">
        <ele>4.774969</ele>
        <time>2010-10-20T15:02:59Z</time>
      </trkpt>
      <trkpt lat="43.1235" lon="3.10494">
        <ele>5.637477</ele>
        <time>2010-10-20T15:02:59Z</time>
      </trkpt>
      <trkpt lat="43.12365" lon="3.1048">
        <ele>6.649682</ele>
        <time>2010-10-20T15:02:59Z</time>
      </trkpt>
      <trkpt lat="43.12376" lon="3.10468">
        <ele>7.324745</ele>
        <time>2010-10-20T15:02:59Z</time>
      </trkpt>
      <trkpt lat="43.12383" lon="3.10453">
        <ele>7.812311</ele>
        <time>2010-10-20T15:02:59Z</time>
      </trkpt>
      <trkpt lat="43.12391" lon="3.10436">
        <ele>8.399691</ele>
        <time>2010-10-20T15:02:59Z</time>
      </trkpt>
      <trkpt lat="43.12397" lon="3.10417">
        <ele>8.624754</ele>
        <time>2010-10-20T15:02:59Z</time>
      </trkpt>
      <trkpt lat="43.12397" lon="3.10417">
        <ele>8.574843</ele>
        <time>2010-10-20T15:02:59Z</time>
      </trkpt>
      <trkpt lat="43.12397" lon="3.10417">
        <ele>8.624754</ele>
        <time>2010-10-20T15:02:59Z</time>
      </trkpt>
      <trkpt lat="43.12399" lon="3.10402">
        <ele>8.537413</ele>
        <time>2010-10-20T15:02:59Z</time>
      </trkpt>
      <trkpt lat="43.12399" lon="3.1038">
        <ele>8.175012</ele>
        <time>2010-10-20T15:02:59Z</time>
      </trkpt>
      <trkpt lat="43.124" lon="3.10364">
        <ele>8.271508</ele>
        <time>2010-10-20T15:02:59Z</time>
      </trkpt>
      <trkpt lat="43.12403" lon="3.10355">
        <ele>8.640984</ele>
        <time>2010-10-20T15:02:59Z</time>
      </trkpt>
      <trkpt lat="43.12415" lon="3.10351">
        <ele>9.836802</ele>
        <time>2010-10-20T15:02:59Z</time>
      </trkpt>
      <trkpt lat="43.12431" lon="3.10335">
        <ele>11.653873</ele>
        <time>2010-10-20T15:02:59Z</time>
      </trkpt>
      <trkpt lat="43.12445" lon="3.10324">
        <ele>13.700424</ele>
        <time>2010-10-20T15:02:59Z</time>
      </trkpt>
      <trkpt lat="43.1247" lon="3.10307">
        <ele>17.222166</ele>
        <time>2010-10-20T15:02:59Z</time>
      </trkpt>
      <trkpt lat="43.12482" lon="3.103">
        <ele>18.750008</ele>
        <time>2010-10-20T15:02:59Z</time>
      </trkpt>
      <trkpt lat="43.12492" lon="3.10297">
        <ele>19.59901</ele>
        <time>2010-10-20T15:02:59Z</time>
      </trkpt>
      <trkpt lat="43.12502" lon="3.10291">
        <ele>20.644045</ele>
        <time>2010-10-20T15:02:59Z</time>
      </trkpt>
      <trkpt lat="43.12513" lon="3.10305">
        <ele>21.028212</ele>
        <time>2010-10-20T15:02:59Z</time>
      </trkpt>
      <trkpt lat="43.12511" lon="3.10325">
        <ele>20.299883</ele>
        <time>2010-10-20T15:02:59Z</time>
      </trkpt>
      <trkpt lat="43.12512" lon="3.10361">
        <ele>20.213655</ele>
        <time>2010-10-20T15:02:59Z</time>
      </trkpt>
      <trkpt lat="43.12509" lon="3.10396">
        <ele>19.950111</ele>
        <time>2010-10-20T15:02:59Z</time>
      </trkpt>
      <trkpt lat="43.12506" lon="3.10413">
        <ele>19.700418</ele>
        <time>2010-10-20T15:02:59Z</time>
      </trkpt>
      <trkpt lat="43.1251" lon="3.10425">
        <ele>20.049683</ele>
        <time>2010-10-20T15:02:59Z</time>
      </trkpt>
      <trkpt lat="43.12521" lon="3.10426">
        <ele>20.974903</ele>
        <time>2010-10-20T15:02:59Z</time>
      </trkpt>
      <trkpt lat="43.12535" lon="3.10425">
        <ele>20.406507</ele>
        <time>2010-10-20T15:02:59Z</time>
      </trkpt>
      <trkpt lat="43.12563" lon="3.10423">
        <ele>19.31275</ele>
        <time>2010-10-20T15:02:59Z</time>
      </trkpt>
      <trkpt lat="43.12566" lon="3.10434">
        <ele>18.500265</ele>
        <time>2010-10-20T15:02:59Z</time>
      </trkpt>
      <trkpt lat="43.12568" lon="3.10454">
        <ele>16.849577</ele>
        <time>2010-10-20T15:02:59Z</time>
      </trkpt>
      <trkpt lat="43.12568" lon="3.10475">
        <ele>15.541867</ele>
        <time>2010-10-20T15:02:59Z</time>
      </trkpt>
      <trkpt lat="43.1257" lon="3.10494">
        <ele>14.11611</ele>
        <time>2010-10-20T15:02:59Z</time>
      </trkpt>
      <trkpt lat="43.12581" lon="3.10508">
        <ele>12.408604</ele>
        <time>2010-10-20T15:02:59Z</time>
      </trkpt>
      <trkpt lat="43.12593" lon="3.10516">
        <ele>11.407614</ele>
        <time>2010-10-20T15:02:59Z</time>
      </trkpt>
      <trkpt lat="43.12603" lon="3.10523">
        <ele>10.896979</ele>
        <time>2010-10-20T15:02:59Z</time>
      </trkpt>
      <trkpt lat="43.12609" lon="3.10513">
        <ele>10.373697</ele>
        <time>2010-10-20T15:02:59Z</time>
      </trkpt>
      <trkpt lat="43.12626" lon="3.10496">
        <ele>11.525581</ele>
        <time>2010-10-20T15:02:59Z</time>
      </trkpt>
      <trkpt lat="43.12646" lon="3.10477">
        <ele>12.660098</ele>
        <time>2010-10-20T15:02:59Z</time>
      </trkpt>
      <trkpt lat="43.12667" lon="3.10461">
        <ele>13.468981</ele>
        <time>2010-10-20T15:02:59Z</time>
      </trkpt>
      <trkpt lat="43.12689" lon="3.10437">
        <ele>14.238947</ele>
        <time>2010-10-20T15:02:59Z</time>
      </trkpt>
      <trkpt lat="43.12711" lon="3.10415">
        <ele>15.383098</ele>
        <time>2010-10-20T15:02:59Z</time>
      </trkpt>
      <trkpt lat="43.12729" lon="3.10405">
        <ele>15.693271</ele>
        <time>2010-10-20T15:02:59Z</time>
      </trkpt>
      <trkpt lat="43.12749" lon="3.10387">
        <ele>15.265748</ele>
        <time>2010-10-20T15:02:59Z</time>
      </trkpt>
      <trkpt lat="43.1276" lon="3.10385">
        <ele>15.471594</ele>
        <time>2010-10-20T15:02:59Z</time>
      </trkpt>
      <trkpt lat="43.12778" lon="3.10384">
        <ele>15.785672</ele>
        <time>2010-10-20T15:02:59Z</time>
      </trkpt>
      <trkpt lat="43.12789" lon="3.10388">
        <ele>16.475952</ele>
        <time>2010-10-20T15:02:59Z</time>
      </trkpt>
      <trkpt lat="43.12803" lon="3.10413">
        <ele>19.20306</ele>
        <time>2010-10-20T15:02:59Z</time>
      </trkpt>
      <trkpt lat="43.12825" lon="3.10432">
        <ele>20.456215</ele>
        <time>2010-10-20T15:02:59Z</time>
      </trkpt>
      <trkpt lat="43.12842" lon="3.10446">
        <ele>20.791784</ele>
        <time>2010-10-20T15:02:59Z</time>
      </trkpt>
      <trkpt lat="43.12856" lon="3.10453">
        <ele>21.065239</ele>
        <time>2010-10-20T15:02:59Z</time>
      </trkpt>
      <trkpt lat="43.12873" lon="3.10457">
        <ele>20.822062</ele>
        <time>2010-10-20T15:02:59Z</time>
      </trkpt>
      <trkpt lat="43.12887" lon="3.10455">
        <ele>20.377699</ele>
        <time>2010-10-20T15:02:59Z</time>
      </trkpt>
      <trkpt lat="43.12904" lon="3.10436">
        <ele>19.79336</ele>
        <time>2010-10-20T15:02:59Z</time>
      </trkpt>
      <trkpt lat="43.12921" lon="3.10412">
        <ele>20.518806</ele>
        <time>2010-10-20T15:02:59Z</time>
      </trkpt>
      <trkpt lat="43.12934" lon="3.10398">
        <ele>20.935251</ele>
        <time>2010-10-20T15:02:59Z</time>
      </trkpt>
      <trkpt lat="43.12943" lon="3.10386">
        <ele>21.400026</ele>
        <time>2010-10-20T15:02:59Z</time>
      </trkpt>
      <trkpt lat="43.12963" lon="3.10383">
        <ele>21.875095</ele>
        <time>2010-10-20T15:02:59Z</time>
      </trkpt>
      <trkpt lat="43.1298" lon="3.10388">
        <ele>22.383514</ele>
        <time>2010-10-20T15:02:59Z</time>
      </trkpt>
      <trkpt lat="43.12999" lon="3.10409">
        <ele>22.810703</ele>
        <time>2010-10-20T15:02:59Z</time>
      </trkpt>
      <trkpt lat="43.13019" lon="3.1043">
        <ele>23.558905</ele>
        <time>2010-10-20T15:02:59Z</time>
      </trkpt>
      <trkpt lat="43.1305" lon="3.10457">
        <ele>25.426426</ele>
        <time>2010-10-20T15:02:59Z</time>
      </trkpt>
      <trkpt lat="43.13069" lon="3.10478">
        <ele>26.302517</ele>
        <time>2010-10-20T15:02:59Z</time>
      </trkpt>
      <trkpt lat="43.13092" lon="3.10503">
        <ele>26.815598</ele>
        <time>2010-10-20T15:02:59Z</time>
      </trkpt>
      <trkpt lat="43.13108" lon="3.10512">
        <ele>27.316252</ele>
        <time>2010-10-20T15:02:59Z</time>
      </trkpt>
      <trkpt lat="43.1313" lon="3.10515">
        <ele>28.381058</ele>
        <time>2010-10-20T15:02:59Z</time>
      </trkpt>
      <trkpt lat="43.13146" lon="3.10523">
        <ele>29.324787</ele>
        <time>2010-10-20T15:02:59Z</time>
      </trkpt>
      <trkpt lat="43.13165" lon="3.1054">
        <ele>30.301294</ele>
        <time>2010-10-20T15:02:59Z</time>
      </trkpt>
      <trkpt lat="43.13181" lon="3.10562">
        <ele>30.899359</ele>
        <time>2010-10-20T15:02:59Z</time>
      </trkpt>
      <trkpt lat="43.13186" lon="3.10589">
        <ele>31.830292</ele>
        <time>2010-10-20T15:02:59Z</time>
      </trkpt>
      <trkpt lat="43.13192" lon="3.10607">
        <ele>32.663586</ele>
        <time>2010-10-20T15:02:59Z</time>
      </trkpt>
      <trkpt lat="43.13206" lon="3.10642">
        <ele>34.100067</ele>
        <time>2010-10-20T15:02:59Z</time>
      </trkpt>
      <trkpt lat="43.13224" lon="3.10675">
        <ele>35.287609</ele>
        <time>2010-10-20T15:02:59Z</time>
      </trkpt>
      <trkpt lat="43.13247" lon="3.10703">
        <ele>36.427528</ele>
        <time>2010-10-20T15:02:59Z</time>
      </trkpt>
      <trkpt lat="43.13275" lon="3.10735">
        <ele>37.976746</ele>
        <time>2010-10-20T15:02:59Z</time>
      </trkpt>
      <trkpt lat="43.13301" lon="3.10764">
        <ele>39.417194</ele>
        <time>2010-10-20T15:02:59Z</time>
      </trkpt>
      <trkpt lat="43.13327" lon="3.10788">
        <ele>40.412804</ele>
        <time>2010-10-20T15:02:59Z</time>
      </trkpt>
      <trkpt lat="43.13357" lon="3.10809">
        <ele>40.77523</ele>
        <time>2010-10-20T15:02:59Z</time>
      </trkpt>
      <trkpt lat="43.13379" lon="3.10815">
        <ele>40.732338</ele>
        <time>2010-10-20T15:02:59Z</time>
      </trkpt>
      <trkpt lat="43.13402" lon="3.1082">
        <ele>40.979416</ele>
        <time>2010-10-20T15:02:59Z</time>
      </trkpt>
      <trkpt lat="43.13418" lon="3.10821">
        <ele>41.112225</ele>
        <time>2010-10-20T15:02:59Z</time>
      </trkpt>
      <trkpt lat="43.13434" lon="3.10829">
        <ele>42.574986</ele>
        <time>2010-10-20T15:02:59Z</time>
      </trkpt>
      <trkpt lat="43.13448" lon="3.10833">
        <ele>43.662399</ele>
        <time>2010-10-20T15:02:59Z</time>
      </trkpt>
      <trkpt lat="43.13459" lon="3.10832">
        <ele>44.337482</ele>
        <time>2010-10-20T15:02:59Z</time>
      </trkpt>
      <trkpt lat="43.13468" lon="3.10819">
        <ele>45.255436</ele>
        <time>2010-10-20T15:02:59Z</time>
      </trkpt>
      <trkpt lat="43.13473" lon="3.10799">
        <ele>45.397621</ele>
        <time>2010-10-20T15:02:59Z</time>
      </trkpt>
      <trkpt lat="43.1348" lon="3.10778">
        <ele>45.236416</ele>
        <time>2010-10-20T15:02:59Z</time>
      </trkpt>
      <trkpt lat="43.13487" lon="3.10758">
        <ele>44.627708</ele>
        <time>2010-10-20T15:02:59Z</time>
      </trkpt>
      <trkpt lat="43.1349" lon="3.10733">
        <ele>44.706093</ele>
        <time>2010-10-20T15:02:59Z</time>
      </trkpt>
      <trkpt lat="43.13495" lon="3.10704">
        <ele>44.96933</ele>
        <time>2010-10-20T15:02:59Z</time>
      </trkpt>
      <trkpt lat="43.13498" lon="3.10686">
        <ele>45.647457</ele>
        <time>2010-10-20T15:02:59Z</time>
      </trkpt>
      <trkpt lat="43.13498" lon="3.10671">
        <ele>46.173481</ele>
        <time>2010-10-20T15:02:59Z</time>
      </trkpt>
      <trkpt lat="43.13487" lon="3.10662">
        <ele>45.65799</ele>
        <time>2010-10-20T15:02:59Z</time>
      </trkpt>
      <trkpt lat="43.13472" lon="3.10667">
        <ele>44.269791</ele>
        <time>2010-10-20T15:02:59Z</time>
      </trkpt>
      <trkpt lat="43.13456" lon="3.10665">
        <ele>43.03466</ele>
        <time>2010-10-20T15:02:59Z</time>
      </trkpt>
      <trkpt lat="43.13445" lon="3.10659">
        <ele>42.283974</ele>
        <time>2010-10-20T15:02:59Z</time>
      </trkpt>
      <trkpt lat="43.13436" lon="3.10644">
        <ele>41.819706</ele>
        <time>2010-10-20T15:02:59Z</time>
      </trkpt>
      <trkpt lat="43.13417" lon="3.10619">
        <ele>40.562527</ele>
        <time>2010-10-20T15:02:59Z</time>
      </trkpt>
      <trkpt lat="43.13406" lon="3.10602">
        <ele>40.362564</ele>
        <time>2010-10-20T15:02:59Z</time>
      </trkpt>
      <trkpt lat="43.13394" lon="3.10582">
        <ele>40.187618</ele>
        <time>2010-10-20T15:02:59Z</time>
      </trkpt>
      <trkpt lat="43.13387" lon="3.10571">
        <ele>39.855103</ele>
        <time>2010-10-20T15:02:59Z</time>
      </trkpt>
      <trkpt lat="43.13375" lon="3.10555">
        <ele>39.058117</ele>
        <time>2010-10-20T15:02:59Z</time>
      </trkpt>
      <trkpt lat="43.13363" lon="3.10545">
        <ele>38.434898</ele>
        <time>2010-10-20T15:02:59Z</time>
      </trkpt>
      <trkpt lat="43.13353" lon="3.10543">
        <ele>37.886513</ele>
        <time>2010-10-20T15:02:59Z</time>
      </trkpt>
      <trkpt lat="43.1335" lon="3.1053">
        <ele>37.777069</ele>
        <time>2010-10-20T15:02:59Z</time>
      </trkpt>
      <trkpt lat="43.13345" lon="3.10512">
        <ele>37.683727</ele>
        <time>2010-10-20T15:02:59Z</time>
      </trkpt>
      <trkpt lat="43.13336" lon="3.10499">
        <ele>37.125973</ele>
        <time>2010-10-20T15:02:59Z</time>
      </trkpt>
      <trkpt lat="43.13341" lon="3.10489">
        <ele>37.260143</ele>
        <time>2010-10-20T15:02:59Z</time>
      </trkpt>
      <trkpt lat="43.13343" lon="3.10475">
        <ele>37.195259</ele>
        <time>2010-10-20T15:02:59Z</time>
      </trkpt>
      <trkpt lat="43.13337" lon="3.10457">
        <ele>36.560883</ele>
        <time>2010-10-20T15:02:59Z</time>
      </trkpt>
      <trkpt lat="43.13327" lon="3.10444">
        <ele>35.554276</ele>
        <time>2010-10-20T15:02:59Z</time>
      </trkpt>
      <trkpt lat="43.1332" lon="3.10432">
        <ele>34.685169</ele>
        <time>2010-10-20T15:02:59Z</time>
      </trkpt>
      <trkpt lat="43.13336" lon="3.10418">
        <ele>35.287506</ele>
        <time>2010-10-20T15:02:59Z</time>
      </trkpt>
      <trkpt lat="43.13352" lon="3.1041">
        <ele>36.087635</ele>
        <time>2010-10-20T15:02:59Z</time>
      </trkpt>
      <trkpt lat="43.13364" lon="3.10397">
        <ele>36.462719</ele>
        <time>2010-10-20T15:02:59Z</time>
      </trkpt>
      <trkpt lat="43.13377" lon="3.10388">
        <ele>36.897697</ele>
        <time>2010-10-20T15:02:59Z</time>
      </trkpt>
      <trkpt lat="43.13394" lon="3.10395">
        <ele>38.353405</ele>
        <time>2010-10-20T15:02:59Z</time>
      </trkpt>
      <trkpt lat="43.13405" lon="3.104">
        <ele>39.207478</ele>
        <time>2010-10-20T15:02:59Z</time>
      </trkpt>
      <trkpt lat="43.13417" lon="3.10422">
        <ele>40.362129</ele>
        <time>2010-10-20T15:02:59Z</time>
      </trkpt>
      <trkpt lat="43.13432" lon="3.1044">
        <ele>41.527496</ele>
        <time>2010-10-20T15:02:59Z</time>
      </trkpt>
      <trkpt lat="43.1345" lon="3.1045">
        <ele>42.914192</ele>
        <time>2010-10-20T15:02:59Z</time>
      </trkpt>
      <trkpt lat="43.13476" lon="3.10464">
        <ele>44.228085</ele>
        <time>2010-10-20T15:02:59Z</time>
      </trkpt>
      <trkpt lat="43.1349" lon="3.10477">
        <ele>44.84687</ele>
        <time>2010-10-20T15:02:59Z</time>
      </trkpt>
      <trkpt lat="43.13505" lon="3.10506">
        <ele>46.411736</ele>
        <time>2010-10-20T15:02:59Z</time>
      </trkpt>
      <trkpt lat="43.13518" lon="3.10533">
        <ele>47.758301</ele>
        <time>2010-10-20T15:02:59Z</time>
      </trkpt>
      <trkpt lat="43.13531" lon="3.10564">
        <ele>49.181202</ele>
        <time>2010-10-20T15:02:59Z</time>
      </trkpt>
      <trkpt lat="43.13543" lon="3.10595">
        <ele>50.10194</ele>
        <time>2010-10-20T15:02:59Z</time>
      </trkpt>
      <trkpt lat="43.13556" lon="3.10615">
        <ele>50.508465</ele>
        <time>2010-10-20T15:02:59Z</time>
      </trkpt>
      <trkpt lat="43.13572" lon="3.1064">
        <ele>50.904205</ele>
        <time>2010-10-20T15:02:59Z</time>
      </trkpt>
      <trkpt lat="43.13585" lon="3.10658">
        <ele>52.402584</ele>
        <time>2010-10-20T15:02:59Z</time>
      </trkpt>
      <trkpt lat="43.13593" lon="3.10677">
        <ele>54.1147</ele>
        <time>2010-10-20T15:02:59Z</time>
      </trkpt>
      <trkpt lat="43.13606" lon="3.10685">
        <ele>55.829559</ele>
        <time>2010-10-20T15:02:59Z</time>
      </trkpt>
      <trkpt lat="43.13619" lon="3.10681">
        <ele>56.778725</ele>
        <time>2010-10-20T15:02:59Z</time>
      </trkpt>
      <trkpt lat="43.13634" lon="3.10668">
        <ele>56.541962</ele>
        <time>2010-10-20T15:02:59Z</time>
      </trkpt>
      <trkpt lat="43.13656" lon="3.1065">
        <ele>56.018936</ele>
        <time>2010-10-20T15:02:59Z</time>
      </trkpt>
      <trkpt lat="43.13671" lon="3.10634">
        <ele>56.465912</ele>
        <time>2010-10-20T15:02:59Z</time>
      </trkpt>
      <trkpt lat="43.13686" lon="3.10616">
        <ele>56.849945</ele>
        <time>2010-10-20T15:02:59Z</time>
      </trkpt>
      <trkpt lat="43.13697" lon="3.106">
        <ele>55.684776</ele>
        <time>2010-10-20T15:02:59Z</time>
      </trkpt>
      <trkpt lat="43.13708" lon="3.10585">
        <ele>54.769386</ele>
        <time>2010-10-20T15:02:59Z</time>
      </trkpt>
      <trkpt lat="43.13719" lon="3.10575">
        <ele>54.744946</ele>
        <time>2010-10-20T15:02:59Z</time>
      </trkpt>
      <trkpt lat="43.13725" lon="3.10555">
        <ele>54.96936</ele>
        <time>2010-10-20T15:02:59Z</time>
      </trkpt>
      <trkpt lat="43.13732" lon="3.10533">
        <ele>55.013798</ele>
        <time>2010-10-20T15:02:59Z</time>
      </trkpt>
      <trkpt lat="43.1374" lon="3.10514">
        <ele>55</ele>
        <time>2010-10-20T15:02:59Z</time>
      </trkpt>
      <trkpt lat="43.13746" lon="3.10496">
        <ele>55</ele>
        <time>2010-10-20T15:02:59Z</time>
      </trkpt>
      <trkpt lat="43.1375" lon="3.10473">
        <ele>55</ele>
        <time>2010-10-20T15:02:59Z</time>
      </trkpt>
      <trkpt lat="43.13758" lon="3.10456">
        <ele>54.913605</ele>
        <time>2010-10-20T15:02:59Z</time>
      </trkpt>
      <trkpt lat="43.13763" lon="3.10439">
        <ele>53.998669</ele>
        <time>2010-10-20T15:02:59Z</time>
      </trkpt>
      <trkpt lat="43.13772" lon="3.10426">
        <ele>53.346123</ele>
        <time>2010-10-20T15:02:59Z</time>
      </trkpt>
      <trkpt lat="43.13781" lon="3.10414">
        <ele>52.926453</ele>
        <time>2010-10-20T15:02:59Z</time>
      </trkpt>
      <trkpt lat="43.13791" lon="3.10398">
        <ele>52.593391</ele>
        <time>2010-10-20T15:02:59Z</time>
      </trkpt>
      <trkpt lat="43.13802" lon="3.10386">
        <ele>52.499973</ele>
        <time>2010-10-20T15:02:59Z</time>
      </trkpt>
      <trkpt lat="43.13815" lon="3.10389">
        <ele>53.212509</ele>
        <time>2010-10-20T15:02:59Z</time>
      </trkpt>
      <trkpt lat="43.1383" lon="3.10394">
        <ele>53.868595</ele>
        <time>2010-10-20T15:02:59Z</time>
      </trkpt>
      <trkpt lat="43.13839" lon="3.10396">
        <ele>53.950169</ele>
        <time>2010-10-20T15:02:59Z</time>
      </trkpt>
      <trkpt lat="43.13853" lon="3.10388">
        <ele>53.829407</ele>
        <time>2010-10-20T15:02:59Z</time>
      </trkpt>
      <trkpt lat="43.13867" lon="3.10382">
        <ele>53.971924</ele>
        <time>2010-10-20T15:02:59Z</time>
      </trkpt>
      <trkpt lat="43.13883" lon="3.10373">
        <ele>54.753868</ele>
        <time>2010-10-20T15:02:59Z</time>
      </trkpt>
      <trkpt lat="43.13898" lon="3.10377">
        <ele>55.497978</ele>
        <time>2010-10-20T15:02:59Z</time>
      </trkpt>
      <trkpt lat="43.13912" lon="3.10375">
        <ele>56.285793</ele>
        <time>2010-10-20T15:02:59Z</time>
      </trkpt>
      <trkpt lat="43.1392" lon="3.1036">
        <ele>57.604214</ele>
        <time>2010-10-20T15:02:59Z</time>
      </trkpt>
      <trkpt lat="43.13928" lon="3.10346">
        <ele>59.356842</ele>
        <time>2010-10-20T15:02:59Z</time>
      </trkpt>
      <trkpt lat="43.13931" lon="3.10325">
        <ele>60.924366</ele>
        <time>2010-10-20T15:02:59Z</time>
      </trkpt>
      <trkpt lat="43.13933" lon="3.10301">
        <ele>62.40675</ele>
        <time>2010-10-20T15:02:59Z</time>
      </trkpt>
      <trkpt lat="43.13935" lon="3.10279">
        <ele>63.804932</ele>
        <time>2010-10-20T15:02:59Z</time>
      </trkpt>
      <trkpt lat="43.13935" lon="3.10268">
        <ele>63.62645</ele>
        <time>2010-10-20T15:02:59Z</time>
      </trkpt>
      <trkpt lat="43.13934" lon="3.10248">
        <ele>62.65197</ele>
        <time>2010-10-20T15:02:59Z</time>
      </trkpt>
      <trkpt lat="43.13931" lon="3.10237">
        <ele>61.656796</ele>
        <time>2010-10-20T15:02:59Z</time>
      </trkpt>
      <trkpt lat="43.13937" lon="3.10225">
        <ele>62.331474</ele>
        <time>2010-10-20T15:02:59Z</time>
      </trkpt>
      <trkpt lat="43.13947" lon="3.10216">
        <ele>63.77832</ele>
        <time>2010-10-20T15:02:59Z</time>
      </trkpt>
      <trkpt lat="43.1397" lon="3.10195">
        <ele>66.522545</ele>
        <time>2010-10-20T15:02:59Z</time>
      </trkpt>
      <trkpt lat="43.13984" lon="3.10179">
        <ele>67.180313</ele>
        <time>2010-10-20T15:02:59Z</time>
      </trkpt>
      <trkpt lat="43.13991" lon="3.10169">
        <ele>66.754707</ele>
        <time>2010-10-20T15:02:59Z</time>
      </trkpt>
      <trkpt lat="43.13993" lon="3.10159">
        <ele>65.818008</ele>
        <time>2010-10-20T15:02:59Z</time>
      </trkpt>
      <trkpt lat="43.13983" lon="3.10152">
        <ele>64.574554</ele>
        <time>2010-10-20T15:02:59Z</time>
      </trkpt>
      <trkpt lat="43.1396" lon="3.10142">
        <ele>63.56216</ele>
        <time>2010-10-20T15:02:59Z</time>
      </trkpt>
      <trkpt lat="43.13937" lon="3.10134">
        <ele>62.23988</ele>
        <time>2010-10-20T15:02:59Z</time>
      </trkpt>
      <trkpt lat="43.13916" lon="3.10128">
        <ele>60.867306</ele>
        <time>2010-10-20T15:02:59Z</time>
      </trkpt>
      <trkpt lat="43.13904" lon="3.10127">
        <ele>60.593525</ele>
        <time>2010-10-20T15:02:59Z</time>
      </trkpt>
      <trkpt lat="43.13893" lon="3.10142">
        <ele>58.928326</ele>
        <time>2010-10-20T15:02:59Z</time>
      </trkpt>
      <trkpt lat="43.13879" lon="3.1016">
        <ele>56.755203</ele>
        <time>2010-10-20T15:02:59Z</time>
      </trkpt>
      <trkpt lat="43.1387" lon="3.10172">
        <ele>55.970985</ele>
        <time>2010-10-20T15:02:59Z</time>
      </trkpt>
      <trkpt lat="43.13861" lon="3.10174">
        <ele>55.500404</ele>
        <time>2010-10-20T15:02:59Z</time>
      </trkpt>
      <trkpt lat="43.13841" lon="3.10171">
        <ele>54.468151</ele>
        <time>2010-10-20T15:02:59Z</time>
      </trkpt>
      <trkpt lat="43.13819" lon="3.1017">
        <ele>53.249802</ele>
        <time>2010-10-20T15:02:59Z</time>
      </trkpt>
      <trkpt lat="43.13798" lon="3.10168">
        <ele>51.887615</ele>
        <time>2010-10-20T15:02:59Z</time>
      </trkpt>
      <trkpt lat="43.13779" lon="3.10167">
        <ele>50.690109</ele>
        <time>2010-10-20T15:02:59Z</time>
      </trkpt>
      <trkpt lat="43.13758" lon="3.10165">
        <ele>50.147095</ele>
        <time>2010-10-20T15:02:59Z</time>
      </trkpt>
      <trkpt lat="43.13739" lon="3.10162">
        <ele>49.714169</ele>
        <time>2010-10-20T15:02:59Z</time>
      </trkpt>
      <trkpt lat="43.13723" lon="3.10161">
        <ele>49.340984</ele>
        <time>2010-10-20T15:02:59Z</time>
      </trkpt>
      <trkpt lat="43.13708" lon="3.1016">
        <ele>48.963001</ele>
        <time>2010-10-20T15:02:59Z</time>
      </trkpt>
      <trkpt lat="43.13705" lon="3.10174">
        <ele>48.288502</ele>
        <time>2010-10-20T15:02:59Z</time>
      </trkpt>
      <trkpt lat="43.13709" lon="3.10186">
        <ele>47.892628</ele>
        <time>2010-10-20T15:02:59Z</time>
      </trkpt>
      <trkpt lat="43.13712" lon="3.10203">
        <ele>47.35183</ele>
        <time>2010-10-20T15:02:59Z</time>
      </trkpt>
      <trkpt lat="43.13698" lon="3.10205">
        <ele>46.632435</ele>
        <time>2010-10-20T15:02:59Z</time>
      </trkpt>
      <trkpt lat="43.13674" lon="3.1021">
        <ele>46.753201</ele>
        <time>2010-10-20T15:02:59Z</time>
      </trkpt>
      <trkpt lat="43.13669" lon="3.10211">
        <ele>46.9748</ele>
        <time>2010-10-20T15:02:59Z</time>
      </trkpt>
      <trkpt lat="43.1366" lon="3.10206">
        <ele>47.494492</ele>
        <time>2010-10-20T15:02:59Z</time>
      </trkpt>
      <trkpt lat="43.13654" lon="3.102">
        <ele>47.865452</ele>
        <time>2010-10-20T15:02:59Z</time>
      </trkpt>
      <trkpt lat="43.13651" lon="3.10204">
        <ele>47.91275</ele>
        <time>2010-10-20T15:02:59Z</time>
      </trkpt>
      <trkpt lat="43.13647" lon="3.10215">
        <ele>47.525101</ele>
        <time>2010-10-20T15:02:59Z</time>
      </trkpt>
      <trkpt lat="43.13643" lon="3.10222">
        <ele>46.612804</ele>
        <time>2010-10-20T15:02:59Z</time>
      </trkpt>
      <trkpt lat="43.13629" lon="3.10228">
        <ele>45.613087</ele>
        <time>2010-10-20T15:02:59Z</time>
      </trkpt>
      <trkpt lat="43.13612" lon="3.10233">
        <ele>44.343067</ele>
        <time>2010-10-20T15:02:59Z</time>
      </trkpt>
      <trkpt lat="43.13595" lon="3.1024">
        <ele>42.280094</ele>
        <time>2010-10-20T15:02:59Z</time>
      </trkpt>
      <trkpt lat="43.13579" lon="3.10244">
        <ele>39.560658</ele>
        <time>2010-10-20T15:02:59Z</time>
      </trkpt>
      <trkpt lat="43.13579" lon="3.10228">
        <ele>41.037918</ele>
        <time>2010-10-20T15:02:59Z</time>
      </trkpt>
      <trkpt lat="43.13574" lon="3.10199">
        <ele>41.879803</ele>
        <time>2010-10-20T15:02:59Z</time>
      </trkpt>
      <trkpt lat="43.13567" lon="3.10178">
        <ele>41.169319</ele>
        <time>2010-10-20T15:02:59Z</time>
      </trkpt>
      <trkpt lat="43.13564" lon="3.10156">
        <ele>41.171917</ele>
        <time>2010-10-20T15:02:59Z</time>
      </trkpt>
      <trkpt lat="43.13557" lon="3.10131">
        <ele>40.19363</ele>
        <time>2010-10-20T15:02:59Z</time>
      </trkpt>
      <trkpt lat="43.13555" lon="3.1011">
        <ele>39.971779</ele>
        <time>2010-10-20T15:02:59Z</time>
      </trkpt>
      <trkpt lat="43.13557" lon="3.10089">
        <ele>40.00005</ele>
        <time>2010-10-20T15:02:59Z</time>
      </trkpt>
      <trkpt lat="43.13563" lon="3.10075">
        <ele>41.870438</ele>
        <time>2010-10-20T15:02:59Z</time>
      </trkpt>
      <trkpt lat="43.1357" lon="3.10067">
        <ele>43.140228</ele>
        <time>2010-10-20T15:02:59Z</time>
      </trkpt>
      <trkpt lat="43.13577" lon="3.10058">
        <ele>44.242329</ele>
        <time>2010-10-20T15:02:59Z</time>
      </trkpt>
      <trkpt lat="43.13562" lon="3.10058">
        <ele>42.893223</ele>
        <time>2010-10-20T15:02:59Z</time>
      </trkpt>
      <trkpt lat="43.13547" lon="3.10061">
        <ele>42.507896</ele>
        <time>2010-10-20T15:02:59Z</time>
      </trkpt>
      <trkpt lat="43.13526" lon="3.10064">
        <ele>42.888004</ele>
        <time>2010-10-20T15:02:59Z</time>
      </trkpt>
      <trkpt lat="43.13507" lon="3.1006">
        <ele>44.325943</ele>
        <time>2010-10-20T15:02:59Z</time>
      </trkpt>
      <trkpt lat="43.13486" lon="3.10055">
        <ele>47.375031</ele>
        <time>2010-10-20T15:02:59Z</time>
      </trkpt>
      <trkpt lat="43.13467" lon="3.10055">
        <ele>49.499466</ele>
        <time>2010-10-20T15:02:59Z</time>
      </trkpt>
      <trkpt lat="43.13451" lon="3.10052">
        <ele>50.965176</ele>
        <time>2010-10-20T15:02:59Z</time>
      </trkpt>
      <trkpt lat="43.13433" lon="3.10047">
        <ele>52.688145</ele>
        <time>2010-10-20T15:02:59Z</time>
      </trkpt>
      <trkpt lat="43.13414" lon="3.10045">
        <ele>53.794788</ele>
        <time>2010-10-20T15:02:59Z</time>
      </trkpt>
      <trkpt lat="43.13392" lon="3.10042">
        <ele>54.710056</ele>
        <time>2010-10-20T15:02:59Z</time>
      </trkpt>
      <trkpt lat="43.13369" lon="3.10037">
        <ele>55.714531</ele>
        <time>2010-10-20T15:02:59Z</time>
      </trkpt>
      <trkpt lat="43.1335" lon="3.10028">
        <ele>57.02021</ele>
        <time>2010-10-20T15:02:59Z</time>
      </trkpt>
      <trkpt lat="43.1333" lon="3.1002">
        <ele>58.334442</ele>
        <time>2010-10-20T15:02:59Z</time>
      </trkpt>
      <trkpt lat="43.13312" lon="3.10009">
        <ele>58.741936</ele>
        <time>2010-10-20T15:02:59Z</time>
      </trkpt>
      <trkpt lat="43.13291" lon="3.09995">
        <ele>58.177269</ele>
        <time>2010-10-20T15:02:59Z</time>
      </trkpt>
      <trkpt lat="43.13275" lon="3.09982">
        <ele>56.127621</ele>
        <time>2010-10-20T15:02:59Z</time>
      </trkpt>
      <trkpt lat="43.13257" lon="3.09976">
        <ele>52.761696</ele>
        <time>2010-10-20T15:02:59Z</time>
      </trkpt>
      <trkpt lat="43.13241" lon="3.09969">
        <ele>49.319557</ele>
        <time>2010-10-20T15:02:59Z</time>
      </trkpt>
      <trkpt lat="43.13227" lon="3.09961">
        <ele>47.314972</ele>
        <time>2010-10-20T15:02:59Z</time>
      </trkpt>
      <trkpt lat="43.13216" lon="3.09946">
        <ele>48.115257</ele>
        <time>2010-10-20T15:02:59Z</time>
      </trkpt>
      <trkpt lat="43.1321" lon="3.09927">
        <ele>49.712315</ele>
        <time>2010-10-20T15:02:59Z</time>
      </trkpt>
      <trkpt lat="43.13196" lon="3.09923">
        <ele>47.949421</ele>
        <time>2010-10-20T15:02:59Z</time>
      </trkpt>
      <trkpt lat="43.13184" lon="3.09932">
        <ele>45.524933</ele>
        <time>2010-10-20T15:02:59Z</time>
      </trkpt>
      <trkpt lat="43.13182" lon="3.0995">
        <ele>43.299744</ele>
        <time>2010-10-20T15:02:59Z</time>
      </trkpt>
      <trkpt lat="43.13166" lon="3.09953">
        <ele>41.074764</ele>
        <time>2010-10-20T15:02:59Z</time>
      </trkpt>
      <trkpt lat="43.13157" lon="3.09942">
        <ele>41.299274</ele>
        <time>2010-10-20T15:02:59Z</time>
      </trkpt>
      <trkpt lat="43.13144" lon="3.09947">
        <ele>38.720581</ele>
        <time>2010-10-20T15:02:59Z</time>
      </trkpt>
      <trkpt lat="43.13134" lon="3.09945">
        <ele>36.929871</ele>
        <time>2010-10-20T15:02:59Z</time>
      </trkpt>
      <trkpt lat="43.13111" lon="3.0994">
        <ele>32.454384</ele>
        <time>2010-10-20T15:02:59Z</time>
      </trkpt>
      <trkpt lat="43.13099" lon="3.09954">
        <ele>31.510349</ele>
        <time>2010-10-20T15:02:59Z</time>
      </trkpt>
      <trkpt lat="43.13073" lon="3.09964">
        <ele>30.427488</ele>
        <time>2010-10-20T15:02:59Z</time>
      </trkpt>
      <trkpt lat="43.13044" lon="3.09973">
        <ele>28.72521</ele>
        <time>2010-10-20T15:02:59Z</time>
      </trkpt>
      <trkpt lat="43.13022" lon="3.0995">
        <ele>25.93758</ele>
        <time>2010-10-20T15:02:59Z</time>
      </trkpt>
      <trkpt lat="43.13003" lon="3.09935">
        <ele>24.207613</ele>
        <time>2010-10-20T15:02:59Z</time>
      </trkpt>
      <trkpt lat="43.12982" lon="3.09918">
        <ele>21.788866</ele>
        <time>2010-10-20T15:02:59Z</time>
      </trkpt>
      <trkpt lat="43.12961" lon="3.09903">
        <ele>20.471363</ele>
        <time>2010-10-20T15:02:59Z</time>
      </trkpt>
      <trkpt lat="43.12948" lon="3.0989">
        <ele>20.387079</ele>
        <time>2010-10-20T15:02:59Z</time>
      </trkpt>
      <trkpt lat="43.12931" lon="3.09878">
        <ele>20.512129</ele>
        <time>2010-10-20T15:02:59Z</time>
      </trkpt>
      <trkpt lat="43.12918" lon="3.09867">
        <ele>20.914114</ele>
        <time>2010-10-20T15:02:59Z</time>
      </trkpt>
      <trkpt lat="43.12903" lon="3.09851">
        <ele>21.625124</ele>
        <time>2010-10-20T15:02:59Z</time>
      </trkpt>
      <trkpt lat="43.12887" lon="3.09834">
        <ele>22.778303</ele>
        <time>2010-10-20T15:02:59Z</time>
      </trkpt>
      <trkpt lat="43.12878" lon="3.09811">
        <ele>24.188452</ele>
        <time>2010-10-20T15:02:59Z</time>
      </trkpt>
      <trkpt lat="43.1287" lon="3.0979">
        <ele>25.801882</ele>
        <time>2010-10-20T15:02:59Z</time>
      </trkpt>
      <trkpt lat="43.12862" lon="3.09769">
        <ele>27.003771</ele>
        <time>2010-10-20T15:02:59Z</time>
      </trkpt>
      <trkpt lat="43.12856" lon="3.09753">
        <ele>27.143656</ele>
        <time>2010-10-20T15:02:59Z</time>
      </trkpt>
      <trkpt lat="43.12851" lon="3.09743">
        <ele>27.265379</ele>
        <time>2010-10-20T15:02:59Z</time>
      </trkpt>
      <trkpt lat="43.1284" lon="3.09728">
        <ele>27.499809</ele>
        <time>2010-10-20T15:02:59Z</time>
      </trkpt>
      <trkpt lat="43.12828" lon="3.0971">
        <ele>28.252617</ele>
        <time>2010-10-20T15:02:59Z</time>
      </trkpt>
      <trkpt lat="43.12819" lon="3.097">
        <ele>28.783051</ele>
        <time>2010-10-20T15:02:59Z</time>
      </trkpt>
      <trkpt lat="43.12814" lon="3.09691">
        <ele>29.179588</ele>
        <time>2010-10-20T15:02:59Z</time>
      </trkpt>
      <trkpt lat="43.12812" lon="3.09675">
        <ele>28.293869</ele>
        <time>2010-10-20T15:02:59Z</time>
      </trkpt>
      <trkpt lat="43.12809" lon="3.09659">
        <ele>28.105724</ele>
        <time>2010-10-20T15:02:59Z</time>
      </trkpt>
      <trkpt lat="43.12807" lon="3.09644">
        <ele>28.718718</ele>
        <time>2010-10-20T15:02:59Z</time>
      </trkpt>
      <trkpt lat="43.12807" lon="3.09634">
        <ele>30.147291</ele>
        <time>2010-10-20T15:02:59Z</time>
      </trkpt>
      <trkpt lat="43.128" lon="3.09622">
        <ele>33.761627</ele>
        <time>2010-10-20T15:02:59Z</time>
      </trkpt>
      <trkpt lat="43.12793" lon="3.09604">
        <ele>36.750389</ele>
        <time>2010-10-20T15:02:59Z</time>
      </trkpt>
      <trkpt lat="43.12787" lon="3.09591">
        <ele>37.929756</ele>
        <time>2010-10-20T15:02:59Z</time>
      </trkpt>
      <trkpt lat="43.12782" lon="3.09582">
        <ele>38.63636</ele>
        <time>2010-10-20T15:02:59Z</time>
      </trkpt>
      <trkpt lat="43.12781" lon="3.09569">
        <ele>39.684052</ele>
        <time>2010-10-20T15:02:59Z</time>
      </trkpt>
      <trkpt lat="43.12781" lon="3.09552">
        <ele>41.016853</ele>
        <time>2010-10-20T15:02:59Z</time>
      </trkpt>
      <trkpt lat="43.12784" lon="3.09541">
        <ele>42.278374</ele>
        <time>2010-10-20T15:02:59Z</time>
      </trkpt>
      <trkpt lat="43.12786" lon="3.0952">
        <ele>45.34679</ele>
        <time>2010-10-20T15:02:59Z</time>
      </trkpt>
      <trkpt lat="43.1278" lon="3.09502">
        <ele>48.718235</ele>
        <time>2010-10-20T15:02:59Z</time>
      </trkpt>
      <trkpt lat="43.12762" lon="3.09482">
        <ele>47.534748</ele>
        <time>2010-10-20T15:02:59Z</time>
      </trkpt>
      <trkpt lat="43.12747" lon="3.09468">
        <ele>44.89172</ele>
        <time>2010-10-20T15:02:59Z</time>
      </trkpt>
      <trkpt lat="43.12729" lon="3.09469">
        <ele>40.167812</ele>
        <time>2010-10-20T15:02:59Z</time>
      </trkpt>
      <trkpt lat="43.12701" lon="3.09468">
        <ele>33.87936</ele>
        <time>2010-10-20T15:02:59Z</time>
      </trkpt>
      <trkpt lat="43.12692" lon="3.09454">
        <ele>32.949551</ele>
        <time>2010-10-20T15:02:59Z</time>
      </trkpt>
      <trkpt lat="43.12699" lon="3.09431">
        <ele>35.024342</ele>
        <time>2010-10-20T15:02:59Z</time>
      </trkpt>
      <trkpt lat="43.12704" lon="3.09417">
        <ele>36.462101</ele>
        <time>2010-10-20T15:02:59Z</time>
      </trkpt>
      <trkpt lat="43.12701" lon="3.09399">
        <ele>36.592079</ele>
        <time>2010-10-20T15:02:59Z</time>
      </trkpt>
      <trkpt lat="43.12694" lon="3.09379">
        <ele>35.676659</ele>
        <time>2010-10-20T15:02:59Z</time>
      </trkpt>
      <trkpt lat="43.12693" lon="3.09362">
        <ele>35.798443</ele>
        <time>2010-10-20T15:02:59Z</time>
      </trkpt>
      <trkpt lat="43.12692" lon="3.09339">
        <ele>35.978767</ele>
        <time>2010-10-20T15:02:59Z</time>
      </trkpt>
      <trkpt lat="43.12701" lon="3.09314">
        <ele>37.379662</ele>
        <time>2010-10-20T15:02:59Z</time>
      </trkpt>
      <trkpt lat="43.12709" lon="3.09295">
        <ele>38.805779</ele>
        <time>2010-10-20T15:02:59Z</time>
      </trkpt>
      <trkpt lat="43.12716" lon="3.09279">
        <ele>41.754414</ele>
        <time>2010-10-20T15:02:59Z</time>
      </trkpt>
      <trkpt lat="43.12727" lon="3.09264">
        <ele>45.799095</ele>
        <time>2010-10-20T15:02:59Z</time>
      </trkpt>
      <trkpt lat="43.12735" lon="3.09246">
        <ele>47.237301</ele>
        <time>2010-10-20T15:02:59Z</time>
      </trkpt>
      <trkpt lat="43.1274" lon="3.09229">
        <ele>46.948887</ele>
        <time>2010-10-20T15:02:59Z</time>
      </trkpt>
      <trkpt lat="43.12741" lon="3.09215">
        <ele>45.507824</ele>
        <time>2010-10-20T15:02:59Z</time>
      </trkpt>
      <trkpt lat="43.12729" lon="3.09203">
        <ele>39.292694</ele>
        <time>2010-10-20T15:02:59Z</time>
      </trkpt>
      <trkpt lat="43.12718" lon="3.09197">
        <ele>34.63459</ele>
        <time>2010-10-20T15:02:59Z</time>
      </trkpt>
      <trkpt lat="43.12707" lon="3.09186">
        <ele>30.543737</ele>
        <time>2010-10-20T15:02:59Z</time>
      </trkpt>
      <trkpt lat="43.12694" lon="3.09181">
        <ele>28.542164</ele>
        <time>2010-10-20T15:02:59Z</time>
      </trkpt>
      <trkpt lat="43.12683" lon="3.09176">
        <ele>26.814095</ele>
        <time>2010-10-20T15:02:59Z</time>
      </trkpt>
      <trkpt lat="43.12673" lon="3.09165">
        <ele>25.188084</ele>
        <time>2010-10-20T15:02:59Z</time>
      </trkpt>
      <trkpt lat="43.12657" lon="3.09185">
        <ele>24.165602</ele>
        <time>2010-10-20T15:02:59Z</time>
      </trkpt>
      <trkpt lat="43.12637" lon="3.09197">
        <ele>23.230709</ele>
        <time>2010-10-20T15:02:59Z</time>
      </trkpt>
      <trkpt lat="43.1262" lon="3.09211">
        <ele>22.1199</ele>
        <time>2010-10-20T15:02:59Z</time>
      </trkpt>
      <trkpt lat="43.12605" lon="3.09229">
        <ele>21.933159</ele>
        <time>2010-10-20T15:02:59Z</time>
      </trkpt>
      <trkpt lat="43.12588" lon="3.09235">
        <ele>21.784325</ele>
        <time>2010-10-20T15:02:59Z</time>
      </trkpt>
      <trkpt lat="43.12574" lon="3.09242">
        <ele>21.631256</ele>
        <time>2010-10-20T15:02:59Z</time>
      </trkpt>
      <trkpt lat="43.12562" lon="3.09267">
        <ele>22.121481</ele>
        <time>2010-10-20T15:02:59Z</time>
      </trkpt>
      <trkpt lat="43.12556" lon="3.09285">
        <ele>21.950197</ele>
        <time>2010-10-20T15:02:59Z</time>
      </trkpt>
      <trkpt lat="43.1255" lon="3.09305">
        <ele>21.617479</ele>
        <time>2010-10-20T15:02:59Z</time>
      </trkpt>
      <trkpt lat="43.12544" lon="3.09325">
        <ele>20.898329</ele>
        <time>2010-10-20T15:02:59Z</time>
      </trkpt>
      <trkpt lat="43.12537" lon="3.09341">
        <ele>20.198492</ele>
        <time>2010-10-20T15:02:59Z</time>
      </trkpt>
      <trkpt lat="43.12532" lon="3.09357">
        <ele>20.113815</ele>
        <time>2010-10-20T15:02:59Z</time>
      </trkpt>
      <trkpt lat="43.12508" lon="3.09364">
        <ele>20.562397</ele>
        <time>2010-10-20T15:02:59Z</time>
      </trkpt>
      <trkpt lat="43.12484" lon="3.0937">
        <ele>20.839535</ele>
        <time>2010-10-20T15:02:59Z</time>
      </trkpt>
      <trkpt lat="43.12468" lon="3.0938">
        <ele>20.001179</ele>
        <time>2010-10-20T15:02:59Z</time>
      </trkpt>
      <trkpt lat="43.12441" lon="3.09389">
        <ele>18.861679</ele>
        <time>2010-10-20T15:02:59Z</time>
      </trkpt>
      <trkpt lat="43.12422" lon="3.09391">
        <ele>18.890034</ele>
        <time>2010-10-20T15:02:59Z</time>
      </trkpt>
      <trkpt lat="43.12398" lon="3.09396">
        <ele>18.952393</ele>
        <time>2010-10-20T15:02:59Z</time>
      </trkpt>
      <trkpt lat="43.12379" lon="3.094">
        <ele>18.883757</ele>
        <time>2010-10-20T15:02:59Z</time>
      </trkpt>
      <trkpt lat="43.12361" lon="3.09406">
        <ele>18.593283</ele>
        <time>2010-10-20T15:02:59Z</time>
      </trkpt>
      <trkpt lat="43.12342" lon="3.09407">
        <ele>18.324938</ele>
        <time>2010-10-20T15:02:59Z</time>
      </trkpt>
      <trkpt lat="43.12321" lon="3.09404">
        <ele>17.974781</ele>
        <time>2010-10-20T15:02:59Z</time>
      </trkpt>
      <trkpt lat="43.123" lon="3.09395">
        <ele>17.972599</ele>
        <time>2010-10-20T15:02:59Z</time>
      </trkpt>
      <trkpt lat="43.1228" lon="3.09384">
        <ele>18.215372</ele>
        <time>2010-10-20T15:02:59Z</time>
      </trkpt>
      <trkpt lat="43.12259" lon="3.0937">
        <ele>18.259968</ele>
        <time>2010-10-20T15:02:59Z</time>
      </trkpt>
      <trkpt lat="43.12238" lon="3.09359">
        <ele>18.00827</ele>
        <time>2010-10-20T15:02:59Z</time>
      </trkpt>
      <trkpt lat="43.12215" lon="3.09352">
        <ele>17.442589</ele>
        <time>2010-10-20T15:02:59Z</time>
      </trkpt>
      <trkpt lat="43.122" lon="3.09351">
        <ele>16.800116</ele>
        <time>2010-10-20T15:02:59Z</time>
      </trkpt>
      <trkpt lat="43.12184" lon="3.09359">
        <ele>15.799714</ele>
        <time>2010-10-20T15:02:59Z</time>
      </trkpt>
      <trkpt lat="43.12168" lon="3.09362">
        <ele>15.012972</ele>
        <time>2010-10-20T15:02:59Z</time>
      </trkpt>
      <trkpt lat="43.12146" lon="3.09355">
        <ele>14.576664</ele>
        <time>2010-10-20T15:02:59Z</time>
      </trkpt>
      <trkpt lat="43.12123" lon="3.09351">
        <ele>13.960864</ele>
        <time>2010-10-20T15:02:59Z</time>
      </trkpt>
      <trkpt lat="43.12101" lon="3.0934">
        <ele>12.179453</ele>
        <time>2010-10-20T15:02:59Z</time>
      </trkpt>
      <trkpt lat="43.12089" lon="3.09336">
        <ele>11.01435</ele>
        <time>2010-10-20T15:02:59Z</time>
      </trkpt>
      <trkpt lat="43.1208" lon="3.09351">
        <ele>10.05022</ele>
        <time>2010-10-20T15:02:59Z</time>
      </trkpt>
      <trkpt lat="43.12069" lon="3.09364">
        <ele>10</ele>
        <time>2010-10-20T15:02:59Z</time>
      </trkpt>
      <trkpt lat="43.12052" lon="3.09365">
        <ele>10</ele>
        <time>2010-10-20T15:02:59Z</time>
      </trkpt>
      <trkpt lat="43.12034" lon="3.09362">
        <ele>10</ele>
        <time>2010-10-20T15:02:59Z</time>
      </trkpt>
      <trkpt lat="43.12022" lon="3.09368">
        <ele>9.898256</ele>
        <time>2010-10-20T15:02:59Z</time>
      </trkpt>
      <trkpt lat="43.12018" lon="3.09387">
        <ele>9.969363</ele>
        <time>2010-10-20T15:02:59Z</time>
      </trkpt>
      <trkpt lat="43.12053" lon="3.09431">
        <ele>10.265653</ele>
        <time>2010-10-20T15:02:59Z</time>
      </trkpt>
      <trkpt lat="43.1207" lon="3.09452">
        <ele>10.782017</ele>
        <time>2010-10-20T15:02:59Z</time>
      </trkpt>
      <trkpt lat="43.12084" lon="3.09467">
        <ele>11.026577</ele>
        <time>2010-10-20T15:02:59Z</time>
      </trkpt>
      <trkpt lat="43.12089" lon="3.09483">
        <ele>11.109796</ele>
        <time>2010-10-20T15:02:59Z</time>
      </trkpt>
      <trkpt lat="43.12088" lon="3.09496">
        <ele>11.15461</ele>
        <time>2010-10-20T15:02:59Z</time>
      </trkpt>
      <trkpt lat="43.12083" lon="3.09507">
        <ele>11.086182</ele>
        <time>2010-10-20T15:02:59Z</time>
      </trkpt>
      <trkpt lat="43.12089" lon="3.09521">
        <ele>11.249914</ele>
        <time>2010-10-20T15:02:59Z</time>
      </trkpt>
      <trkpt lat="43.12105" lon="3.09546">
        <ele>11.60007</ele>
        <time>2010-10-20T15:02:59Z</time>
      </trkpt>
      <trkpt lat="43.12121" lon="3.09591">
        <ele>11.962594</ele>
        <time>2010-10-20T15:02:59Z</time>
      </trkpt>
      <trkpt lat="43.12131" lon="3.09623">
        <ele>12.187492</ele>
        <time>2010-10-20T15:02:59Z</time>
      </trkpt>
      <trkpt lat="43.12138" lon="3.09651">
        <ele>12.162404</ele>
        <time>2010-10-20T15:02:59Z</time>
      </trkpt>
      <trkpt lat="43.12144" lon="3.09684">
        <ele>11.762358</ele>
        <time>2010-10-20T15:02:59Z</time>
      </trkpt>
      <trkpt lat="43.12152" lon="3.09717">
        <ele>11.687444</ele>
        <time>2010-10-20T15:02:59Z</time>
      </trkpt>
      <trkpt lat="43.12154" lon="3.09746">
        <ele>11.724986</ele>
        <time>2010-10-20T15:02:59Z</time>
      </trkpt>
      <trkpt lat="43.12154" lon="3.09788">
        <ele>11.300039</ele>
        <time>2010-10-20T15:02:59Z</time>
      </trkpt>
      <trkpt lat="43.12155" lon="3.09818">
        <ele>10.837424</ele>
        <time>2010-10-20T15:02:59Z</time>
      </trkpt>
      <trkpt lat="43.12149" lon="3.0986">
        <ele>10.624905</ele>
        <time>2010-10-20T15:02:59Z</time>
      </trkpt>
      <trkpt lat="43.12146" lon="3.09884">
        <ele>10.575006</ele>
        <time>2010-10-20T15:02:59Z</time>
      </trkpt>
      <trkpt lat="43.1214" lon="3.09929">
        <ele>10.437452</ele>
        <time>2010-10-20T15:02:59Z</time>
      </trkpt>
      <trkpt lat="43.12136" lon="3.09965">
        <ele>10.03759</ele>
        <time>2010-10-20T15:02:59Z</time>
      </trkpt>
      <trkpt lat="43.12128" lon="3.1">
        <ele>9.300133</ele>
        <time>2010-10-20T15:02:59Z</time>
      </trkpt>
      <trkpt lat="43.12117" lon="3.10035">
        <ele>8.475153</ele>
        <time>2010-10-20T15:02:59Z</time>
      </trkpt>
      <trkpt lat="43.1211" lon="3.10071">
        <ele>7.74989</ele>
        <time>2010-10-20T15:02:59Z</time>
      </trkpt>
      <trkpt lat="43.12101" lon="3.10104">
        <ele>7.025014</ele>
        <time>2010-10-20T15:02:59Z</time>
      </trkpt>
      <trkpt lat="43.12096" lon="3.10121">
        <ele>6.637465</ele>
        <time>2010-10-20T15:02:59Z</time>
      </trkpt>
      <trkpt lat="43.12087" lon="3.10143">
        <ele>6.2325</ele>
        <time>2010-10-20T15:02:59Z</time>
      </trkpt>
      <trkpt lat="43.12078" lon="3.1013">
        <ele>6.085267</ele>
        <time>2010-10-20T15:02:59Z</time>
      </trkpt>
      <trkpt lat="43.1206" lon="3.10106">
        <ele>6.362452</ele>
        <time>2010-10-20T15:02:59Z</time>
      </trkpt>
      <trkpt lat="43.12056" lon="3.10112">
        <ele>6.262448</ele>
        <time>2010-10-20T15:02:59Z</time>
      </trkpt>
      <trkpt lat="43.12046" lon="3.10135">
        <ele>5.929692</ele>
        <time>2010-10-20T15:02:59Z</time>
      </trkpt>
      <trkpt lat="43.1203" lon="3.10158">
        <ele>5.524591</ele>
        <time>2010-10-20T15:02:59Z</time>
      </trkpt>
      <trkpt lat="43.12013" lon="3.10185">
        <ele>5.048754</ele>
        <time>2010-10-20T15:02:59Z</time>
      </trkpt>
      <trkpt lat="43.11993" lon="3.10212">
        <ele>5</ele>
        <time>2010-10-20T15:02:59Z</time>
      </trkpt>
      <trkpt lat="43.11971" lon="3.10251">
        <ele>4.728203</ele>
        <time>2010-10-20T15:02:59Z</time>
      </trkpt>
      <trkpt lat="43.11955" lon="3.1027">
        <ele>4.248477</ele>
        <time>2010-10-20T15:02:59Z</time>
      </trkpt>
      <trkpt lat="43.11937" lon="3.10293">
        <ele>4</ele>
        <time>2010-10-20T15:02:59Z</time>
      </trkpt>
      <trkpt lat="43.1192" lon="3.10314">
        <ele>3.97497</ele>
        <time>2010-10-20T15:02:59Z</time>
      </trkpt>
      <trkpt lat="43.11904" lon="3.10339">
        <ele>3.653146</ele>
        <time>2010-10-20T15:02:59Z</time>
      </trkpt>
      <trkpt lat="43.11883" lon="3.1036">
        <ele>3.149921</ele>
        <time>2010-10-20T15:02:59Z</time>
      </trkpt>
      <trkpt lat="43.11864" lon="3.10378">
        <ele>3</ele>
        <time>2010-10-20T15:02:59Z</time>
      </trkpt>
      <trkpt lat="43.11851" lon="3.10392">
        <ele>3</ele>
        <time>2010-10-20T15:02:59Z</time>
      </trkpt>
      <trkpt lat="43.1183" lon="3.10405">
        <ele>2.789113</ele>
        <time>2010-10-20T15:02:59Z</time>
      </trkpt>
      <trkpt lat="43.11818" lon="3.10413">
        <ele>2.553154</ele>
        <time>2010-10-20T15:02:59Z</time>
      </trkpt>
      <trkpt lat="43.11802" lon="3.10413">
        <ele>2.296261</ele>
        <time>2010-10-20T15:02:59Z</time>
      </trkpt>
      <trkpt lat="43.11781" lon="3.10409">
        <ele>2.190305</ele>
        <time>2010-10-20T15:02:59Z</time>
      </trkpt>
      <trkpt lat="43.11763" lon="3.104">
        <ele>2.064043</ele>
        <time>2010-10-20T15:02:59Z</time>
      </trkpt>
      <trkpt lat="43.11741" lon="3.1038">
        <ele>2</ele>
        <time>2010-10-20T15:02:59Z</time>
      </trkpt>
      <trkpt lat="43.11719" lon="3.10363">
        <ele>2.100015</ele>
        <time>2010-10-20T15:02:59Z</time>
      </trkpt>
      <trkpt lat="43.11698" lon="3.1035">
        <ele>2.210888</ele>
        <time>2010-10-20T15:02:59Z</time>
      </trkpt>
      <trkpt lat="43.1168" lon="3.1034">
        <ele>2.127212</ele>
        <time>2010-10-20T15:02:59Z</time>
      </trkpt>
      <trkpt lat="43.11652" lon="3.10332">
        <ele>2</ele>
        <time>2010-10-20T15:02:59Z</time>
      </trkpt>
      <trkpt lat="43.11641" lon="3.10326">
        <ele>2</ele>
        <time>2010-10-20T15:02:59Z</time>
      </trkpt>
      <trkpt lat="43.11638" lon="3.10314">
        <ele>2</ele>
        <time>2010-10-20T15:02:59Z</time>
      </trkpt>
      <trkpt lat="43.11636" lon="3.10282">
        <ele>2.399956</ele>
        <time>2010-10-20T15:02:59Z</time>
      </trkpt>
      <trkpt lat="43.1163" lon="3.10248">
        <ele>2.950028</ele>
        <time>2010-10-20T15:02:59Z</time>
      </trkpt>
      <trkpt lat="43.11623" lon="3.10203">
        <ele>2.991448</ele>
        <time>2010-10-20T15:02:59Z</time>
      </trkpt>
      <trkpt lat="43.11618" lon="3.10164">
        <ele>2.850012</ele>
        <time>2010-10-20T15:02:59Z</time>
      </trkpt>
      <trkpt lat="43.11608" lon="3.10144">
        <ele>2.637586</ele>
        <time>2010-10-20T15:02:59Z</time>
      </trkpt>
      <trkpt lat="43.11597" lon="3.10115">
        <ele>2.374948</ele>
        <time>2010-10-20T15:02:59Z</time>
      </trkpt>
      <trkpt lat="43.1158" lon="3.10077">
        <ele>2.000109</ele>
        <time>2010-10-20T15:02:59Z</time>
      </trkpt>
      <trkpt lat="43.11573" lon="3.1005">
        <ele>1.971587</ele>
        <time>2010-10-20T15:02:59Z</time>
      </trkpt>
      <trkpt lat="43.11565" lon="3.10009">
        <ele>1.717252</ele>
        <time>2010-10-20T15:02:59Z</time>
      </trkpt>
      <trkpt lat="43.11559" lon="3.09963">
        <ele>1.512414</ele>
        <time>2010-10-20T15:02:59Z</time>
      </trkpt>
      <trkpt lat="43.11553" lon="3.09913">
        <ele>1.374968</ele>
        <time>2010-10-20T15:02:59Z</time>
      </trkpt>
      <trkpt lat="43.11547" lon="3.09862">
        <ele>1.475053</ele>
        <time>2010-10-20T15:02:59Z</time>
      </trkpt>
      <trkpt lat="43.11542" lon="3.09801">
        <ele>2.112403</ele>
        <time>2010-10-20T15:02:59Z</time>
      </trkpt>
      <trkpt lat="43.11538" lon="3.09757">
        <ele>2.012553</ele>
        <time>2010-10-20T15:02:59Z</time>
      </trkpt>
      <trkpt lat="43.11535" lon="3.09701">
        <ele>1.950076</ele>
        <time>2010-10-20T15:02:59Z</time>
      </trkpt>
      <trkpt lat="43.11537" lon="3.09655">
        <ele>1.990001</ele>
        <time>2010-10-20T15:02:59Z</time>
      </trkpt>
      <trkpt lat="43.11536" lon="3.09612">
        <ele>2</ele>
        <time>2010-10-20T15:02:59Z</time>
      </trkpt>
      <trkpt lat="43.11537" lon="3.09585">
        <ele>2</ele>
        <time>2010-10-20T15:02:59Z</time>
      </trkpt>
      <trkpt lat="43.11547" lon="3.09557">
        <ele>2.187402</ele>
        <time>2010-10-20T15:02:59Z</time>
      </trkpt>
      <trkpt lat="43.1156" lon="3.0952">
        <ele>2.475033</ele>
        <time>2010-10-20T15:02:59Z</time>
      </trkpt>
      <trkpt lat="43.11561" lon="3.09495">
        <ele>2.487529</ele>
        <time>2010-10-20T15:02:59Z</time>
      </trkpt>
      <trkpt lat="43.11557" lon="3.09476">
        <ele>2.39992</ele>
        <time>2010-10-20T15:02:59Z</time>
      </trkpt>
      <trkpt lat="43.11548" lon="3.09453">
        <ele>2.187606</ele>
        <time>2010-10-20T15:02:59Z</time>
      </trkpt>
      <trkpt lat="43.1153" lon="3.0943">
        <ele>2</ele>
        <time>2010-10-20T15:02:59Z</time>
      </trkpt>
      <trkpt lat="43.11498" lon="3.09389">
        <ele>2</ele>
        <time>2010-10-20T15:02:59Z</time>
      </trkpt>
      <trkpt lat="43.11459" lon="3.09342">
        <ele>2</ele>
        <time>2010-10-20T15:02:59Z</time>
      </trkpt>
      <trkpt lat="43.11433" lon="3.09305">
        <ele>1.612469</ele>
        <time>2010-10-20T15:02:59Z</time>
      </trkpt>
      <trkpt lat="43.11432" lon="3.09268">
        <ele>1.587435</ele>
        <time>2010-10-20T15:02:59Z</time>
      </trkpt>
      <trkpt lat="43.11424" lon="3.09237">
        <ele>1.232466</ele>
        <time>2010-10-20T15:02:59Z</time>
      </trkpt>
      <trkpt lat="43.11404" lon="3.09207">
        <ele>0.949926</ele>
        <time>2010-10-20T15:02:59Z</time>
      </trkpt>
      <trkpt lat="43.11381" lon="3.09197">
        <ele>0.403766</ele>
        <time>2010-10-20T15:02:59Z</time>
      </trkpt>
      <trkpt lat="43.11329" lon="3.09177">
        <ele>1.4</ele>
        <time>2010-10-20T15:02:59Z</time>
      </trkpt>
      <trkpt lat="43.11291" lon="3.0916">
        <ele>0.587493</ele>
        <time>2010-10-20T15:02:59Z</time>
      </trkpt>
      <trkpt lat="43.1125" lon="3.09144">
        <ele>1</ele>
        <time>2010-10-20T15:02:59Z</time>
      </trkpt>
      <trkpt lat="43.11197" lon="3.09124">
        <ele>1.548515</ele>
        <time>2010-10-20T15:02:59Z</time>
      </trkpt>
      <trkpt lat="43.11162" lon="3.0911">
        <ele>1.587473</ele>
        <time>2010-10-20T15:02:59Z</time>
      </trkpt>
      <trkpt lat="43.11132" lon="3.09099">
        <ele>1.412456</ele>
        <time>2010-10-20T15:02:59Z</time>
      </trkpt>
      <trkpt lat="43.11092" lon="3.09083">
        <ele>1.162564</ele>
        <time>2010-10-20T15:02:59Z</time>
      </trkpt>
      <trkpt lat="43.11056" lon="3.0907">
        <ele>0.962434</ele>
        <time>2010-10-20T15:02:59Z</time>
      </trkpt>
      <trkpt lat="43.11011" lon="3.09051">
        <ele>0.662441</ele>
        <time>2010-10-20T15:02:59Z</time>
      </trkpt>
      <trkpt lat="43.10974" lon="3.0904">
        <ele>0.170585</ele>
        <time>2010-10-20T15:02:59Z</time>
      </trkpt>
      <trkpt lat="43.10942" lon="3.09026">
        <ele>0.276634</ele>
        <time>2010-10-20T15:02:59Z</time>
      </trkpt>
      <trkpt lat="43.10905" lon="3.09013">
        <ele>0.949951</ele>
        <time>2010-10-20T15:02:59Z</time>
      </trkpt>
      <trkpt lat="43.10872" lon="3.09">
        <ele>0.850004</ele>
        <time>2010-10-20T15:02:59Z</time>
      </trkpt>
      <trkpt lat="43.10844" lon="3.0899">
        <ele>0.300725</ele>
        <time>2010-10-20T15:02:59Z</time>
      </trkpt>
    </trkseg>
  </trk>
  <trk>
    <name><![CDATA[06 La Montee des Plateaux - TraceGps issued]]></name>
    <extensions>
      <line xmlns="http://www.topografix.com/GPX/gpx_style/0/2">
        <color>FF00FF</color>
        <width>4</width>
      </line>
    </extensions>
    <trkseg>
      <trkpt lat="43.10836" lon="3.0899">
        <ele>0.183825</ele>
      </trkpt>
      <trkpt lat="43.10835" lon="3.08926">
        <ele>1.3</ele>
      </trkpt>
      <trkpt lat="43.10816" lon="3.0888">
        <ele>0.200112</ele>
      </trkpt>
      <trkpt lat="43.10792" lon="3.08824">
        <ele>0.737472</ele>
      </trkpt>
      <trkpt lat="43.10788" lon="3.08772">
        <ele>1.549436</ele>
      </trkpt>
      <trkpt lat="43.10813" lon="3.08721">
        <ele>1.262725</ele>
      </trkpt>
      <trkpt lat="43.10841" lon="3.08687">
        <ele>0.925029</ele>
      </trkpt>
      <trkpt lat="43.10867" lon="3.08633">
        <ele>1.111512</ele>
      </trkpt>
      <trkpt lat="43.10879" lon="3.08589">
        <ele>0.837571</ele>
      </trkpt>
      <trkpt lat="43.10899" lon="3.08523">
        <ele>1.175896</ele>
      </trkpt>
      <trkpt lat="43.10894" lon="3.08476">
        <ele>1.178876</ele>
      </trkpt>
      <trkpt lat="43.10888" lon="3.08409">
        <ele>0.818431</ele>
      </trkpt>
      <trkpt lat="43.10864" lon="3.08352">
        <ele>1.060016</ele>
      </trkpt>
      <trkpt lat="43.10834" lon="3.08312">
        <ele>1.697142</ele>
      </trkpt>
      <trkpt lat="43.10804" lon="3.08291">
        <ele>1.614799</ele>
      </trkpt>
      <trkpt lat="43.10774" lon="3.08296">
        <ele>2.775364</ele>
      </trkpt>
      <trkpt lat="43.10733" lon="3.08277">
        <ele>2.21223</ele>
      </trkpt>
      <trkpt lat="43.10698" lon="3.08287">
        <ele>2.137517</ele>
      </trkpt>
      <trkpt lat="43.10668" lon="3.0831">
        <ele>2.242203</ele>
      </trkpt>
      <trkpt lat="43.10625" lon="3.08344">
        <ele>1.986006</ele>
      </trkpt>
      <trkpt lat="43.106" lon="3.08366">
        <ele>2.01229</ele>
      </trkpt>
      <trkpt lat="43.10563" lon="3.08394">
        <ele>1.237748</ele>
      </trkpt>
      <trkpt lat="43.10549" lon="3.08443">
        <ele>1.625089</ele>
      </trkpt>
      <trkpt lat="43.10506" lon="3.0845">
        <ele>0.812195</ele>
      </trkpt>
      <trkpt lat="43.10476" lon="3.08434">
        <ele>0.365009</ele>
      </trkpt>
      <trkpt lat="43.10435" lon="3.08414">
        <ele>0.898281</ele>
      </trkpt>
      <trkpt lat="43.10399" lon="3.08397">
        <ele>1.481311</ele>
      </trkpt>
      <trkpt lat="43.10371" lon="3.08386">
        <ele>2.85781</ele>
      </trkpt>
      <trkpt lat="43.10325" lon="3.08433">
        <ele>2.698872</ele>
      </trkpt>
      <trkpt lat="43.10289" lon="3.08447">
        <ele>3.149796</ele>
      </trkpt>
      <trkpt lat="43.10236" lon="3.08465">
        <ele>2.737524</ele>
      </trkpt>
      <trkpt lat="43.10202" lon="3.08462">
        <ele>2.774971</ele>
      </trkpt>
      <trkpt lat="43.10175" lon="3.08435">
        <ele>2.789258</ele>
      </trkpt>
      <trkpt lat="43.10137" lon="3.08402">
        <ele>3.593647</ele>
      </trkpt>
      <trkpt lat="43.10111" lon="3.08391">
        <ele>3.922119</ele>
      </trkpt>
      <trkpt lat="43.10076" lon="3.08389">
        <ele>4.62887</ele>
      </trkpt>
      <trkpt lat="43.10035" lon="3.08391">
        <ele>4.79987</ele>
      </trkpt>
      <trkpt lat="43.10003" lon="3.08382">
        <ele>5.049941</ele>
      </trkpt>
      <trkpt lat="43.09967" lon="3.08364">
        <ele>5.150011</ele>
      </trkpt>
      <trkpt lat="43.09941" lon="3.08345">
        <ele>4.88739</ele>
      </trkpt>
      <trkpt lat="43.09947" lon="3.08295">
        <ele>6.275074</ele>
      </trkpt>
      <trkpt lat="43.09941" lon="3.08253">
        <ele>7.545251</ele>
      </trkpt>
      <trkpt lat="43.0995" lon="3.08205">
        <ele>9.644332</ele>
      </trkpt>
      <trkpt lat="43.09949" lon="3.08145">
        <ele>11.923993</ele>
      </trkpt>
      <trkpt lat="43.09935" lon="3.08119">
        <ele>11.947977</ele>
      </trkpt>
      <trkpt lat="43.0991" lon="3.08109">
        <ele>11.451063</ele>
      </trkpt>
      <trkpt lat="43.0989" lon="3.0808">
        <ele>12.806377</ele>
      </trkpt>
      <trkpt lat="43.0988" lon="3.08041">
        <ele>15.624901</ele>
      </trkpt>
      <trkpt lat="43.09866" lon="3.07986">
        <ele>19.802809</ele>
      </trkpt>
      <trkpt lat="43.09848" lon="3.07954">
        <ele>24.249611</ele>
      </trkpt>
      <trkpt lat="43.09843" lon="3.07908">
        <ele>25.749964</ele>
      </trkpt>
      <trkpt lat="43.09829" lon="3.0786">
        <ele>27.350241</ele>
      </trkpt>
      <trkpt lat="43.09838" lon="3.0782">
        <ele>26.405914</ele>
      </trkpt>
      <trkpt lat="43.09844" lon="3.07773">
        <ele>28.801306</ele>
      </trkpt>
      <trkpt lat="43.09857" lon="3.0773">
        <ele>31.710205</ele>
      </trkpt>
      <trkpt lat="43.09854" lon="3.0768">
        <ele>35.389614</ele>
      </trkpt>
      <trkpt lat="43.09846" lon="3.07639">
        <ele>39.550148</ele>
      </trkpt>
      <trkpt lat="43.09807" lon="3.07611">
        <ele>43.936337</ele>
      </trkpt>
      <trkpt lat="43.0979" lon="3.0757">
        <ele>47.618828</ele>
      </trkpt>
      <trkpt lat="43.09757" lon="3.07556">
        <ele>50.324329</ele>
      </trkpt>
      <trkpt lat="43.09723" lon="3.07527">
        <ele>52.582729</ele>
      </trkpt>
      <trkpt lat="43.09698" lon="3.07496">
        <ele>53.743679</ele>
      </trkpt>
      <trkpt lat="43.09663" lon="3.07471">
        <ele>53.798737</ele>
      </trkpt>
      <trkpt lat="43.09641" lon="3.07443">
        <ele>54.862629</ele>
      </trkpt>
      <trkpt lat="43.09629" lon="3.07407">
        <ele>56.625206</ele>
      </trkpt>
      <trkpt lat="43.09596" lon="3.07393">
        <ele>57.123486</ele>
      </trkpt>
      <trkpt lat="43.0957" lon="3.07366">
        <ele>57.362526</ele>
      </trkpt>
      <trkpt lat="43.09537" lon="3.07353">
        <ele>56.825058</ele>
      </trkpt>
      <trkpt lat="43.09515" lon="3.07326">
        <ele>56.400063</ele>
      </trkpt>
      <trkpt lat="43.095" lon="3.07281">
        <ele>56.449982</ele>
      </trkpt>
      <trkpt lat="43.09487" lon="3.07233">
        <ele>57.358143</ele>
      </trkpt>
      <trkpt lat="43.09472" lon="3.07192">
        <ele>58.548527</ele>
      </trkpt>
      <trkpt lat="43.09451" lon="3.07162">
        <ele>58.959045</ele>
      </trkpt>
      <trkpt lat="43.09423" lon="3.07152">
        <ele>58.518421</ele>
      </trkpt>
      <trkpt lat="43.09392" lon="3.07112">
        <ele>57.573566</ele>
      </trkpt>
      <trkpt lat="43.09372" lon="3.07082">
        <ele>56.374649</ele>
      </trkpt>
      <trkpt lat="43.09339" lon="3.07065">
        <ele>54.86084</ele>
      </trkpt>
      <trkpt lat="43.0929" lon="3.07071">
        <ele>49.877388</ele>
      </trkpt>
      <trkpt lat="43.09262" lon="3.07072">
        <ele>45.870777</ele>
      </trkpt>
      <trkpt lat="43.09228" lon="3.07037">
        <ele>41.109554</ele>
      </trkpt>
      <trkpt lat="43.09219" lon="3.07001">
        <ele>37.692974</ele>
      </trkpt>
      <trkpt lat="43.09223" lon="3.06953">
        <ele>32.449749</ele>
      </trkpt>
      <trkpt lat="43.09223" lon="3.06903">
        <ele>25.9508</ele>
      </trkpt>
      <trkpt lat="43.0923" lon="3.06862">
        <ele>22.690434</ele>
      </trkpt>
      <trkpt lat="43.09221" lon="3.06827">
        <ele>20.500113</ele>
      </trkpt>
      <trkpt lat="43.09211" lon="3.06781">
        <ele>18.999985</ele>
      </trkpt>
      <trkpt lat="43.0922" lon="3.06726">
        <ele>18.955652</ele>
      </trkpt>
      <trkpt lat="43.09224" lon="3.06682">
        <ele>20.224916</ele>
      </trkpt>
      <trkpt lat="43.09203" lon="3.06641">
        <ele>20.924797</ele>
      </trkpt>
      <trkpt lat="43.09155" lon="3.06613">
        <ele>20.29092</ele>
      </trkpt>
      <trkpt lat="43.09114" lon="3.06598">
        <ele>18.665655</ele>
      </trkpt>
      <trkpt lat="43.09068" lon="3.06589">
        <ele>17.145041</ele>
      </trkpt>
      <trkpt lat="43.09031" lon="3.06579">
        <ele>16.530937</ele>
      </trkpt>
      <trkpt lat="43.09002" lon="3.06565">
        <ele>15.609337</ele>
      </trkpt>
      <trkpt lat="43.08973" lon="3.06531">
        <ele>14.751494</ele>
      </trkpt>
      <trkpt lat="43.08944" lon="3.06502">
        <ele>13.287356</ele>
      </trkpt>
      <trkpt lat="43.08906" lon="3.065">
        <ele>11.027282</ele>
      </trkpt>
      <trkpt lat="43.08868" lon="3.06485">
        <ele>11.962593</ele>
      </trkpt>
      <trkpt lat="43.08834" lon="3.06475">
        <ele>11.962633</ele>
      </trkpt>
      <trkpt lat="43.08805" lon="3.06471">
        <ele>11.891761</ele>
      </trkpt>
      <trkpt lat="43.08772" lon="3.0646">
        <ele>13.524035</ele>
      </trkpt>
      <trkpt lat="43.08728" lon="3.06439">
        <ele>15.177032</ele>
      </trkpt>
      <trkpt lat="43.08698" lon="3.06433">
        <ele>15.490602</ele>
      </trkpt>
      <trkpt lat="43.08662" lon="3.06431">
        <ele>13.964736</ele>
      </trkpt>
      <trkpt lat="43.08621" lon="3.06428">
        <ele>10.834434</ele>
      </trkpt>
      <trkpt lat="43.08591" lon="3.06434">
        <ele>7.797547</ele>
      </trkpt>
      <trkpt lat="43.08558" lon="3.06449">
        <ele>5.644601</ele>
      </trkpt>
      <trkpt lat="43.08535" lon="3.0642">
        <ele>5.243807</ele>
      </trkpt>
      <trkpt lat="43.08549" lon="3.06382">
        <ele>4.864825</ele>
      </trkpt>
      <trkpt lat="43.08592" lon="3.06329">
        <ele>4.097042</ele>
      </trkpt>
      <trkpt lat="43.08618" lon="3.06299">
        <ele>4.402669</ele>
      </trkpt>
      <trkpt lat="43.08643" lon="3.06274">
        <ele>3.553658</ele>
      </trkpt>
      <trkpt lat="43.08671" lon="3.06216">
        <ele>1.520081</ele>
      </trkpt>
      <trkpt lat="43.08693" lon="3.06187">
        <ele>0.987574</ele>
      </trkpt>
      <trkpt lat="43.08691" lon="3.06144">
        <ele>0.062278</ele>
      </trkpt>
      <trkpt lat="43.08692" lon="3.06102">
        <ele>0.003758</ele>
      </trkpt>
      <trkpt lat="43.08697" lon="3.0604">
        <ele>1</ele>
      </trkpt>
      <trkpt lat="43.087" lon="3.06">
        <ele>1</ele>
      </trkpt>
      <trkpt lat="43.08702" lon="3.05936">
        <ele>1</ele>
      </trkpt>
      <trkpt lat="43.08703" lon="3.05888">
        <ele>0.317949</ele>
      </trkpt>
      <trkpt lat="43.08726" lon="3.05855">
        <ele>0.187462</ele>
      </trkpt>
      <trkpt lat="43.0873" lon="3.05799">
        <ele>0.932549</ele>
      </trkpt>
      <trkpt lat="43.08734" lon="3.05733">
        <ele>1.97508</ele>
      </trkpt>
      <trkpt lat="43.08739" lon="3.05673">
        <ele>3.122977</ele>
      </trkpt>
      <trkpt lat="43.08759" lon="3.05641">
        <ele>4.812312</ele>
      </trkpt>
      <trkpt lat="43.08786" lon="3.05627">
        <ele>6.784268</ele>
      </trkpt>
      <trkpt lat="43.08812" lon="3.05595">
        <ele>9.887475</ele>
      </trkpt>
      <trkpt lat="43.08847" lon="3.05573">
        <ele>12.824947</ele>
      </trkpt>
      <trkpt lat="43.08878" lon="3.0554">
        <ele>15.435309</ele>
      </trkpt>
      <trkpt lat="43.08913" lon="3.05517">
        <ele>17.647148</ele>
      </trkpt>
      <trkpt lat="43.08946" lon="3.05486">
        <ele>19.62879</ele>
      </trkpt>
      <trkpt lat="43.08968" lon="3.05449">
        <ele>22.873159</ele>
      </trkpt>
      <trkpt lat="43.08973" lon="3.05396">
        <ele>25.139912</ele>
      </trkpt>
      <trkpt lat="43.0897" lon="3.05342">
        <ele>26.300686</ele>
      </trkpt>
      <trkpt lat="43.08993" lon="3.05299">
        <ele>28.460854</ele>
      </trkpt>
      <trkpt lat="43.09026" lon="3.05271">
        <ele>29.7201</ele>
      </trkpt>
      <trkpt lat="43.0904" lon="3.05218">
        <ele>28.064856</ele>
      </trkpt>
      <trkpt lat="43.09063" lon="3.05187">
        <ele>25.353714</ele>
      </trkpt>
      <trkpt lat="43.09094" lon="3.05156">
        <ele>23.475439</ele>
      </trkpt>
      <trkpt lat="43.09112" lon="3.05118">
        <ele>21.649324</ele>
      </trkpt>
      <trkpt lat="43.09131" lon="3.05086">
        <ele>20.040606</ele>
      </trkpt>
      <trkpt lat="43.09152" lon="3.05051">
        <ele>17.854723</ele>
      </trkpt>
      <trkpt lat="43.09185" lon="3.05041">
        <ele>18.92836</ele>
      </trkpt>
      <trkpt lat="43.0922" lon="3.0504">
        <ele>18.861788</ele>
      </trkpt>
      <trkpt lat="43.09256" lon="3.05042">
        <ele>18.062868</ele>
      </trkpt>
      <trkpt lat="43.09292" lon="3.05048">
        <ele>17.459576</ele>
      </trkpt>
      <trkpt lat="43.09319" lon="3.05047">
        <ele>15.408792</ele>
      </trkpt>
      <trkpt lat="43.09355" lon="3.05051">
        <ele>10.32451</ele>
      </trkpt>
      <trkpt lat="43.09383" lon="3.05087">
        <ele>11.214606</ele>
      </trkpt>
      <trkpt lat="43.09424" lon="3.05103">
        <ele>7.945792</ele>
      </trkpt>
      <trkpt lat="43.09458" lon="3.05125">
        <ele>7.565972</ele>
      </trkpt>
      <trkpt lat="43.09481" lon="3.05144">
        <ele>9.205454</ele>
      </trkpt>
      <trkpt lat="43.09521" lon="3.05175">
        <ele>8.806389</ele>
      </trkpt>
      <trkpt lat="43.09554" lon="3.05205">
        <ele>9.44539</ele>
      </trkpt>
      <trkpt lat="43.09583" lon="3.05238">
        <ele>11.761159</ele>
      </trkpt>
      <trkpt lat="43.09614" lon="3.05246">
        <ele>6.813954</ele>
      </trkpt>
      <trkpt lat="43.09652" lon="3.0529">
        <ele>6.422083</ele>
      </trkpt>
      <trkpt lat="43.09684" lon="3.05332">
        <ele>5.367518</ele>
      </trkpt>
      <trkpt lat="43.09694" lon="3.05384">
        <ele>8.316095</ele>
      </trkpt>
      <trkpt lat="43.09694" lon="3.05433">
        <ele>11.177624</ele>
      </trkpt>
      <trkpt lat="43.09675" lon="3.05477">
        <ele>14.674112</ele>
      </trkpt>
      <trkpt lat="43.09646" lon="3.05507">
        <ele>16.357967</ele>
      </trkpt>
      <trkpt lat="43.09612" lon="3.05531">
        <ele>20.545223</ele>
      </trkpt>
      <trkpt lat="43.09574" lon="3.0554">
        <ele>22.458921</ele>
      </trkpt>
      <trkpt lat="43.09546" lon="3.05554">
        <ele>21.716169</ele>
      </trkpt>
      <trkpt lat="43.09514" lon="3.05569">
        <ele>25.212484</ele>
      </trkpt>
      <trkpt lat="43.09485" lon="3.0558">
        <ele>27.472591</ele>
      </trkpt>
      <trkpt lat="43.09452" lon="3.05605">
        <ele>27.364378</ele>
      </trkpt>
      <trkpt lat="43.09421" lon="3.05626">
        <ele>25.789024</ele>
      </trkpt>
      <trkpt lat="43.09395" lon="3.05638">
        <ele>24.859358</ele>
      </trkpt>
      <trkpt lat="43.09358" lon="3.05637">
        <ele>24.39484</ele>
      </trkpt>
      <trkpt lat="43.09327" lon="3.05636">
        <ele>24.252743</ele>
      </trkpt>
      <trkpt lat="43.09294" lon="3.05639">
        <ele>23.870789</ele>
      </trkpt>
      <trkpt lat="43.0926" lon="3.05645">
        <ele>22.862009</ele>
      </trkpt>
      <trkpt lat="43.09269" lon="3.05687">
        <ele>17.987356</ele>
      </trkpt>
      <trkpt lat="43.09292" lon="3.05731">
        <ele>19.990101</ele>
      </trkpt>
      <trkpt lat="43.09313" lon="3.05779">
        <ele>22.979574</ele>
      </trkpt>
      <trkpt lat="43.09333" lon="3.05802">
        <ele>26.380821</ele>
      </trkpt>
      <trkpt lat="43.09365" lon="3.05852">
        <ele>30.650404</ele>
      </trkpt>
      <trkpt lat="43.09386" lon="3.05877">
        <ele>37.752083</ele>
      </trkpt>
      <trkpt lat="43.09418" lon="3.05927">
        <ele>40.999664</ele>
      </trkpt>
      <trkpt lat="43.09433" lon="3.0596">
        <ele>45.2258</ele>
      </trkpt>
      <trkpt lat="43.09455" lon="3.05985">
        <ele>50.330734</ele>
      </trkpt>
      <trkpt lat="43.09478" lon="3.06019">
        <ele>59.632229</ele>
      </trkpt>
      <trkpt lat="43.09503" lon="3.06041">
        <ele>64.48764</ele>
      </trkpt>
      <trkpt lat="43.09534" lon="3.06075">
        <ele>65.375626</ele>
      </trkpt>
      <trkpt lat="43.09558" lon="3.06127">
        <ele>63.68206</ele>
      </trkpt>
      <trkpt lat="43.09592" lon="3.06158">
        <ele>61.811317</ele>
      </trkpt>
      <trkpt lat="43.09624" lon="3.06181">
        <ele>63.168972</ele>
      </trkpt>
      <trkpt lat="43.0966" lon="3.06197">
        <ele>64.549721</ele>
      </trkpt>
      <trkpt lat="43.09693" lon="3.06227">
        <ele>64.674866</ele>
      </trkpt>
      <trkpt lat="43.0971" lon="3.06261">
        <ele>62.805584</ele>
      </trkpt>
      <trkpt lat="43.09714" lon="3.06302">
        <ele>60.038223</ele>
      </trkpt>
      <trkpt lat="43.09746" lon="3.06334">
        <ele>61.06992</ele>
      </trkpt>
      <trkpt lat="43.09791" lon="3.06353">
        <ele>57.140259</ele>
      </trkpt>
      <trkpt lat="43.09824" lon="3.06378">
        <ele>50.913929</ele>
      </trkpt>
      <trkpt lat="43.09841" lon="3.06417">
        <ele>46.367168</ele>
      </trkpt>
      <trkpt lat="43.0986" lon="3.06457">
        <ele>43.413692</ele>
      </trkpt>
      <trkpt lat="43.09879" lon="3.06501">
        <ele>42.151485</ele>
      </trkpt>
      <trkpt lat="43.099" lon="3.0653">
        <ele>41.95335</ele>
      </trkpt>
      <trkpt lat="43.09932" lon="3.06549">
        <ele>44.049561</ele>
      </trkpt>
      <trkpt lat="43.09978" lon="3.06555">
        <ele>46.749802</ele>
      </trkpt>
      <trkpt lat="43.10024" lon="3.06544">
        <ele>47.982174</ele>
      </trkpt>
      <trkpt lat="43.10061" lon="3.06549">
        <ele>45.23687</ele>
      </trkpt>
      <trkpt lat="43.10097" lon="3.06569">
        <ele>41.592892</ele>
      </trkpt>
      <trkpt lat="43.10128" lon="3.06595">
        <ele>40.482906</ele>
      </trkpt>
      <trkpt lat="43.10159" lon="3.06623">
        <ele>38.660244</ele>
      </trkpt>
      <trkpt lat="43.10194" lon="3.06644">
        <ele>37.406216</ele>
      </trkpt>
      <trkpt lat="43.10222" lon="3.06664">
        <ele>38.095074</ele>
      </trkpt>
      <trkpt lat="43.10241" lon="3.06713">
        <ele>37.675114</ele>
      </trkpt>
      <trkpt lat="43.10266" lon="3.06744">
        <ele>37.433147</ele>
      </trkpt>
      <trkpt lat="43.10294" lon="3.06762">
        <ele>36.219238</ele>
      </trkpt>
      <trkpt lat="43.10314" lon="3.06813">
        <ele>34.637745</ele>
      </trkpt>
      <trkpt lat="43.10329" lon="3.06834">
        <ele>35.31284</ele>
      </trkpt>
      <trkpt lat="43.10338" lon="3.06791">
        <ele>36.605415</ele>
      </trkpt>
      <trkpt lat="43.10335" lon="3.06722">
        <ele>38.232059</ele>
      </trkpt>
      <trkpt lat="43.10347" lon="3.06672">
        <ele>38.928326</ele>
      </trkpt>
      <trkpt lat="43.10362" lon="3.06628">
        <ele>35.869274</ele>
      </trkpt>
      <trkpt lat="43.10377" lon="3.06594">
        <ele>35.19804</ele>
      </trkpt>
      <trkpt lat="43.10393" lon="3.06549">
        <ele>32.235878</ele>
      </trkpt>
      <trkpt lat="43.10415" lon="3.06509">
        <ele>31.788691</ele>
      </trkpt>
      <trkpt lat="43.10431" lon="3.06474">
        <ele>29.755136</ele>
      </trkpt>
      <trkpt lat="43.10453" lon="3.06434">
        <ele>26.015337</ele>
      </trkpt>
      <trkpt lat="43.10471" lon="3.06403">
        <ele>25.419519</ele>
      </trkpt>
      <trkpt lat="43.10482" lon="3.06364">
        <ele>21.736862</ele>
      </trkpt>
      <trkpt lat="43.1048" lon="3.06322">
        <ele>19.282204</ele>
      </trkpt>
      <trkpt lat="43.10476" lon="3.06279">
        <ele>15.151855</ele>
      </trkpt>
      <trkpt lat="43.10499" lon="3.06271">
        <ele>14.624515</ele>
      </trkpt>
      <trkpt lat="43.10546" lon="3.06271">
        <ele>13.157263</ele>
      </trkpt>
      <trkpt lat="43.10586" lon="3.06272">
        <ele>11.916498</ele>
      </trkpt>
      <trkpt lat="43.10616" lon="3.06272">
        <ele>11.338291</ele>
      </trkpt>
      <trkpt lat="43.10639" lon="3.06287">
        <ele>12.725422</ele>
      </trkpt>
      <trkpt lat="43.10677" lon="3.06311">
        <ele>13.864292</ele>
      </trkpt>
      <trkpt lat="43.10718" lon="3.06335">
        <ele>12.45827</ele>
      </trkpt>
      <trkpt lat="43.10748" lon="3.06366">
        <ele>9.622444</ele>
      </trkpt>
      <trkpt lat="43.10774" lon="3.06417">
        <ele>9.12501</ele>
      </trkpt>
      <trkpt lat="43.108" lon="3.06427">
        <ele>9.456547</ele>
      </trkpt>
      <trkpt lat="43.10826" lon="3.0639">
        <ele>5.911881</ele>
      </trkpt>
      <trkpt lat="43.10842" lon="3.06355">
        <ele>3.141137</ele>
      </trkpt>
      <trkpt lat="43.10869" lon="3.06337">
        <ele>2.619923</ele>
      </trkpt>
      <trkpt lat="43.109" lon="3.06338">
        <ele>2.634382</ele>
      </trkpt>
      <trkpt lat="43.10926" lon="3.06336">
        <ele>2.096887</ele>
      </trkpt>
      <trkpt lat="43.10957" lon="3.06338">
        <ele>1.437564</ele>
      </trkpt>
      <trkpt lat="43.1099" lon="3.06336">
        <ele>1</ele>
      </trkpt>
      <trkpt lat="43.10984" lon="3.06387">
        <ele>1.177942</ele>
      </trkpt>
      <trkpt lat="43.10993" lon="3.06432">
        <ele>1.6056</ele>
      </trkpt>
      <trkpt lat="43.11027" lon="3.06483">
        <ele>0.895209</ele>
      </trkpt>
      <trkpt lat="43.11052" lon="3.0653">
        <ele>0.299963</ele>
      </trkpt>
      <trkpt lat="43.11078" lon="3.06571">
        <ele>1</ele>
      </trkpt>
      <trkpt lat="43.11119" lon="3.0659">
        <ele>0.199972</ele>
      </trkpt>
      <trkpt lat="43.11152" lon="3.06636">
        <ele>0.950045</ele>
      </trkpt>
      <trkpt lat="43.11175" lon="3.06667">
        <ele>1.45002</ele>
      </trkpt>
      <trkpt lat="43.11196" lon="3.06699">
        <ele>1.691437</ele>
      </trkpt>
      <trkpt lat="43.11228" lon="3.06746">
        <ele>1.646246</ele>
      </trkpt>
      <trkpt lat="43.11263" lon="3.06799">
        <ele>1.562404</ele>
      </trkpt>
      <trkpt lat="43.11291" lon="3.06842">
        <ele>1.512522</ele>
      </trkpt>
      <trkpt lat="43.11308" lon="3.0687">
        <ele>1.449922</ele>
      </trkpt>
      <trkpt lat="43.1134" lon="3.06924">
        <ele>2.389876</ele>
      </trkpt>
      <trkpt lat="43.11359" lon="3.06949">
        <ele>2.698869</ele>
      </trkpt>
      <trkpt lat="43.11374" lon="3.06977">
        <ele>2.406375</ele>
      </trkpt>
      <trkpt lat="43.11404" lon="3.07016">
        <ele>3.212569</ele>
      </trkpt>
      <trkpt lat="43.1143" lon="3.07038">
        <ele>3.935085</ele>
      </trkpt>
      <trkpt lat="43.11457" lon="3.07055">
        <ele>3.799842</ele>
      </trkpt>
      <trkpt lat="43.11482" lon="3.0707">
        <ele>2.987396</ele>
      </trkpt>
      <trkpt lat="43.11524" lon="3.07107">
        <ele>1.555037</ele>
      </trkpt>
      <trkpt lat="43.11567" lon="3.07136">
        <ele>1.478814</ele>
      </trkpt>
      <trkpt lat="43.11611" lon="3.07152">
        <ele>1.687598</ele>
      </trkpt>
      <trkpt lat="43.11636" lon="3.07182">
        <ele>1.762603</ele>
      </trkpt>
      <trkpt lat="43.11658" lon="3.0722">
        <ele>1.349996</ele>
      </trkpt>
      <trkpt lat="43.11671" lon="3.07282">
        <ele>1</ele>
      </trkpt>
      <trkpt lat="43.11677" lon="3.0734">
        <ele>1</ele>
      </trkpt>
      <trkpt lat="43.11674" lon="3.07375">
        <ele>1.115954</ele>
      </trkpt>
      <trkpt lat="43.11669" lon="3.07427">
        <ele>1.579001</ele>
      </trkpt>
      <trkpt lat="43.11664" lon="3.07478">
        <ele>1.927811</ele>
      </trkpt>
      <trkpt lat="43.11665" lon="3.07512">
        <ele>2.414345</ele>
      </trkpt>
      <trkpt lat="43.11659" lon="3.07549">
        <ele>2.777554</ele>
      </trkpt>
      <trkpt lat="43.11654" lon="3.07584">
        <ele>3.5973</ele>
      </trkpt>
      <trkpt lat="43.11678" lon="3.07577">
        <ele>5.172345</ele>
      </trkpt>
      <trkpt lat="43.11684" lon="3.07544">
        <ele>3.734272</ele>
      </trkpt>
      <trkpt lat="43.11716" lon="3.07521">
        <ele>3.725171</ele>
      </trkpt>
      <trkpt lat="43.1176" lon="3.07498">
        <ele>4.315268</ele>
      </trkpt>
      <trkpt lat="43.11795" lon="3.0747">
        <ele>4.088663</ele>
      </trkpt>
      <trkpt lat="43.11818" lon="3.07451">
        <ele>4.024041</ele>
      </trkpt>
      <trkpt lat="43.1185" lon="3.07424">
        <ele>4.68277</ele>
      </trkpt>
      <trkpt lat="43.11879" lon="3.07422">
        <ele>6.300176</ele>
      </trkpt>
      <trkpt lat="43.11912" lon="3.07424">
        <ele>7.825068</ele>
      </trkpt>
      <trkpt lat="43.1195" lon="3.07421">
        <ele>7.140663</ele>
      </trkpt>
      <trkpt lat="43.1198" lon="3.07421">
        <ele>7.060959</ele>
      </trkpt>
      <trkpt lat="43.12017" lon="3.07434">
        <ele>7.600775</ele>
      </trkpt>
      <trkpt lat="43.12057" lon="3.07454">
        <ele>9.635209</ele>
      </trkpt>
      <trkpt lat="43.12082" lon="3.07465">
        <ele>11.140546</ele>
      </trkpt>
      <trkpt lat="43.12121" lon="3.07488">
        <ele>12.099867</ele>
      </trkpt>
      <trkpt lat="43.12158" lon="3.07506">
        <ele>13.486321</ele>
      </trkpt>
      <trkpt lat="43.12184" lon="3.07482">
        <ele>14.66604</ele>
      </trkpt>
      <trkpt lat="43.1221" lon="3.07468">
        <ele>16.854445</ele>
      </trkpt>
      <trkpt lat="43.12242" lon="3.07499">
        <ele>18.121717</ele>
      </trkpt>
      <trkpt lat="43.12263" lon="3.07519">
        <ele>19.927425</ele>
      </trkpt>
      <trkpt lat="43.12287" lon="3.07509">
        <ele>20.992371</ele>
      </trkpt>
      <trkpt lat="43.12318" lon="3.07499">
        <ele>22.17975</ele>
      </trkpt>
      <trkpt lat="43.12324" lon="3.07535">
        <ele>24.022465</ele>
      </trkpt>
      <trkpt lat="43.12319" lon="3.07571">
        <ele>25.202541</ele>
      </trkpt>
      <trkpt lat="43.12311" lon="3.07629">
        <ele>28.413216</ele>
      </trkpt>
      <trkpt lat="43.12298" lon="3.07676">
        <ele>32.667744</ele>
      </trkpt>
      <trkpt lat="43.12289" lon="3.07712">
        <ele>33.338333</ele>
      </trkpt>
      <trkpt lat="43.12286" lon="3.07758">
        <ele>35.470066</ele>
      </trkpt>
      <trkpt lat="43.12296" lon="3.07803">
        <ele>38.7794</ele>
      </trkpt>
      <trkpt lat="43.12319" lon="3.07865">
        <ele>41.481361</ele>
      </trkpt>
      <trkpt lat="43.12332" lon="3.07908">
        <ele>42.882519</ele>
      </trkpt>
      <trkpt lat="43.1234" lon="3.0794">
        <ele>40.378929</ele>
      </trkpt>
      <trkpt lat="43.12339" lon="3.07973">
        <ele>37.080318</ele>
      </trkpt>
      <trkpt lat="43.12357" lon="3.08">
        <ele>34.082512</ele>
      </trkpt>
      <trkpt lat="43.1237" lon="3.08055">
        <ele>32.521774</ele>
      </trkpt>
      <trkpt lat="43.12382" lon="3.08102">
        <ele>32.098515</ele>
      </trkpt>
      <trkpt lat="43.12389" lon="3.08134">
        <ele>32.29398</ele>
      </trkpt>
      <trkpt lat="43.12401" lon="3.08182">
        <ele>32.759743</ele>
      </trkpt>
      <trkpt lat="43.12415" lon="3.08229">
        <ele>35.290306</ele>
      </trkpt>
      <trkpt lat="43.12429" lon="3.08256">
        <ele>36.057407</ele>
      </trkpt>
      <trkpt lat="43.12454" lon="3.08291">
        <ele>37.082447</ele>
      </trkpt>
      <trkpt lat="43.1247" lon="3.08321">
        <ele>40.130146</ele>
      </trkpt>
      <trkpt lat="43.12445" lon="3.0833">
        <ele>41.274757</ele>
      </trkpt>
      <trkpt lat="43.12442" lon="3.08368">
        <ele>45.907162</ele>
      </trkpt>
      <trkpt lat="43.1245" lon="3.08402">
        <ele>49.815739</ele>
      </trkpt>
      <trkpt lat="43.12465" lon="3.08455">
        <ele>53.368755</ele>
      </trkpt>
      <trkpt lat="43.1248" lon="3.08487">
        <ele>55</ele>
      </trkpt>
      <trkpt lat="43.12486" lon="3.08527">
        <ele>55</ele>
      </trkpt>
      <trkpt lat="43.12484" lon="3.08582">
        <ele>55</ele>
      </trkpt>
      <trkpt lat="43.12481" lon="3.0863">
        <ele>55</ele>
      </trkpt>
      <trkpt lat="43.12489" lon="3.08682">
        <ele>55</ele>
      </trkpt>
      <trkpt lat="43.125" lon="3.0872">
        <ele>55</ele>
      </trkpt>
      <trkpt lat="43.12511" lon="3.08758">
        <ele>54.181736</ele>
      </trkpt>
      <trkpt lat="43.12504" lon="3.08801">
        <ele>52.456978</ele>
      </trkpt>
      <trkpt lat="43.12517" lon="3.0884">
        <ele>49.503891</ele>
      </trkpt>
      <trkpt lat="43.12539" lon="3.08867">
        <ele>44.995926</ele>
      </trkpt>
      <trkpt lat="43.12542" lon="3.08912">
        <ele>40.721901</ele>
      </trkpt>
      <trkpt lat="43.12551" lon="3.08954">
        <ele>37.656048</ele>
      </trkpt>
      <trkpt lat="43.12556" lon="3.0899">
        <ele>35.872898</ele>
      </trkpt>
      <trkpt lat="43.12581" lon="3.0901">
        <ele>31.978893</ele>
      </trkpt>
      <trkpt lat="43.12591" lon="3.09058">
        <ele>29.047913</ele>
      </trkpt>
      <trkpt lat="43.12592" lon="3.09094">
        <ele>26.871319</ele>
      </trkpt>
      <trkpt lat="43.12592" lon="3.0913">
        <ele>24.902544</ele>
      </trkpt>
      <trkpt lat="43.12578" lon="3.09164">
        <ele>23.622684</ele>
      </trkpt>
      <trkpt lat="43.12579" lon="3.09215">
        <ele>21.999969</ele>
      </trkpt>
      <trkpt lat="43.12571" lon="3.09249">
        <ele>21.809862</ele>
      </trkpt>
      <trkpt lat="43.12557" lon="3.09289">
        <ele>21.825171</ele>
      </trkpt>
      <trkpt lat="43.12542" lon="3.09331">
        <ele>20.615057</ele>
      </trkpt>
      <trkpt lat="43.12526" lon="3.09379">
        <ele>20.015024</ele>
      </trkpt>
      <trkpt lat="43.12509" lon="3.09433">
        <ele>19.918055</ele>
      </trkpt>
      <trkpt lat="43.12492" lon="3.0948">
        <ele>19.762541</ele>
      </trkpt>
      <trkpt lat="43.12509" lon="3.09515">
        <ele>21.100019</ele>
      </trkpt>
      <trkpt lat="43.1255" lon="3.09515">
        <ele>22.387367</ele>
      </trkpt>
      <trkpt lat="43.12576" lon="3.09519">
        <ele>23.129488</ele>
      </trkpt>
      <trkpt lat="43.12617" lon="3.0952">
        <ele>24.974615</ele>
      </trkpt>
      <trkpt lat="43.1264" lon="3.09526">
        <ele>27.249763</ele>
      </trkpt>
      <trkpt lat="43.12668" lon="3.09539">
        <ele>30.491966</ele>
      </trkpt>
      <trkpt lat="43.1269" lon="3.09568">
        <ele>33.040382</ele>
      </trkpt>
      <trkpt lat="43.12708" lon="3.09603">
        <ele>35.26115</ele>
      </trkpt>
      <trkpt lat="43.12717" lon="3.09637">
        <ele>38.183945</ele>
      </trkpt>
      <trkpt lat="43.12724" lon="3.09688">
        <ele>37.887318</ele>
      </trkpt>
      <trkpt lat="43.12749" lon="3.0972">
        <ele>38.137413</ele>
      </trkpt>
      <trkpt lat="43.12761" lon="3.09768">
        <ele>35.312531</ele>
      </trkpt>
      <trkpt lat="43.12769" lon="3.0981">
        <ele>33.653442</ele>
      </trkpt>
      <trkpt lat="43.12777" lon="3.0985">
        <ele>32.587872</ele>
      </trkpt>
      <trkpt lat="43.12784" lon="3.09905">
        <ele>31.01479</ele>
      </trkpt>
      <trkpt lat="43.12798" lon="3.09947">
        <ele>30.249889</ele>
      </trkpt>
      <trkpt lat="43.1281" lon="3.09987">
        <ele>29.059309</ele>
      </trkpt>
      <trkpt lat="43.12841" lon="3.10012">
        <ele>27.028429</ele>
      </trkpt>
      <trkpt lat="43.1285" lon="3.10065">
        <ele>24.600292</ele>
      </trkpt>
      <trkpt lat="43.12856" lon="3.10102">
        <ele>23.362602</ele>
      </trkpt>
      <trkpt lat="43.12859" lon="3.10136">
        <ele>22.587612</ele>
      </trkpt>
      <trkpt lat="43.12862" lon="3.10173">
        <ele>21.521645</ele>
      </trkpt>
      <trkpt lat="43.12863" lon="3.10227">
        <ele>20.292257</ele>
      </trkpt>
      <trkpt lat="43.12875" lon="3.10263">
        <ele>19.848074</ele>
      </trkpt>
      <trkpt lat="43.12915" lon="3.1027">
        <ele>21.499971</ele>
      </trkpt>
      <trkpt lat="43.12954" lon="3.10275">
        <ele>23.110266</ele>
      </trkpt>
      <trkpt lat="43.12987" lon="3.10278">
        <ele>24.112492</ele>
      </trkpt>
      <trkpt lat="43.13015" lon="3.10285">
        <ele>24.637568</ele>
      </trkpt>
      <trkpt lat="43.13042" lon="3.10296">
        <ele>24.773861</ele>
      </trkpt>
      <trkpt lat="43.13064" lon="3.10272">
        <ele>25.812466</ele>
      </trkpt>
      <trkpt lat="43.13079" lon="3.10244">
        <ele>27.193165</ele>
      </trkpt>
      <trkpt lat="43.13097" lon="3.10211">
        <ele>29.249739</ele>
      </trkpt>
      <trkpt lat="43.13113" lon="3.10175">
        <ele>30.538702</ele>
      </trkpt>
      <trkpt lat="43.1313" lon="3.1014">
        <ele>32.062778</ele>
      </trkpt>
      <trkpt lat="43.13155" lon="3.10131">
        <ele>33.433949</ele>
      </trkpt>
      <trkpt lat="43.13186" lon="3.10167">
        <ele>33.174595</ele>
      </trkpt>
      <trkpt lat="43.13205" lon="3.1019">
        <ele>32.319824</ele>
      </trkpt>
      <trkpt lat="43.13237" lon="3.10219">
        <ele>32.564121</ele>
      </trkpt>
      <trkpt lat="43.13268" lon="3.10248">
        <ele>33.150326</ele>
      </trkpt>
      <trkpt lat="43.13294" lon="3.10281">
        <ele>32.948853</ele>
      </trkpt>
      <trkpt lat="43.13318" lon="3.10296">
        <ele>33.473789</ele>
      </trkpt>
      <trkpt lat="43.13354" lon="3.10284">
        <ele>35.181789</ele>
      </trkpt>
      <trkpt lat="43.13392" lon="3.1026">
        <ele>36.2976</ele>
      </trkpt>
      <trkpt lat="43.1343" lon="3.10241">
        <ele>37.891201</ele>
      </trkpt>
      <trkpt lat="43.13456" lon="3.10204">
        <ele>42.651123</ele>
      </trkpt>
      <trkpt lat="43.13467" lon="3.10162">
        <ele>42.874813</ele>
      </trkpt>
      <trkpt lat="43.13483" lon="3.10118">
        <ele>41.946671</ele>
      </trkpt>
      <trkpt lat="43.13497" lon="3.10069">
        <ele>44.273857</ele>
      </trkpt>
      <trkpt lat="43.13521" lon="3.10047">
        <ele>45.227409</ele>
      </trkpt>
      <trkpt lat="43.1355" lon="3.10019">
        <ele>45.976696</ele>
      </trkpt>
      <trkpt lat="43.1356" lon="3.09988">
        <ele>46.210926</ele>
      </trkpt>
      <trkpt lat="43.13563" lon="3.09948">
        <ele>47.071823</ele>
      </trkpt>
      <trkpt lat="43.13561" lon="3.09911">
        <ele>47.31847</ele>
      </trkpt>
      <trkpt lat="43.13557" lon="3.0987">
        <ele>49.265301</ele>
      </trkpt>
      <trkpt lat="43.13583" lon="3.09853">
        <ele>53.575977</ele>
      </trkpt>
      <trkpt lat="43.13606" lon="3.09877">
        <ele>54.507915</ele>
      </trkpt>
      <trkpt lat="43.13634" lon="3.09915">
        <ele>55.387043</ele>
      </trkpt>
      <trkpt lat="43.13659" lon="3.09933">
        <ele>57.824951</ele>
      </trkpt>
      <trkpt lat="43.13693" lon="3.09952">
        <ele>60.749958</ele>
      </trkpt>
      <trkpt lat="43.13713" lon="3.09971">
        <ele>61.164757</ele>
      </trkpt>
      <trkpt lat="43.13743" lon="3.09965">
        <ele>63.831314</ele>
      </trkpt>
      <trkpt lat="43.13764" lon="3.0995">
        <ele>67.754707</ele>
      </trkpt>
      <trkpt lat="43.13787" lon="3.09961">
        <ele>70.680267</ele>
      </trkpt>
      <trkpt lat="43.13804" lon="3.09982">
        <ele>72.599754</ele>
      </trkpt>
      <trkpt lat="43.13829" lon="3.10009">
        <ele>72.887932</ele>
      </trkpt>
      <trkpt lat="43.13866" lon="3.10017">
        <ele>76.138664</ele>
      </trkpt>
      <trkpt lat="43.13895" lon="3.10007">
        <ele>75.586563</ele>
      </trkpt>
      <trkpt lat="43.13914" lon="3.09983">
        <ele>78.089859</ele>
      </trkpt>
      <trkpt lat="43.13923" lon="3.09945">
        <ele>83.42894</ele>
      </trkpt>
      <trkpt lat="43.13931" lon="3.09911">
        <ele>86.231949</ele>
      </trkpt>
      <trkpt lat="43.13945" lon="3.09883">
        <ele>85.366539</ele>
      </trkpt>
      <trkpt lat="43.13959" lon="3.09855">
        <ele>83.37043</ele>
      </trkpt>
      <trkpt lat="43.13971" lon="3.09819">
        <ele>93.053474</ele>
      </trkpt>
      <trkpt lat="43.13991" lon="3.09824">
        <ele>96.756973</ele>
      </trkpt>
      <trkpt lat="43.13998" lon="3.09863">
        <ele>95.200279</ele>
      </trkpt>
      <trkpt lat="43.14005" lon="3.09903">
        <ele>92.043419</ele>
      </trkpt>
      <trkpt lat="43.14027" lon="3.09928">
        <ele>96.279869</ele>
      </trkpt>
      <trkpt lat="43.14029" lon="3.09966">
        <ele>91.934242</ele>
      </trkpt>
      <trkpt lat="43.14061" lon="3.09956">
        <ele>99.174973</ele>
      </trkpt>
      <trkpt lat="43.14088" lon="3.09928">
        <ele>102.267807</ele>
      </trkpt>
      <trkpt lat="43.14103" lon="3.09905">
        <ele>104.821861</ele>
      </trkpt>
      <trkpt lat="43.14105" lon="3.09863">
        <ele>109.419724</ele>
      </trkpt>
      <trkpt lat="43.14105" lon="3.09826">
        <ele>114.390587</ele>
      </trkpt>
      <trkpt lat="43.14127" lon="3.09795">
        <ele>116.544464</ele>
      </trkpt>
      <trkpt lat="43.14139" lon="3.09756">
        <ele>119.92878</ele>
      </trkpt>
      <trkpt lat="43.1414" lon="3.09721">
        <ele>123.547508</ele>
      </trkpt>
      <trkpt lat="43.14138" lon="3.09671">
        <ele>127.765701</ele>
      </trkpt>
      <trkpt lat="43.14142" lon="3.09622">
        <ele>131.453888</ele>
      </trkpt>
      <trkpt lat="43.14146" lon="3.09579">
        <ele>136.917908</ele>
      </trkpt>
      <trkpt lat="43.14127" lon="3.09552">
        <ele>138.673645</ele>
      </trkpt>
      <trkpt lat="43.141" lon="3.09532">
        <ele>138.530426</ele>
      </trkpt>
      <trkpt lat="43.14072" lon="3.09515">
        <ele>139.024231</ele>
      </trkpt>
      <trkpt lat="43.14051" lon="3.09497">
        <ele>140.823822</ele>
      </trkpt>
      <trkpt lat="43.14032" lon="3.09472">
        <ele>143.289108</ele>
      </trkpt>
      <trkpt lat="43.14053" lon="3.09458">
        <ele>144.663727</ele>
      </trkpt>
      <trkpt lat="43.14078" lon="3.09467">
        <ele>145.337219</ele>
      </trkpt>
      <trkpt lat="43.14101" lon="3.09477">
        <ele>146.085663</ele>
      </trkpt>
      <trkpt lat="43.14127" lon="3.0949">
        <ele>146.324234</ele>
      </trkpt>
      <trkpt lat="43.14167" lon="3.09508">
        <ele>146.569824</ele>
      </trkpt>
      <trkpt lat="43.142" lon="3.09523">
        <ele>146.460373</ele>
      </trkpt>
      <trkpt lat="43.14233" lon="3.09531">
        <ele>146.608032</ele>
      </trkpt>
      <trkpt lat="43.14263" lon="3.09537">
        <ele>147.024902</ele>
      </trkpt>
      <trkpt lat="43.14295" lon="3.09549">
        <ele>146.876862</ele>
      </trkpt>
      <trkpt lat="43.14321" lon="3.09558">
        <ele>146.631638</ele>
      </trkpt>
      <trkpt lat="43.14364" lon="3.09561">
        <ele>149.801132</ele>
      </trkpt>
      <trkpt lat="43.14385" lon="3.09553">
        <ele>153.184387</ele>
      </trkpt>
      <trkpt lat="43.14412" lon="3.09533">
        <ele>156.566315</ele>
      </trkpt>
      <trkpt lat="43.14449" lon="3.09542">
        <ele>155.004593</ele>
      </trkpt>
      <trkpt lat="43.14486" lon="3.09554">
        <ele>153.503418</ele>
      </trkpt>
      <trkpt lat="43.1452" lon="3.09554">
        <ele>152.860092</ele>
      </trkpt>
      <trkpt lat="43.14549" lon="3.09527">
        <ele>157.04953</ele>
      </trkpt>
      <trkpt lat="43.14572" lon="3.09495">
        <ele>158.37561</ele>
      </trkpt>
      <trkpt lat="43.14587" lon="3.09466">
        <ele>159.553085</ele>
      </trkpt>
      <trkpt lat="43.14609" lon="3.09444">
        <ele>162.076691</ele>
      </trkpt>
      <trkpt lat="43.1464" lon="3.09465">
        <ele>161.10759</ele>
      </trkpt>
      <trkpt lat="43.14654" lon="3.09503">
        <ele>159.033722</ele>
      </trkpt>
      <trkpt lat="43.14673" lon="3.09533">
        <ele>158.215454</ele>
      </trkpt>
      <trkpt lat="43.14697" lon="3.09545">
        <ele>156.426865</ele>
      </trkpt>
      <trkpt lat="43.14721" lon="3.09528">
        <ele>157.097672</ele>
      </trkpt>
      <trkpt lat="43.14752" lon="3.09508">
        <ele>159.331589</ele>
      </trkpt>
      <trkpt lat="43.14781" lon="3.0951">
        <ele>159.962631</ele>
      </trkpt>
      <trkpt lat="43.14794" lon="3.09543">
        <ele>160.465057</ele>
      </trkpt>
      <trkpt lat="43.1478" lon="3.09591">
        <ele>156.525269</ele>
      </trkpt>
      <trkpt lat="43.14769" lon="3.09641">
        <ele>152.562531</ele>
      </trkpt>
      <trkpt lat="43.14777" lon="3.0968">
        <ele>151.646912</ele>
      </trkpt>
      <trkpt lat="43.14795" lon="3.0972">
        <ele>147.123978</ele>
      </trkpt>
      <trkpt lat="43.14822" lon="3.09753">
        <ele>146.296005</ele>
      </trkpt>
      <trkpt lat="43.14849" lon="3.09772">
        <ele>144.504059</ele>
      </trkpt>
      <trkpt lat="43.1488" lon="3.09768">
        <ele>145.82785</ele>
      </trkpt>
      <trkpt lat="43.14898" lon="3.0978">
        <ele>145.193832</ele>
      </trkpt>
      <trkpt lat="43.14889" lon="3.09809">
        <ele>146.240738</ele>
      </trkpt>
      <trkpt lat="43.14871" lon="3.09828">
        <ele>147.574646</ele>
      </trkpt>
      <trkpt lat="43.14856" lon="3.09859">
        <ele>150.550003</ele>
      </trkpt>
      <trkpt lat="43.14831" lon="3.09864">
        <ele>148.235489</ele>
      </trkpt>
      <trkpt lat="43.1482" lon="3.09896">
        <ele>145.780746</ele>
      </trkpt>
      <trkpt lat="43.14844" lon="3.09896">
        <ele>149.664246</ele>
      </trkpt>
      <trkpt lat="43.14882" lon="3.09905">
        <ele>156.417892</ele>
      </trkpt>
      <trkpt lat="43.14907" lon="3.09924">
        <ele>160.975037</ele>
      </trkpt>
      <trkpt lat="43.1492" lon="3.09957">
        <ele>161.099472</ele>
      </trkpt>
      <trkpt lat="43.14942" lon="3.09977">
        <ele>163.811356</ele>
      </trkpt>
      <trkpt lat="43.14947" lon="3.09944">
        <ele>167.563034</ele>
      </trkpt>
      <trkpt lat="43.14945" lon="3.09907">
        <ele>168.750214</ele>
      </trkpt>
      <trkpt lat="43.14965" lon="3.09903">
        <ele>172.106552</ele>
      </trkpt>
      <trkpt lat="43.14977" lon="3.09939">
        <ele>173.001297</ele>
      </trkpt>
      <trkpt lat="43.14998" lon="3.09972">
        <ele>172.855576</ele>
      </trkpt>
      <trkpt lat="43.15024" lon="3.09998">
        <ele>173.205475</ele>
      </trkpt>
      <trkpt lat="43.15049" lon="3.10028">
        <ele>173.042389</ele>
      </trkpt>
      <trkpt lat="43.15072" lon="3.10052">
        <ele>174.177734</ele>
      </trkpt>
      <trkpt lat="43.15099" lon="3.10085">
        <ele>173.794449</ele>
      </trkpt>
      <trkpt lat="43.15119" lon="3.10113">
        <ele>174.404663</ele>
      </trkpt>
      <trkpt lat="43.15124" lon="3.10153">
        <ele>178.345291</ele>
      </trkpt>
      <trkpt lat="43.15102" lon="3.10171">
        <ele>177.210236</ele>
      </trkpt>
      <trkpt lat="43.15073" lon="3.10179">
        <ele>173.29277</ele>
      </trkpt>
      <trkpt lat="43.15066" lon="3.10213">
        <ele>170.308838</ele>
      </trkpt>
      <trkpt lat="43.15093" lon="3.1023">
        <ele>177.800705</ele>
      </trkpt>
      <trkpt lat="43.1513" lon="3.10247">
        <ele>181.767044</ele>
      </trkpt>
      <trkpt lat="43.15157" lon="3.1027">
        <ele>184.425781</ele>
      </trkpt>
      <trkpt lat="43.1518" lon="3.10305">
        <ele>188.61557</ele>
      </trkpt>
      <trkpt lat="43.15198" lon="3.10335">
        <ele>190.715637</ele>
      </trkpt>
      <trkpt lat="43.15214" lon="3.10357">
        <ele>191.137527</ele>
      </trkpt>
      <trkpt lat="43.15189" lon="3.10375">
        <ele>191.724945</ele>
      </trkpt>
      <trkpt lat="43.15154" lon="3.1037">
        <ele>190.478149</ele>
      </trkpt>
      <trkpt lat="43.15126" lon="3.10377">
        <ele>190.269302</ele>
      </trkpt>
      <trkpt lat="43.15092" lon="3.104">
        <ele>191.432159</ele>
      </trkpt>
      <trkpt lat="43.15067" lon="3.10402">
        <ele>190.728638</ele>
      </trkpt>
      <trkpt lat="43.15038" lon="3.10397">
        <ele>188.313889</ele>
      </trkpt>
      <trkpt lat="43.1502" lon="3.10382">
        <ele>185.7052</ele>
      </trkpt>
      <trkpt lat="43.14987" lon="3.10365">
        <ele>184.012817</ele>
      </trkpt>
      <trkpt lat="43.14958" lon="3.10361">
        <ele>183.316879</ele>
      </trkpt>
      <trkpt lat="43.14935" lon="3.10367">
        <ele>182.495682</ele>
      </trkpt>
      <trkpt lat="43.14933" lon="3.10397">
        <ele>182.422241</ele>
      </trkpt>
      <trkpt lat="43.1495" lon="3.10435">
        <ele>183.172318</ele>
      </trkpt>
      <trkpt lat="43.14977" lon="3.1047">
        <ele>185.227066</ele>
      </trkpt>
      <trkpt lat="43.15009" lon="3.10502">
        <ele>186.895462</ele>
      </trkpt>
      <trkpt lat="43.15035" lon="3.10539">
        <ele>190.480896</ele>
      </trkpt>
      <trkpt lat="43.15054" lon="3.10574">
        <ele>189.717728</ele>
      </trkpt>
      <trkpt lat="43.1507" lon="3.10611">
        <ele>190.06012</ele>
      </trkpt>
      <trkpt lat="43.15078" lon="3.10652">
        <ele>190.563156</ele>
      </trkpt>
      <trkpt lat="43.15069" lon="3.107">
        <ele>188.746475</ele>
      </trkpt>
      <trkpt lat="43.15058" lon="3.10733">
        <ele>187.319626</ele>
      </trkpt>
      <trkpt lat="43.15064" lon="3.1076">
        <ele>186.514954</ele>
      </trkpt>
      <trkpt lat="43.15092" lon="3.10779">
        <ele>188.919724</ele>
      </trkpt>
      <trkpt lat="43.15115" lon="3.108">
        <ele>189.135147</ele>
      </trkpt>
      <trkpt lat="43.15133" lon="3.10835">
        <ele>189.029816</ele>
      </trkpt>
      <trkpt lat="43.15157" lon="3.10843">
        <ele>186.263474</ele>
      </trkpt>
      <trkpt lat="43.15164" lon="3.10814">
        <ele>184.286819</ele>
      </trkpt>
      <trkpt lat="43.15155" lon="3.10776">
        <ele>184.004135</ele>
      </trkpt>
      <trkpt lat="43.15138" lon="3.10739">
        <ele>185.663574</ele>
      </trkpt>
      <trkpt lat="43.15131" lon="3.10701">
        <ele>187.957016</ele>
      </trkpt>
      <trkpt lat="43.1513" lon="3.10661">
        <ele>189.18364</ele>
      </trkpt>
      <trkpt lat="43.15141" lon="3.10631">
        <ele>188.905197</ele>
      </trkpt>
      <trkpt lat="43.15159" lon="3.10603">
        <ele>192.124161</ele>
      </trkpt>
      <trkpt lat="43.15173" lon="3.10579">
        <ele>193.91362</ele>
      </trkpt>
      <trkpt lat="43.15213" lon="3.10576">
        <ele>192.570999</ele>
      </trkpt>
      <trkpt lat="43.15237" lon="3.10574">
        <ele>192.753998</ele>
      </trkpt>
      <trkpt lat="43.15278" lon="3.10568">
        <ele>193.495438</ele>
      </trkpt>
      <trkpt lat="43.15309" lon="3.10556">
        <ele>194.8461</ele>
      </trkpt>
      <trkpt lat="43.15353" lon="3.10554">
        <ele>197.670288</ele>
      </trkpt>
      <trkpt lat="43.15384" lon="3.10558">
        <ele>197.380432</ele>
      </trkpt>
      <trkpt lat="43.15419" lon="3.10571">
        <ele>196.371704</ele>
      </trkpt>
      <trkpt lat="43.15438" lon="3.10582">
        <ele>196.576462</ele>
      </trkpt>
      <trkpt lat="43.15463" lon="3.10613">
        <ele>191.484894</ele>
      </trkpt>
      <trkpt lat="43.15474" lon="3.10639">
        <ele>189.872375</ele>
      </trkpt>
      <trkpt lat="43.15493" lon="3.1068">
        <ele>186.599014</ele>
      </trkpt>
      <trkpt lat="43.15511" lon="3.10704">
        <ele>181.354279</ele>
      </trkpt>
      <trkpt lat="43.15525" lon="3.10685">
        <ele>180.846802</ele>
      </trkpt>
      <trkpt lat="43.15535" lon="3.10645">
        <ele>176.608887</ele>
      </trkpt>
      <trkpt lat="43.15553" lon="3.1062">
        <ele>172.099243</ele>
      </trkpt>
      <trkpt lat="43.15561" lon="3.10657">
        <ele>172.31076</ele>
      </trkpt>
      <trkpt lat="43.15562" lon="3.10709">
        <ele>171.898651</ele>
      </trkpt>
      <trkpt lat="43.15578" lon="3.10763">
        <ele>167.714401</ele>
      </trkpt>
      <trkpt lat="43.15587" lon="3.10789">
        <ele>167.937469</ele>
      </trkpt>
      <trkpt lat="43.1559" lon="3.10841">
        <ele>163.767685</ele>
      </trkpt>
      <trkpt lat="43.15584" lon="3.10893">
        <ele>155.87442</ele>
      </trkpt>
      <trkpt lat="43.15568" lon="3.10924">
        <ele>147.526917</ele>
      </trkpt>
      <trkpt lat="43.15544" lon="3.1092">
        <ele>145.18689</ele>
      </trkpt>
      <trkpt lat="43.15515" lon="3.10895">
        <ele>144.693634</ele>
      </trkpt>
      <trkpt lat="43.15497" lon="3.10882">
        <ele>142.350204</ele>
      </trkpt>
      <trkpt lat="43.1548" lon="3.10863">
        <ele>141.235123</ele>
      </trkpt>
      <trkpt lat="43.15456" lon="3.10843">
        <ele>138.39772</ele>
      </trkpt>
      <trkpt lat="43.15427" lon="3.1083">
        <ele>134.57431</ele>
      </trkpt>
      <trkpt lat="43.15393" lon="3.10835">
        <ele>128.600555</ele>
      </trkpt>
      <trkpt lat="43.15366" lon="3.10871">
        <ele>123.10746</ele>
      </trkpt>
      <trkpt lat="43.15348" lon="3.10912">
        <ele>118.87516</ele>
      </trkpt>
      <trkpt lat="43.15337" lon="3.10957">
        <ele>117.667259</ele>
      </trkpt>
      <trkpt lat="43.15332" lon="3.10986">
        <ele>116.345848</ele>
      </trkpt>
      <trkpt lat="43.15322" lon="3.11039">
        <ele>113.010643</ele>
      </trkpt>
      <trkpt lat="43.15306" lon="3.11079">
        <ele>110.211243</ele>
      </trkpt>
      <trkpt lat="43.15276" lon="3.11096">
        <ele>113.798515</ele>
      </trkpt>
      <trkpt lat="43.15256" lon="3.11109">
        <ele>115.78569</ele>
      </trkpt>
      <trkpt lat="43.15228" lon="3.11123">
        <ele>117.561653</ele>
      </trkpt>
      <trkpt lat="43.15198" lon="3.11133">
        <ele>118.229073</ele>
      </trkpt>
      <trkpt lat="43.15169" lon="3.11144">
        <ele>117.96067</ele>
      </trkpt>
      <trkpt lat="43.15149" lon="3.11147">
        <ele>117.150696</ele>
      </trkpt>
      <trkpt lat="43.15127" lon="3.11148">
        <ele>116.53157</ele>
      </trkpt>
      <trkpt lat="43.15107" lon="3.11142">
        <ele>115.720673</ele>
      </trkpt>
      <trkpt lat="43.15086" lon="3.1111">
        <ele>116.585274</ele>
      </trkpt>
      <trkpt lat="43.15068" lon="3.11089">
        <ele>115.60009</ele>
      </trkpt>
      <trkpt lat="43.15036" lon="3.11074">
        <ele>111.862434</ele>
      </trkpt>
      <trkpt lat="43.15015" lon="3.11078">
        <ele>107.812576</ele>
      </trkpt>
      <trkpt lat="43.1499" lon="3.1108">
        <ele>103.124123</ele>
      </trkpt>
      <trkpt lat="43.14953" lon="3.11099">
        <ele>100.76001</ele>
      </trkpt>
      <trkpt lat="43.14914" lon="3.11094">
        <ele>96.800247</ele>
      </trkpt>
      <trkpt lat="43.14889" lon="3.11071">
        <ele>95.54985</ele>
      </trkpt>
      <trkpt lat="43.14862" lon="3.11065">
        <ele>93.60022</ele>
      </trkpt>
      <trkpt lat="43.1482" lon="3.11058">
        <ele>89.758331</ele>
      </trkpt>
      <trkpt lat="43.14803" lon="3.11041">
        <ele>88.637222</ele>
      </trkpt>
      <trkpt lat="43.14783" lon="3.11007">
        <ele>88.385162</ele>
      </trkpt>
      <trkpt lat="43.14765" lon="3.1099">
        <ele>87.854347</ele>
      </trkpt>
      <trkpt lat="43.14741" lon="3.10979">
        <ele>88.20623</ele>
      </trkpt>
      <trkpt lat="43.14713" lon="3.11013">
        <ele>85.414856</ele>
      </trkpt>
      <trkpt lat="43.14702" lon="3.11042">
        <ele>82.479607</ele>
      </trkpt>
      <trkpt lat="43.14675" lon="3.11087">
        <ele>79.355743</ele>
      </trkpt>
      <trkpt lat="43.14659" lon="3.11112">
        <ele>76.580399</ele>
      </trkpt>
      <trkpt lat="43.14637" lon="3.11139">
        <ele>76.099022</ele>
      </trkpt>
      <trkpt lat="43.14615" lon="3.11163">
        <ele>73.955894</ele>
      </trkpt>
      <trkpt lat="43.14595" lon="3.11182">
        <ele>72.925125</ele>
      </trkpt>
      <trkpt lat="43.14571" lon="3.11207">
        <ele>73.401016</ele>
      </trkpt>
      <trkpt lat="43.14548" lon="3.11224">
        <ele>73.056549</ele>
      </trkpt>
      <trkpt lat="43.14523" lon="3.11246">
        <ele>72.379845</ele>
      </trkpt>
      <trkpt lat="43.145" lon="3.11271">
        <ele>71.742035</ele>
      </trkpt>
      <trkpt lat="43.14484" lon="3.11294">
        <ele>70.052422</ele>
      </trkpt>
      <trkpt lat="43.14466" lon="3.11317">
        <ele>69.772102</ele>
      </trkpt>
      <trkpt lat="43.14451" lon="3.1134">
        <ele>70.773842</ele>
      </trkpt>
      <trkpt lat="43.14434" lon="3.11359">
        <ele>70.374718</ele>
      </trkpt>
      <trkpt lat="43.14413" lon="3.11363">
        <ele>69.300133</ele>
      </trkpt>
      <trkpt lat="43.1438" lon="3.11364">
        <ele>67.799858</ele>
      </trkpt>
      <trkpt lat="43.14361" lon="3.11373">
        <ele>66.649887</ele>
      </trkpt>
      <trkpt lat="43.14342" lon="3.1139">
        <ele>65.635841</ele>
      </trkpt>
      <trkpt lat="43.14329" lon="3.11413">
        <ele>65.219955</ele>
      </trkpt>
      <trkpt lat="43.14309" lon="3.11443">
        <ele>64.975105</ele>
      </trkpt>
      <trkpt lat="43.14294" lon="3.1147">
        <ele>64.390358</ele>
      </trkpt>
      <trkpt lat="43.14284" lon="3.11492">
        <ele>64.103119</ele>
      </trkpt>
      <trkpt lat="43.14269" lon="3.11527">
        <ele>63.687531</ele>
      </trkpt>
      <trkpt lat="43.14258" lon="3.11501">
        <ele>63.69989</ele>
      </trkpt>
      <trkpt lat="43.14255" lon="3.11464">
        <ele>63.524811</ele>
      </trkpt>
      <trkpt lat="43.14245" lon="3.11434">
        <ele>63.075077</ele>
      </trkpt>
      <trkpt lat="43.14232" lon="3.11472">
        <ele>62.499924</ele>
      </trkpt>
      <trkpt lat="43.14228" lon="3.11499">
        <ele>62.324947</ele>
      </trkpt>
      <trkpt lat="43.14221" lon="3.1153">
        <ele>62.040539</ele>
      </trkpt>
      <trkpt lat="43.14215" lon="3.11583">
        <ele>62.109371</ele>
      </trkpt>
      <trkpt lat="43.14204" lon="3.11621">
        <ele>63.060741</ele>
      </trkpt>
      <trkpt lat="43.14175" lon="3.11657">
        <ele>65.313667</ele>
      </trkpt>
      <trkpt lat="43.14156" lon="3.11666">
        <ele>65.682503</ele>
      </trkpt>
      <trkpt lat="43.14134" lon="3.11671">
        <ele>65.829781</ele>
      </trkpt>
      <trkpt lat="43.14104" lon="3.11696">
        <ele>67.161613</ele>
      </trkpt>
      <trkpt lat="43.14092" lon="3.11721">
        <ele>67.616943</ele>
      </trkpt>
      <trkpt lat="43.14078" lon="3.11743">
        <ele>67.901543</ele>
      </trkpt>
      <trkpt lat="43.14067" lon="3.11765">
        <ele>67.568825</ele>
      </trkpt>
      <trkpt lat="43.14052" lon="3.11784">
        <ele>66.680084</ele>
      </trkpt>
      <trkpt lat="43.14038" lon="3.11803">
        <ele>65.399933</ele>
      </trkpt>
      <trkpt lat="43.14025" lon="3.11823">
        <ele>63.712856</ele>
      </trkpt>
      <trkpt lat="43.13998" lon="3.11845">
        <ele>61.30022</ele>
      </trkpt>
      <trkpt lat="43.1398" lon="3.11852">
        <ele>61.181049</ele>
      </trkpt>
      <trkpt lat="43.13958" lon="3.11838">
        <ele>62.813416</ele>
      </trkpt>
      <trkpt lat="43.1396" lon="3.11808">
        <ele>64.056252</ele>
      </trkpt>
      <trkpt lat="43.13958" lon="3.11777">
        <ele>65.189178</ele>
      </trkpt>
      <trkpt lat="43.13947" lon="3.11744">
        <ele>66.227722</ele>
      </trkpt>
      <trkpt lat="43.13916" lon="3.1175">
        <ele>65.94986</ele>
      </trkpt>
      <trkpt lat="43.13896" lon="3.11758">
        <ele>65.61824</ele>
      </trkpt>
      <trkpt lat="43.13864" lon="3.11754">
        <ele>65.622269</ele>
      </trkpt>
      <trkpt lat="43.1384" lon="3.11716">
        <ele>66.64978</ele>
      </trkpt>
      <trkpt lat="43.13826" lon="3.11695">
        <ele>67.518433</ele>
      </trkpt>
      <trkpt lat="43.13814" lon="3.11667">
        <ele>68.54068</ele>
      </trkpt>
      <trkpt lat="43.13805" lon="3.11645">
        <ele>68.349106</ele>
      </trkpt>
      <trkpt lat="43.13776" lon="3.11623">
        <ele>66.534454</ele>
      </trkpt>
      <trkpt lat="43.13745" lon="3.11622">
        <ele>64.961166</ele>
      </trkpt>
      <trkpt lat="43.13725" lon="3.1162">
        <ele>64.099815</ele>
      </trkpt>
      <trkpt lat="43.137" lon="3.11634">
        <ele>61.846611</ele>
      </trkpt>
      <trkpt lat="43.1369" lon="3.11658">
        <ele>58.068966</ele>
      </trkpt>
      <trkpt lat="43.13671" lon="3.11675">
        <ele>56.421715</ele>
      </trkpt>
      <trkpt lat="43.13647" lon="3.11685">
        <ele>58.872311</ele>
      </trkpt>
      <trkpt lat="43.13628" lon="3.11727">
        <ele>55.789886</ele>
      </trkpt>
      <trkpt lat="43.13625" lon="3.11763">
        <ele>52.689823</ele>
      </trkpt>
      <trkpt lat="43.13621" lon="3.11788">
        <ele>51.283733</ele>
      </trkpt>
      <trkpt lat="43.13615" lon="3.11817">
        <ele>49.985237</ele>
      </trkpt>
      <trkpt lat="43.13604" lon="3.1184">
        <ele>49.194164</ele>
      </trkpt>
      <trkpt lat="43.13572" lon="3.11871">
        <ele>47.412586</ele>
      </trkpt>
      <trkpt lat="43.1355" lon="3.1188">
        <ele>46.462288</ele>
      </trkpt>
      <trkpt lat="43.13527" lon="3.11886">
        <ele>45.271515</ele>
      </trkpt>
      <trkpt lat="43.13496" lon="3.11874">
        <ele>43.180031</ele>
      </trkpt>
      <trkpt lat="43.13477" lon="3.11876">
        <ele>41.84079</ele>
      </trkpt>
      <trkpt lat="43.13455" lon="3.11871">
        <ele>39.594501</ele>
      </trkpt>
      <trkpt lat="43.13468" lon="3.11845">
        <ele>35.357449</ele>
      </trkpt>
      <trkpt lat="43.13497" lon="3.11846">
        <ele>39.564892</ele>
      </trkpt>
      <trkpt lat="43.1352" lon="3.11836">
        <ele>42.735481</ele>
      </trkpt>
      <trkpt lat="43.13523" lon="3.11803">
        <ele>41.52187</ele>
      </trkpt>
      <trkpt lat="43.13532" lon="3.11765">
        <ele>41.944954</ele>
      </trkpt>
      <trkpt lat="43.13533" lon="3.11725">
        <ele>42.076557</ele>
      </trkpt>
      <trkpt lat="43.13512" lon="3.11697">
        <ele>38.643974</ele>
      </trkpt>
      <trkpt lat="43.13502" lon="3.11658">
        <ele>36.288528</ele>
      </trkpt>
      <trkpt lat="43.13501" lon="3.11625">
        <ele>34.399612</ele>
      </trkpt>
      <trkpt lat="43.1349" lon="3.11579">
        <ele>30.852741</ele>
      </trkpt>
      <trkpt lat="43.13486" lon="3.11551">
        <ele>29.225273</ele>
      </trkpt>
      <trkpt lat="43.13471" lon="3.11527">
        <ele>26.975241</ele>
      </trkpt>
      <trkpt lat="43.13447" lon="3.11555">
        <ele>26.896996</ele>
      </trkpt>
      <trkpt lat="43.13439" lon="3.11578">
        <ele>28.248497</ele>
      </trkpt>
      <trkpt lat="43.1343" lon="3.11621">
        <ele>29.520367</ele>
      </trkpt>
      <trkpt lat="43.13421" lon="3.11655">
        <ele>29.670189</ele>
      </trkpt>
      <trkpt lat="43.134" lon="3.11693">
        <ele>30.29637</ele>
      </trkpt>
      <trkpt lat="43.1338" lon="3.11726">
        <ele>29.004595</ele>
      </trkpt>
      <trkpt lat="43.13348" lon="3.11734">
        <ele>30.249397</ele>
      </trkpt>
      <trkpt lat="43.13327" lon="3.11741">
        <ele>31.277845</ele>
      </trkpt>
      <trkpt lat="43.13306" lon="3.11746">
        <ele>32.562263</ele>
      </trkpt>
      <trkpt lat="43.13288" lon="3.11753">
        <ele>33.313465</ele>
      </trkpt>
      <trkpt lat="43.13259" lon="3.11781">
        <ele>32.436535</ele>
      </trkpt>
      <trkpt lat="43.13241" lon="3.11803">
        <ele>31.850462</ele>
      </trkpt>
      <trkpt lat="43.1322" lon="3.11826">
        <ele>32.416718</ele>
      </trkpt>
      <trkpt lat="43.13203" lon="3.1185">
        <ele>33.132702</ele>
      </trkpt>
      <trkpt lat="43.1319" lon="3.11869">
        <ele>34.464149</ele>
      </trkpt>
      <trkpt lat="43.13185" lon="3.11892">
        <ele>33.888882</ele>
      </trkpt>
      <trkpt lat="43.13185" lon="3.11921">
        <ele>31.998425</ele>
      </trkpt>
      <trkpt lat="43.13188" lon="3.11955">
        <ele>30.796947</ele>
      </trkpt>
      <trkpt lat="43.13196" lon="3.1199">
        <ele>28.959898</ele>
      </trkpt>
      <trkpt lat="43.13198" lon="3.12021">
        <ele>24.80582</ele>
      </trkpt>
      <trkpt lat="43.13175" lon="3.12028">
        <ele>24.105232</ele>
      </trkpt>
      <trkpt lat="43.13165" lon="3.12002">
        <ele>23.975153</ele>
      </trkpt>
      <trkpt lat="43.13164" lon="3.11976">
        <ele>25.734316</ele>
      </trkpt>
      <trkpt lat="43.13159" lon="3.1195">
        <ele>25.911612</ele>
      </trkpt>
      <trkpt lat="43.13153" lon="3.11922">
        <ele>26.499666</ele>
      </trkpt>
      <trkpt lat="43.13154" lon="3.11893">
        <ele>29.074409</ele>
      </trkpt>
      <trkpt lat="43.13168" lon="3.11851">
        <ele>33.41246</ele>
      </trkpt>
      <trkpt lat="43.13178" lon="3.11827">
        <ele>34.721619</ele>
      </trkpt>
      <trkpt lat="43.13186" lon="3.11806">
        <ele>35.935234</ele>
      </trkpt>
      <trkpt lat="43.13193" lon="3.11775">
        <ele>35.880138</ele>
      </trkpt>
      <trkpt lat="43.13202" lon="3.11753">
        <ele>37.060665</ele>
      </trkpt>
      <trkpt lat="43.13212" lon="3.1173">
        <ele>38.464355</ele>
      </trkpt>
      <trkpt lat="43.13223" lon="3.1171">
        <ele>39.692028</ele>
      </trkpt>
      <trkpt lat="43.13238" lon="3.11694">
        <ele>41.64045</ele>
      </trkpt>
      <trkpt lat="43.1326" lon="3.11705">
        <ele>41.851791</ele>
      </trkpt>
      <trkpt lat="43.1327" lon="3.1168">
        <ele>45.142128</ele>
      </trkpt>
      <trkpt lat="43.13279" lon="3.1166">
        <ele>46.854973</ele>
      </trkpt>
      <trkpt lat="43.13286" lon="3.11638">
        <ele>48.172974</ele>
      </trkpt>
      <trkpt lat="43.13289" lon="3.11612">
        <ele>50.502224</ele>
      </trkpt>
      <trkpt lat="43.13296" lon="3.1158">
        <ele>52.799721</ele>
      </trkpt>
      <trkpt lat="43.13298" lon="3.11556">
        <ele>54.696609</ele>
      </trkpt>
      <trkpt lat="43.133" lon="3.11528">
        <ele>54.686634</ele>
      </trkpt>
      <trkpt lat="43.13308" lon="3.11494">
        <ele>56.401218</ele>
      </trkpt>
      <trkpt lat="43.13312" lon="3.11457">
        <ele>56.550667</ele>
      </trkpt>
      <trkpt lat="43.13313" lon="3.11414">
        <ele>55.399769</ele>
      </trkpt>
      <trkpt lat="43.13315" lon="3.1139">
        <ele>54.499962</ele>
      </trkpt>
      <trkpt lat="43.13329" lon="3.11352">
        <ele>55.36599</ele>
      </trkpt>
      <trkpt lat="43.13338" lon="3.11332">
        <ele>55.691441</ele>
      </trkpt>
      <trkpt lat="43.13355" lon="3.113">
        <ele>56.64254</ele>
      </trkpt>
      <trkpt lat="43.13368" lon="3.11272">
        <ele>57.637978</ele>
      </trkpt>
      <trkpt lat="43.13376" lon="3.11251">
        <ele>58.691734</ele>
      </trkpt>
      <trkpt lat="43.13395" lon="3.11221">
        <ele>61.525608</ele>
      </trkpt>
      <trkpt lat="43.13418" lon="3.11188">
        <ele>62.595261</ele>
      </trkpt>
      <trkpt lat="43.13448" lon="3.11171">
        <ele>67.497093</ele>
      </trkpt>
      <trkpt lat="43.13471" lon="3.11155">
        <ele>69.535164</ele>
      </trkpt>
      <trkpt lat="43.13483" lon="3.11134">
        <ele>70.853035</ele>
      </trkpt>
      <trkpt lat="43.13452" lon="3.11126">
        <ele>69.524277</ele>
      </trkpt>
      <trkpt lat="43.13431" lon="3.11123">
        <ele>68.622002</ele>
      </trkpt>
      <trkpt lat="43.13412" lon="3.11124">
        <ele>68.106285</ele>
      </trkpt>
      <trkpt lat="43.13383" lon="3.11137">
        <ele>67.890419</ele>
      </trkpt>
      <trkpt lat="43.13362" lon="3.11151">
        <ele>67.087196</ele>
      </trkpt>
      <trkpt lat="43.13334" lon="3.11161">
        <ele>66.761749</ele>
      </trkpt>
      <trkpt lat="43.13303" lon="3.11165">
        <ele>66.571892</ele>
      </trkpt>
      <trkpt lat="43.13285" lon="3.11174">
        <ele>66.255882</ele>
      </trkpt>
      <trkpt lat="43.13271" lon="3.11187">
        <ele>65.824944</ele>
      </trkpt>
      <trkpt lat="43.13259" lon="3.11209">
        <ele>65.168633</ele>
      </trkpt>
      <trkpt lat="43.13243" lon="3.11252">
        <ele>64.475304</ele>
      </trkpt>
      <trkpt lat="43.13222" lon="3.11266">
        <ele>62.591133</ele>
      </trkpt>
      <trkpt lat="43.13209" lon="3.11282">
        <ele>61.390003</ele>
      </trkpt>
      <trkpt lat="43.13195" lon="3.11302">
        <ele>61.511242</ele>
      </trkpt>
      <trkpt lat="43.13187" lon="3.11327">
        <ele>59.825703</ele>
      </trkpt>
      <trkpt lat="43.13188" lon="3.1137">
        <ele>55.999622</ele>
      </trkpt>
      <trkpt lat="43.1318" lon="3.11389">
        <ele>50.929211</ele>
      </trkpt>
      <trkpt lat="43.13169" lon="3.11411">
        <ele>44.690105</ele>
      </trkpt>
      <trkpt lat="43.13158" lon="3.11435">
        <ele>38.39645</ele>
      </trkpt>
      <trkpt lat="43.13142" lon="3.11449">
        <ele>31.873642</ele>
      </trkpt>
      <trkpt lat="43.13114" lon="3.11468">
        <ele>24.610909</ele>
      </trkpt>
      <trkpt lat="43.13069" lon="3.11471">
        <ele>19.221483</ele>
      </trkpt>
      <trkpt lat="43.13046" lon="3.11469">
        <ele>17.828812</ele>
      </trkpt>
      <trkpt lat="43.13015" lon="3.11478">
        <ele>16.427364</ele>
      </trkpt>
      <trkpt lat="43.12997" lon="3.11493">
        <ele>15.949963</ele>
      </trkpt>
      <trkpt lat="43.12982" lon="3.11511">
        <ele>15.662546</ele>
      </trkpt>
      <trkpt lat="43.1295" lon="3.11517">
        <ele>15.668131</ele>
      </trkpt>
      <trkpt lat="43.12927" lon="3.11517">
        <ele>15.898763</ele>
      </trkpt>
      <trkpt lat="43.12899" lon="3.11522">
        <ele>16</ele>
      </trkpt>
      <trkpt lat="43.12871" lon="3.11526">
        <ele>16</ele>
      </trkpt>
      <trkpt lat="43.12836" lon="3.11532">
        <ele>16</ele>
      </trkpt>
      <trkpt lat="43.12814" lon="3.11535">
        <ele>16</ele>
      </trkpt>
      <trkpt lat="43.12794" lon="3.11524">
        <ele>16</ele>
      </trkpt>
      <trkpt lat="43.12772" lon="3.11513">
        <ele>16</ele>
      </trkpt>
      <trkpt lat="43.12755" lon="3.11509">
        <ele>16</ele>
      </trkpt>
      <trkpt lat="43.12728" lon="3.11513">
        <ele>16</ele>
      </trkpt>
      <trkpt lat="43.12704" lon="3.11521">
        <ele>16</ele>
      </trkpt>
      <trkpt lat="43.12689" lon="3.11527">
        <ele>15.875478</ele>
      </trkpt>
      <trkpt lat="43.1267" lon="3.11536">
        <ele>15.087382</ele>
      </trkpt>
      <trkpt lat="43.12643" lon="3.11536">
        <ele>13.975019</ele>
      </trkpt>
      <trkpt lat="43.12622" lon="3.11535">
        <ele>13.062385</ele>
      </trkpt>
      <trkpt lat="43.12598" lon="3.1154">
        <ele>11.800051</ele>
      </trkpt>
      <trkpt lat="43.12576" lon="3.11541">
        <ele>10.287275</ele>
      </trkpt>
      <trkpt lat="43.12557" lon="3.11523">
        <ele>9.325318</ele>
      </trkpt>
      <trkpt lat="43.12537" lon="3.11512">
        <ele>8.162813</ele>
      </trkpt>
      <trkpt lat="43.12523" lon="3.11469">
        <ele>7.675012</ele>
      </trkpt>
      <trkpt lat="43.12516" lon="3.11446">
        <ele>7.187399</ele>
      </trkpt>
      <trkpt lat="43.12506" lon="3.11415">
        <ele>6.65021</ele>
      </trkpt>
      <trkpt lat="43.12498" lon="3.11376">
        <ele>6.300115</ele>
      </trkpt>
      <trkpt lat="43.12493" lon="3.11349">
        <ele>6.1449</ele>
      </trkpt>
      <trkpt lat="43.1248" lon="3.11323">
        <ele>5.924712</ele>
      </trkpt>
      <trkpt lat="43.12467" lon="3.11292">
        <ele>5.955659</ele>
      </trkpt>
      <trkpt lat="43.1246" lon="3.1126">
        <ele>5.918439</ele>
      </trkpt>
      <trkpt lat="43.12451" lon="3.11221">
        <ele>6.147598</ele>
      </trkpt>
      <trkpt lat="43.12439" lon="3.11178">
        <ele>6.27675</ele>
      </trkpt>
      <trkpt lat="43.12426" lon="3.11143">
        <ele>5.462569</ele>
      </trkpt>
      <trkpt lat="43.12408" lon="3.11105">
        <ele>5</ele>
      </trkpt>
      <trkpt lat="43.12389" lon="3.11056">
        <ele>5</ele>
      </trkpt>
      <trkpt lat="43.12376" lon="3.1102">
        <ele>5</ele>
      </trkpt>
      <trkpt lat="43.12353" lon="3.10978">
        <ele>5</ele>
      </trkpt>
      <trkpt lat="43.12337" lon="3.10932">
        <ele>5</ele>
      </trkpt>
      <trkpt lat="43.12319" lon="3.10894">
        <ele>5.330595</ele>
      </trkpt>
      <trkpt lat="43.12306" lon="3.10868">
        <ele>5.287554</ele>
      </trkpt>
      <trkpt lat="43.12295" lon="3.10845">
        <ele>5.031197</ele>
      </trkpt>
      <trkpt lat="43.12279" lon="3.10801">
        <ele>5</ele>
      </trkpt>
      <trkpt lat="43.12265" lon="3.1077">
        <ele>5</ele>
      </trkpt>
      <trkpt lat="43.1225" lon="3.10734">
        <ele>5</ele>
      </trkpt>
      <trkpt lat="43.12231" lon="3.10696">
        <ele>5</ele>
      </trkpt>
      <trkpt lat="43.12211" lon="3.10663">
        <ele>4.734328</ele>
      </trkpt>
      <trkpt lat="43.12194" lon="3.10635">
        <ele>4.171582</ele>
      </trkpt>
      <trkpt lat="43.12181" lon="3.10615">
        <ele>4</ele>
      </trkpt>
      <trkpt lat="43.12168" lon="3.1059">
        <ele>4</ele>
      </trkpt>
      <trkpt lat="43.12149" lon="3.10582">
        <ele>4</ele>
      </trkpt>
      <trkpt lat="43.12132" lon="3.10573">
        <ele>4</ele>
      </trkpt>
      <trkpt lat="43.12112" lon="3.1057">
        <ele>4</ele>
      </trkpt>
      <trkpt lat="43.12093" lon="3.10566">
        <ele>4</ele>
      </trkpt>
      <trkpt lat="43.1207" lon="3.10562">
        <ele>4</ele>
      </trkpt>
      <trkpt lat="43.12043" lon="3.10551">
        <ele>4.043577</ele>
      </trkpt>
      <trkpt lat="43.12025" lon="3.10542">
        <ele>4</ele>
      </trkpt>
      <trkpt lat="43.12004" lon="3.10527">
        <ele>4</ele>
      </trkpt>
      <trkpt lat="43.11982" lon="3.10503">
        <ele>4</ele>
      </trkpt>
      <trkpt lat="43.11959" lon="3.10492">
        <ele>4</ele>
      </trkpt>
      <trkpt lat="43.11928" lon="3.10484">
        <ele>3.812426</ele>
      </trkpt>
      <trkpt lat="43.1191" lon="3.10479">
        <ele>3.412533</ele>
      </trkpt>
      <trkpt lat="43.11908" lon="3.10438">
        <ele>3.350063</ele>
      </trkpt>
      <trkpt lat="43.1192" lon="3.10424">
        <ele>3.625033</ele>
      </trkpt>
      <trkpt lat="43.11946" lon="3.10381">
        <ele>4</ele>
      </trkpt>
      <trkpt lat="43.11963" lon="3.1035">
        <ele>4</ele>
      </trkpt>
      <trkpt lat="43.11981" lon="3.1032">
        <ele>4</ele>
      </trkpt>
      <trkpt lat="43.11999" lon="3.10286">
        <ele>4.626222</ele>
      </trkpt>
      <trkpt lat="43.12018" lon="3.10253">
        <ele>4.991575</ele>
      </trkpt>
      <trkpt lat="43.12035" lon="3.10225">
        <ele>5.061903</ele>
      </trkpt>
      <trkpt lat="43.12048" lon="3.10199">
        <ele>5.371793</ele>
      </trkpt>
      <trkpt lat="43.12061" lon="3.10184">
        <ele>5.75256</ele>
      </trkpt>
      <trkpt lat="43.12076" lon="3.10161">
        <ele>6.029675</ele>
      </trkpt>
      <trkpt lat="43.12084" lon="3.10146">
        <ele>6.163142</ele>
      </trkpt>
      <trkpt lat="43.12079" lon="3.10129">
        <ele>6.125054</ele>
      </trkpt>
      <trkpt lat="43.12067" lon="3.10112">
        <ele>6.262516</ele>
      </trkpt>
      <trkpt lat="43.12055" lon="3.10096">
        <ele>6.524968</ele>
      </trkpt>
      <trkpt lat="43.12043" lon="3.10076">
        <ele>6.849923</ele>
      </trkpt>
      <trkpt lat="43.12038" lon="3.10057">
        <ele>7.030445</ele>
      </trkpt>
      <trkpt lat="43.12025" lon="3.10034">
        <ele>6.952525</ele>
      </trkpt>
      <trkpt lat="43.12022" lon="3.10006">
        <ele>6.997817</ele>
      </trkpt>
      <trkpt lat="43.12017" lon="3.09962">
        <ele>7.712463</ele>
      </trkpt>
      <trkpt lat="43.12017" lon="3.09934">
        <ele>8.113723</ele>
      </trkpt>
      <trkpt lat="43.12017" lon="3.09896">
        <ele>8.551287</ele>
      </trkpt>
      <trkpt lat="43.12019" lon="3.09877">
        <ele>8.771946</ele>
      </trkpt>
      <trkpt lat="43.12021" lon="3.09849">
        <ele>8.904353</ele>
      </trkpt>
      <trkpt lat="43.12021" lon="3.09824">
        <ele>8.991549</ele>
      </trkpt>
      <trkpt lat="43.12014" lon="3.09808">
        <ele>9.130159</ele>
      </trkpt>
      <trkpt lat="43.12006" lon="3.09795">
        <ele>9.185903</ele>
      </trkpt>
      <trkpt lat="43.12005" lon="3.09764">
        <ele>9.381472</ele>
      </trkpt>
      <trkpt lat="43.12" lon="3.09731">
        <ele>9.287425</ele>
      </trkpt>
      <trkpt lat="43.1199" lon="3.09716">
        <ele>9.075074</ele>
      </trkpt>
      <trkpt lat="43.11973" lon="3.0971">
        <ele>8.700103</ele>
      </trkpt>
      <trkpt lat="43.11955" lon="3.09711">
        <ele>8.300068</ele>
      </trkpt>
      <trkpt lat="43.11932" lon="3.09715">
        <ele>7.77496</ele>
      </trkpt>
      <trkpt lat="43.11914" lon="3.09711">
        <ele>7.37497</ele>
      </trkpt>
      <trkpt lat="43.11896" lon="3.09708">
        <ele>7</ele>
      </trkpt>
      <trkpt lat="43.11877" lon="3.097">
        <ele>7</ele>
      </trkpt>
      <trkpt lat="43.11867" lon="3.09695">
        <ele>7</ele>
      </trkpt>
      <trkpt lat="43.11857" lon="3.09682">
        <ele>7</ele>
      </trkpt>
      <trkpt lat="43.11853" lon="3.0964">
        <ele>7</ele>
      </trkpt>
      <trkpt lat="43.11846" lon="3.09617">
        <ele>6.549998</ele>
      </trkpt>
      <trkpt lat="43.11832" lon="3.09594">
        <ele>5.875041</ele>
      </trkpt>
      <trkpt lat="43.11823" lon="3.09571">
        <ele>5.337491</ele>
      </trkpt>
      <trkpt lat="43.11811" lon="3.09546">
        <ele>5.050011</ele>
      </trkpt>
      <trkpt lat="43.11802" lon="3.09513">
        <ele>4.865942</ele>
      </trkpt>
      <trkpt lat="43.11797" lon="3.09485">
        <ele>4.852416</ele>
      </trkpt>
      <trkpt lat="43.11803" lon="3.0946">
        <ele>4.979388</ele>
      </trkpt>
      <trkpt lat="43.11806" lon="3.09433">
        <ele>5</ele>
      </trkpt>
      <trkpt lat="43.11811" lon="3.09402">
        <ele>5.03748</ele>
      </trkpt>
      <trkpt lat="43.11808" lon="3.09386">
        <ele>5.048749</ele>
      </trkpt>
      <trkpt lat="43.11784" lon="3.09377">
        <ele>5.087455</ele>
      </trkpt>
      <trkpt lat="43.11761" lon="3.09365">
        <ele>4.94639</ele>
      </trkpt>
      <trkpt lat="43.11734" lon="3.09353">
        <ele>4.707779</ele>
      </trkpt>
      <trkpt lat="43.11708" lon="3.09341">
        <ele>4.562305</ele>
      </trkpt>
      <trkpt lat="43.11674" lon="3.09331">
        <ele>3.97494</ele>
      </trkpt>
      <trkpt lat="43.1165" lon="3.09321">
        <ele>3.45011</ele>
      </trkpt>
      <trkpt lat="43.11629" lon="3.09309">
        <ele>3</ele>
      </trkpt>
      <trkpt lat="43.11604" lon="3.09305">
        <ele>3</ele>
      </trkpt>
      <trkpt lat="43.11583" lon="3.093">
        <ele>2.949947</ele>
      </trkpt>
      <trkpt lat="43.11559" lon="3.09283">
        <ele>2.41246</ele>
      </trkpt>
      <trkpt lat="43.11543" lon="3.09282">
        <ele>2.062599</ele>
      </trkpt>
      <trkpt lat="43.1152" lon="3.09283">
        <ele>2</ele>
      </trkpt>
      <trkpt lat="43.11499" lon="3.09288">
        <ele>2</ele>
      </trkpt>
      <trkpt lat="43.11483" lon="3.09298">
        <ele>2</ele>
      </trkpt>
      <trkpt lat="43.11472" lon="3.09307">
        <ele>2</ele>
      </trkpt>
      <trkpt lat="43.11457" lon="3.09297">
        <ele>2</ele>
      </trkpt>
      <trkpt lat="43.11454" lon="3.09285">
        <ele>2</ele>
      </trkpt>
      <trkpt lat="43.11456" lon="3.09267">
        <ele>2</ele>
      </trkpt>
      <trkpt lat="43.11452" lon="3.09248">
        <ele>1.78064</ele>
      </trkpt>
      <trkpt lat="43.11447" lon="3.09233">
        <ele>1.472542</ele>
      </trkpt>
      <trkpt lat="43.11445" lon="3.0922">
        <ele>1.2696</ele>
      </trkpt>
      <trkpt lat="43.11422" lon="3.09206">
        <ele>1.033745</ele>
      </trkpt>
      <trkpt lat="43.1139" lon="3.09201">
        <ele>0.624946</ele>
      </trkpt>
      <trkpt lat="43.11352" lon="3.09188">
        <ele>1.8</ele>
      </trkpt>
      <trkpt lat="43.11327" lon="3.09176">
        <ele>1.3</ele>
      </trkpt>
      <trkpt lat="43.11302" lon="3.09161">
        <ele>0.3249</ele>
      </trkpt>
      <trkpt lat="43.11276" lon="3.09151">
        <ele>0.912405</ele>
      </trkpt>
      <trkpt lat="43.11248" lon="3.09142">
        <ele>1</ele>
      </trkpt>
      <trkpt lat="43.11209" lon="3.09125">
        <ele>1.335043</ele>
      </trkpt>
      <trkpt lat="43.11173" lon="3.09113">
        <ele>1.637474</ele>
      </trkpt>
      <trkpt lat="43.11135" lon="3.09098">
        <ele>1.387553</ele>
      </trkpt>
      <trkpt lat="43.111" lon="3.09086">
        <ele>1.20003</ele>
      </trkpt>
      <trkpt lat="43.11065" lon="3.09073">
        <ele>0.999991</ele>
      </trkpt>
      <trkpt lat="43.11026" lon="3.09056">
        <ele>0.7375</ele>
      </trkpt>
      <trkpt lat="43.1099" lon="3.09045">
        <ele>0.400714</ele>
      </trkpt>
      <trkpt lat="43.1096" lon="3.09035">
        <ele>0.009972</ele>
      </trkpt>
      <trkpt lat="43.1093" lon="3.09022">
        <ele>0.510042</ele>
      </trkpt>
      <trkpt lat="43.10903" lon="3.09013">
        <ele>0.949917</ele>
      </trkpt>
      <trkpt lat="43.1088" lon="3.09005">
        <ele>0.937551</ele>
      </trkpt>
      <trkpt lat="43.10859" lon="3.08997">
        <ele>0.629655</ele>
      </trkpt>
      <trkpt lat="43.10846" lon="3.08993">
        <ele>0.368821</ele>
      </trkpt>
      <trkpt lat="43.10836" lon="3.0899">
        <ele>0.183825</ele>
      </trkpt>
    </trkseg>
  </trk>
</gpx>